<?xml version="1.0" encoding="UTF-8" standalone="no" ?>
<gpx xmlns="http://www.topografix.com/GPX/1/1" xmlns:xsi="http://www.w3.org/2001/XMLSchema-instance" xsi:schemaLocation="http://www.topografix.com/GPX/1/1 http://www.topografix.com/GPX/1/1/gpx.xsd" version="1.1" creator="VisuGPX - https://www.visugpx.com">
  <metadata>
    <name>le Lurtet 1462m 2506m</name>
    <desc><![CDATA[description à venir
[url][/url]
[img][/img]]]></desc>
  </metadata>
  <trk>
    <name><![CDATA[le Lurtet 1462m 2506m]]></name>
    <trkseg>
      <trkpt lat="42.90355" lon="0.10254">
        <ele>1407</ele>
        <time>2013-05-04T05:32:05Z</time>
      </trkpt>
      <trkpt lat="42.90349" lon="0.10263">
        <ele>1411</ele>
        <time>2013-05-04T05:32:15Z</time>
      </trkpt>
      <trkpt lat="42.9035" lon="0.10262">
        <ele>1415</ele>
        <time>2013-05-04T05:32:17Z</time>
      </trkpt>
      <trkpt lat="42.9035" lon="0.10261">
        <ele>1418</ele>
        <time>2013-05-04T05:32:19Z</time>
      </trkpt>
      <trkpt lat="42.90349" lon="0.10261">
        <ele>1421</ele>
        <time>2013-05-04T05:32:21Z</time>
      </trkpt>
      <trkpt lat="42.90348" lon="0.10262">
        <ele>1425</ele>
        <time>2013-05-04T05:32:24Z</time>
      </trkpt>
      <trkpt lat="42.90351" lon="0.10261">
        <ele>1430</ele>
        <time>2013-05-04T05:32:28Z</time>
      </trkpt>
      <trkpt lat="42.90351" lon="0.10261">
        <ele>1433</ele>
        <time>2013-05-04T05:32:31Z</time>
      </trkpt>
      <trkpt lat="42.90349" lon="0.10262">
        <ele>1436</ele>
        <time>2013-05-04T05:32:35Z</time>
      </trkpt>
      <trkpt lat="42.90348" lon="0.10262">
        <ele>1440</ele>
        <time>2013-05-04T05:32:39Z</time>
      </trkpt>
      <trkpt lat="42.90348" lon="0.10262">
        <ele>1441</ele>
        <time>2013-05-04T05:32:41Z</time>
      </trkpt>
      <trkpt lat="42.90348" lon="0.10262">
        <ele>1445</ele>
        <time>2013-05-04T05:32:46Z</time>
      </trkpt>
      <trkpt lat="42.90349" lon="0.10261">
        <ele>1446</ele>
        <time>2013-05-04T05:32:49Z</time>
      </trkpt>
      <trkpt lat="42.9035" lon="0.10261">
        <ele>1449</ele>
        <time>2013-05-04T05:32:54Z</time>
      </trkpt>
      <trkpt lat="42.9035" lon="0.10259">
        <ele>1453</ele>
        <time>2013-05-04T05:33:00Z</time>
      </trkpt>
      <trkpt lat="42.90349" lon="0.10261">
        <ele>1455</ele>
        <time>2013-05-04T05:33:05Z</time>
      </trkpt>
      <trkpt lat="42.9035" lon="0.10262">
        <ele>1458</ele>
        <time>2013-05-04T05:33:19Z</time>
      </trkpt>
      <trkpt lat="42.90349" lon="0.10263">
        <ele>1459</ele>
        <time>2013-05-04T05:33:21Z</time>
      </trkpt>
      <trkpt lat="42.90349" lon="0.10264">
        <ele>1459</ele>
        <time>2013-05-04T05:33:26Z</time>
      </trkpt>
      <trkpt lat="42.90348" lon="0.10263">
        <ele>1460</ele>
        <time>2013-05-04T05:33:31Z</time>
      </trkpt>
      <trkpt lat="42.90348" lon="0.10263">
        <ele>1460</ele>
        <time>2013-05-04T05:33:39Z</time>
      </trkpt>
      <trkpt lat="42.90348" lon="0.10263">
        <ele>1460</ele>
        <time>2013-05-04T05:33:47Z</time>
      </trkpt>
      <trkpt lat="42.90349" lon="0.10265">
        <ele>1459</ele>
        <time>2013-05-04T05:33:57Z</time>
      </trkpt>
      <trkpt lat="42.90349" lon="0.10268">
        <ele>1461</ele>
        <time>2013-05-04T05:34:06Z</time>
      </trkpt>
      <trkpt lat="42.90349" lon="0.10266">
        <ele>1460</ele>
        <time>2013-05-04T05:34:14Z</time>
      </trkpt>
      <trkpt lat="42.90349" lon="0.10266">
        <ele>1460</ele>
        <time>2013-05-04T05:34:23Z</time>
      </trkpt>
      <trkpt lat="42.90349" lon="0.10268">
        <ele>1460</ele>
        <time>2013-05-04T05:34:30Z</time>
      </trkpt>
      <trkpt lat="42.90348" lon="0.10271">
        <ele>1460</ele>
        <time>2013-05-04T05:34:38Z</time>
      </trkpt>
      <trkpt lat="42.90346" lon="0.10269">
        <ele>1459</ele>
        <time>2013-05-04T05:34:48Z</time>
      </trkpt>
      <trkpt lat="42.90342" lon="0.10272">
        <ele>1460</ele>
        <time>2013-05-04T05:34:52Z</time>
      </trkpt>
      <trkpt lat="42.90334" lon="0.10275">
        <ele>1461</ele>
        <time>2013-05-04T05:34:59Z</time>
      </trkpt>
      <trkpt lat="42.90329" lon="0.1027">
        <ele>1461</ele>
        <time>2013-05-04T05:35:06Z</time>
      </trkpt>
      <trkpt lat="42.90326" lon="0.10269">
        <ele>1461</ele>
        <time>2013-05-04T05:35:13Z</time>
      </trkpt>
      <trkpt lat="42.90326" lon="0.10265">
        <ele>1461</ele>
        <time>2013-05-04T05:35:24Z</time>
      </trkpt>
      <trkpt lat="42.90326" lon="0.10264">
        <ele>1461</ele>
        <time>2013-05-04T05:35:35Z</time>
      </trkpt>
      <trkpt lat="42.90327" lon="0.10262">
        <ele>1461</ele>
        <time>2013-05-04T05:35:45Z</time>
      </trkpt>
      <trkpt lat="42.90324" lon="0.10259">
        <ele>1461</ele>
        <time>2013-05-04T05:36:02Z</time>
      </trkpt>
      <trkpt lat="42.90319" lon="0.10258">
        <ele>1461</ele>
        <time>2013-05-04T05:36:10Z</time>
      </trkpt>
      <trkpt lat="42.90317" lon="0.10257">
        <ele>1461</ele>
        <time>2013-05-04T05:36:12Z</time>
      </trkpt>
      <trkpt lat="42.90306" lon="0.10251">
        <ele>1461</ele>
        <time>2013-05-04T05:36:21Z</time>
      </trkpt>
      <trkpt lat="42.90304" lon="0.10253">
        <ele>1461</ele>
        <time>2013-05-04T05:36:23Z</time>
      </trkpt>
      <trkpt lat="42.90299" lon="0.1026">
        <ele>1462</ele>
        <time>2013-05-04T05:36:30Z</time>
      </trkpt>
      <trkpt lat="42.9029" lon="0.10277">
        <ele>1464</ele>
        <time>2013-05-04T05:36:41Z</time>
      </trkpt>
      <trkpt lat="42.90284" lon="0.10289">
        <ele>1465</ele>
        <time>2013-05-04T05:36:49Z</time>
      </trkpt>
      <trkpt lat="42.9028" lon="0.10298">
        <ele>1466</ele>
        <time>2013-05-04T05:36:56Z</time>
      </trkpt>
      <trkpt lat="42.90277" lon="0.10303">
        <ele>1467</ele>
        <time>2013-05-04T05:37:00Z</time>
      </trkpt>
      <trkpt lat="42.90274" lon="0.10312">
        <ele>1467</ele>
        <time>2013-05-04T05:37:06Z</time>
      </trkpt>
      <trkpt lat="42.90269" lon="0.1032">
        <ele>1468</ele>
        <time>2013-05-04T05:37:13Z</time>
      </trkpt>
      <trkpt lat="42.90262" lon="0.1033">
        <ele>1469</ele>
        <time>2013-05-04T05:37:21Z</time>
      </trkpt>
      <trkpt lat="42.90255" lon="0.10338">
        <ele>1469</ele>
        <time>2013-05-04T05:37:28Z</time>
      </trkpt>
      <trkpt lat="42.9025" lon="0.10346">
        <ele>1469</ele>
        <time>2013-05-04T05:37:35Z</time>
      </trkpt>
      <trkpt lat="42.90247" lon="0.10348">
        <ele>1470</ele>
        <time>2013-05-04T05:37:38Z</time>
      </trkpt>
      <trkpt lat="42.90239" lon="0.10357">
        <ele>1469</ele>
        <time>2013-05-04T05:37:46Z</time>
      </trkpt>
      <trkpt lat="42.90231" lon="0.10361">
        <ele>1471</ele>
        <time>2013-05-04T05:37:54Z</time>
      </trkpt>
      <trkpt lat="42.90225" lon="0.10366">
        <ele>1471</ele>
        <time>2013-05-04T05:38:01Z</time>
      </trkpt>
      <trkpt lat="42.90217" lon="0.10371">
        <ele>1473</ele>
        <time>2013-05-04T05:38:10Z</time>
      </trkpt>
      <trkpt lat="42.90207" lon="0.10373">
        <ele>1473</ele>
        <time>2013-05-04T05:38:19Z</time>
      </trkpt>
      <trkpt lat="42.90201" lon="0.10374">
        <ele>1474</ele>
        <time>2013-05-04T05:38:26Z</time>
      </trkpt>
      <trkpt lat="42.90195" lon="0.10376">
        <ele>1475</ele>
        <time>2013-05-04T05:38:34Z</time>
      </trkpt>
      <trkpt lat="42.90187" lon="0.1038">
        <ele>1476</ele>
        <time>2013-05-04T05:38:42Z</time>
      </trkpt>
      <trkpt lat="42.9018" lon="0.10385">
        <ele>1476</ele>
        <time>2013-05-04T05:38:51Z</time>
      </trkpt>
      <trkpt lat="42.90172" lon="0.10388">
        <ele>1477</ele>
        <time>2013-05-04T05:39:00Z</time>
      </trkpt>
      <trkpt lat="42.90166" lon="0.10392">
        <ele>1478</ele>
        <time>2013-05-04T05:39:08Z</time>
      </trkpt>
      <trkpt lat="42.90156" lon="0.10397">
        <ele>1479</ele>
        <time>2013-05-04T05:39:17Z</time>
      </trkpt>
      <trkpt lat="42.90148" lon="0.10401">
        <ele>1480</ele>
        <time>2013-05-04T05:39:26Z</time>
      </trkpt>
      <trkpt lat="42.9014" lon="0.10402">
        <ele>1480</ele>
        <time>2013-05-04T05:39:33Z</time>
      </trkpt>
      <trkpt lat="42.90132" lon="0.10405">
        <ele>1480</ele>
        <time>2013-05-04T05:39:42Z</time>
      </trkpt>
      <trkpt lat="42.90124" lon="0.10405">
        <ele>1481</ele>
        <time>2013-05-04T05:39:50Z</time>
      </trkpt>
      <trkpt lat="42.9012" lon="0.10406">
        <ele>1482</ele>
        <time>2013-05-04T05:39:55Z</time>
      </trkpt>
      <trkpt lat="42.90117" lon="0.10406">
        <ele>1482</ele>
        <time>2013-05-04T05:39:57Z</time>
      </trkpt>
      <trkpt lat="42.90113" lon="0.10405">
        <ele>1482</ele>
        <time>2013-05-04T05:40:01Z</time>
      </trkpt>
      <trkpt lat="42.9011" lon="0.10405">
        <ele>1482</ele>
        <time>2013-05-04T05:40:05Z</time>
      </trkpt>
      <trkpt lat="42.90102" lon="0.10407">
        <ele>1483</ele>
        <time>2013-05-04T05:40:15Z</time>
      </trkpt>
      <trkpt lat="42.90094" lon="0.10407">
        <ele>1483</ele>
        <time>2013-05-04T05:40:23Z</time>
      </trkpt>
      <trkpt lat="42.90086" lon="0.10406">
        <ele>1483</ele>
        <time>2013-05-04T05:40:31Z</time>
      </trkpt>
      <trkpt lat="42.9008" lon="0.10409">
        <ele>1484</ele>
        <time>2013-05-04T05:40:39Z</time>
      </trkpt>
      <trkpt lat="42.90072" lon="0.10412">
        <ele>1485</ele>
        <time>2013-05-04T05:40:48Z</time>
      </trkpt>
      <trkpt lat="42.90063" lon="0.10413">
        <ele>1485</ele>
        <time>2013-05-04T05:40:56Z</time>
      </trkpt>
      <trkpt lat="42.90053" lon="0.10414">
        <ele>1487</ele>
        <time>2013-05-04T05:41:06Z</time>
      </trkpt>
      <trkpt lat="42.90045" lon="0.10414">
        <ele>1487</ele>
        <time>2013-05-04T05:41:16Z</time>
      </trkpt>
      <trkpt lat="42.9004" lon="0.10415">
        <ele>1489</ele>
        <time>2013-05-04T05:41:21Z</time>
      </trkpt>
      <trkpt lat="42.90032" lon="0.10416">
        <ele>1489</ele>
        <time>2013-05-04T05:41:29Z</time>
      </trkpt>
      <trkpt lat="42.90026" lon="0.10416">
        <ele>1490</ele>
        <time>2013-05-04T05:41:36Z</time>
      </trkpt>
      <trkpt lat="42.9002" lon="0.10418">
        <ele>1492</ele>
        <time>2013-05-04T05:41:43Z</time>
      </trkpt>
      <trkpt lat="42.90014" lon="0.10423">
        <ele>1492</ele>
        <time>2013-05-04T05:41:51Z</time>
      </trkpt>
      <trkpt lat="42.90007" lon="0.10428">
        <ele>1494</ele>
        <time>2013-05-04T05:41:59Z</time>
      </trkpt>
      <trkpt lat="42.90001" lon="0.10431">
        <ele>1494</ele>
        <time>2013-05-04T05:42:08Z</time>
      </trkpt>
      <trkpt lat="42.89998" lon="0.10436">
        <ele>1495</ele>
        <time>2013-05-04T05:42:17Z</time>
      </trkpt>
      <trkpt lat="42.89992" lon="0.10439">
        <ele>1496</ele>
        <time>2013-05-04T05:42:24Z</time>
      </trkpt>
      <trkpt lat="42.89985" lon="0.10444">
        <ele>1498</ele>
        <time>2013-05-04T05:42:35Z</time>
      </trkpt>
      <trkpt lat="42.89983" lon="0.10446">
        <ele>1497</ele>
        <time>2013-05-04T05:42:45Z</time>
      </trkpt>
      <trkpt lat="42.89977" lon="0.1045">
        <ele>1498</ele>
        <time>2013-05-04T05:42:53Z</time>
      </trkpt>
      <trkpt lat="42.89971" lon="0.10455">
        <ele>1500</ele>
        <time>2013-05-04T05:43:01Z</time>
      </trkpt>
      <trkpt lat="42.89969" lon="0.10457">
        <ele>1500</ele>
        <time>2013-05-04T05:43:08Z</time>
      </trkpt>
      <trkpt lat="42.89968" lon="0.10459">
        <ele>1500</ele>
        <time>2013-05-04T05:43:16Z</time>
      </trkpt>
      <trkpt lat="42.89964" lon="0.10461">
        <ele>1501</ele>
        <time>2013-05-04T05:43:23Z</time>
      </trkpt>
      <trkpt lat="42.89958" lon="0.10467">
        <ele>1501</ele>
        <time>2013-05-04T05:43:31Z</time>
      </trkpt>
      <trkpt lat="42.89952" lon="0.10473">
        <ele>1502</ele>
        <time>2013-05-04T05:43:39Z</time>
      </trkpt>
      <trkpt lat="42.89946" lon="0.10479">
        <ele>1503</ele>
        <time>2013-05-04T05:43:46Z</time>
      </trkpt>
      <trkpt lat="42.8994" lon="0.10484">
        <ele>1504</ele>
        <time>2013-05-04T05:43:54Z</time>
      </trkpt>
      <trkpt lat="42.89933" lon="0.10492">
        <ele>1506</ele>
        <time>2013-05-04T05:44:03Z</time>
      </trkpt>
      <trkpt lat="42.89927" lon="0.10504">
        <ele>1507</ele>
        <time>2013-05-04T05:44:14Z</time>
      </trkpt>
      <trkpt lat="42.89924" lon="0.10513">
        <ele>1508</ele>
        <time>2013-05-04T05:44:22Z</time>
      </trkpt>
      <trkpt lat="42.89922" lon="0.10517">
        <ele>1509</ele>
        <time>2013-05-04T05:44:27Z</time>
      </trkpt>
      <trkpt lat="42.8992" lon="0.10526">
        <ele>1511</ele>
        <time>2013-05-04T05:44:36Z</time>
      </trkpt>
      <trkpt lat="42.89919" lon="0.10534">
        <ele>1512</ele>
        <time>2013-05-04T05:44:45Z</time>
      </trkpt>
      <trkpt lat="42.89918" lon="0.10542">
        <ele>1513</ele>
        <time>2013-05-04T05:44:54Z</time>
      </trkpt>
      <trkpt lat="42.89915" lon="0.10549">
        <ele>1513</ele>
        <time>2013-05-04T05:45:01Z</time>
      </trkpt>
      <trkpt lat="42.89911" lon="0.10556">
        <ele>1515</ele>
        <time>2013-05-04T05:45:08Z</time>
      </trkpt>
      <trkpt lat="42.89908" lon="0.10561">
        <ele>1517</ele>
        <time>2013-05-04T05:45:16Z</time>
      </trkpt>
      <trkpt lat="42.89905" lon="0.10565">
        <ele>1517</ele>
        <time>2013-05-04T05:45:24Z</time>
      </trkpt>
      <trkpt lat="42.89903" lon="0.1057">
        <ele>1518</ele>
        <time>2013-05-04T05:45:31Z</time>
      </trkpt>
      <trkpt lat="42.89901" lon="0.10575">
        <ele>1519</ele>
        <time>2013-05-04T05:45:37Z</time>
      </trkpt>
      <trkpt lat="42.89896" lon="0.10582">
        <ele>1521</ele>
        <time>2013-05-04T05:45:48Z</time>
      </trkpt>
      <trkpt lat="42.89891" lon="0.10589">
        <ele>1521</ele>
        <time>2013-05-04T05:45:55Z</time>
      </trkpt>
      <trkpt lat="42.89887" lon="0.10597">
        <ele>1523</ele>
        <time>2013-05-04T05:46:05Z</time>
      </trkpt>
      <trkpt lat="42.8988" lon="0.10606">
        <ele>1524</ele>
        <time>2013-05-04T05:46:17Z</time>
      </trkpt>
      <trkpt lat="42.89875" lon="0.10614">
        <ele>1527</ele>
        <time>2013-05-04T05:46:27Z</time>
      </trkpt>
      <trkpt lat="42.8987" lon="0.10624">
        <ele>1529</ele>
        <time>2013-05-04T05:46:36Z</time>
      </trkpt>
      <trkpt lat="42.89869" lon="0.10627">
        <ele>1529</ele>
        <time>2013-05-04T05:46:44Z</time>
      </trkpt>
      <trkpt lat="42.89868" lon="0.10628">
        <ele>1530</ele>
        <time>2013-05-04T05:46:54Z</time>
      </trkpt>
      <trkpt lat="42.89866" lon="0.1063">
        <ele>1531</ele>
        <time>2013-05-04T05:46:56Z</time>
      </trkpt>
      <trkpt lat="42.89854" lon="0.10638">
        <ele>1532</ele>
        <time>2013-05-04T05:47:08Z</time>
      </trkpt>
      <trkpt lat="42.89854" lon="0.10638">
        <ele>1532</ele>
        <time>2013-05-04T05:47:09Z</time>
      </trkpt>
      <trkpt lat="42.89853" lon="0.10638">
        <ele>1532</ele>
        <time>2013-05-04T05:47:20Z</time>
      </trkpt>
      <trkpt lat="42.89849" lon="0.10642">
        <ele>1534</ele>
        <time>2013-05-04T05:47:29Z</time>
      </trkpt>
      <trkpt lat="42.89849" lon="0.10648">
        <ele>1536</ele>
        <time>2013-05-04T05:47:40Z</time>
      </trkpt>
      <trkpt lat="42.89849" lon="0.10648">
        <ele>1536</ele>
        <time>2013-05-04T05:47:54Z</time>
      </trkpt>
      <trkpt lat="42.89843" lon="0.10653">
        <ele>1536</ele>
        <time>2013-05-04T05:48:08Z</time>
      </trkpt>
      <trkpt lat="42.89842" lon="0.10656">
        <ele>1538</ele>
        <time>2013-05-04T05:48:19Z</time>
      </trkpt>
      <trkpt lat="42.89845" lon="0.10661">
        <ele>1539</ele>
        <time>2013-05-04T05:48:27Z</time>
      </trkpt>
      <trkpt lat="42.89843" lon="0.10667">
        <ele>1541</ele>
        <time>2013-05-04T05:48:38Z</time>
      </trkpt>
      <trkpt lat="42.89843" lon="0.10665">
        <ele>1541</ele>
        <time>2013-05-04T05:48:47Z</time>
      </trkpt>
      <trkpt lat="42.89844" lon="0.10666">
        <ele>1540</ele>
        <time>2013-05-04T05:49:02Z</time>
      </trkpt>
      <trkpt lat="42.89846" lon="0.10663">
        <ele>1541</ele>
        <time>2013-05-04T05:49:15Z</time>
      </trkpt>
      <trkpt lat="42.89844" lon="0.10667">
        <ele>1542</ele>
        <time>2013-05-04T05:49:25Z</time>
      </trkpt>
      <trkpt lat="42.89838" lon="0.1067">
        <ele>1543</ele>
        <time>2013-05-04T05:49:35Z</time>
      </trkpt>
      <trkpt lat="42.8983" lon="0.10677">
        <ele>1545</ele>
        <time>2013-05-04T05:49:46Z</time>
      </trkpt>
      <trkpt lat="42.89823" lon="0.10684">
        <ele>1546</ele>
        <time>2013-05-04T05:49:57Z</time>
      </trkpt>
      <trkpt lat="42.89818" lon="0.10688">
        <ele>1548</ele>
        <time>2013-05-04T05:50:07Z</time>
      </trkpt>
      <trkpt lat="42.89814" lon="0.10694">
        <ele>1549</ele>
        <time>2013-05-04T05:50:17Z</time>
      </trkpt>
      <trkpt lat="42.89806" lon="0.10704">
        <ele>1551</ele>
        <time>2013-05-04T05:50:27Z</time>
      </trkpt>
      <trkpt lat="42.89799" lon="0.10711">
        <ele>1553</ele>
        <time>2013-05-04T05:50:39Z</time>
      </trkpt>
      <trkpt lat="42.89793" lon="0.10712">
        <ele>1554</ele>
        <time>2013-05-04T05:50:47Z</time>
      </trkpt>
      <trkpt lat="42.89792" lon="0.1072">
        <ele>1555</ele>
        <time>2013-05-04T05:50:57Z</time>
      </trkpt>
      <trkpt lat="42.89788" lon="0.10727">
        <ele>1555</ele>
        <time>2013-05-04T05:51:06Z</time>
      </trkpt>
      <trkpt lat="42.89781" lon="0.10733">
        <ele>1556</ele>
        <time>2013-05-04T05:51:15Z</time>
      </trkpt>
      <trkpt lat="42.89777" lon="0.10741">
        <ele>1556</ele>
        <time>2013-05-04T05:51:27Z</time>
      </trkpt>
      <trkpt lat="42.89768" lon="0.10749">
        <ele>1557</ele>
        <time>2013-05-04T05:51:36Z</time>
      </trkpt>
      <trkpt lat="42.89764" lon="0.10753">
        <ele>1557</ele>
        <time>2013-05-04T05:51:43Z</time>
      </trkpt>
      <trkpt lat="42.89753" lon="0.10759">
        <ele>1559</ele>
        <time>2013-05-04T05:51:56Z</time>
      </trkpt>
      <trkpt lat="42.89742" lon="0.10763">
        <ele>1561</ele>
        <time>2013-05-04T05:52:08Z</time>
      </trkpt>
      <trkpt lat="42.89738" lon="0.10765">
        <ele>1561</ele>
        <time>2013-05-04T05:52:18Z</time>
      </trkpt>
      <trkpt lat="42.89736" lon="0.10767">
        <ele>1562</ele>
        <time>2013-05-04T05:52:29Z</time>
      </trkpt>
      <trkpt lat="42.89734" lon="0.1077">
        <ele>1563</ele>
        <time>2013-05-04T05:52:38Z</time>
      </trkpt>
      <trkpt lat="42.89727" lon="0.10772">
        <ele>1565</ele>
        <time>2013-05-04T05:52:46Z</time>
      </trkpt>
      <trkpt lat="42.89722" lon="0.10773">
        <ele>1565</ele>
        <time>2013-05-04T05:52:55Z</time>
      </trkpt>
      <trkpt lat="42.89717" lon="0.10775">
        <ele>1566</ele>
        <time>2013-05-04T05:53:03Z</time>
      </trkpt>
      <trkpt lat="42.89713" lon="0.10775">
        <ele>1567</ele>
        <time>2013-05-04T05:53:10Z</time>
      </trkpt>
      <trkpt lat="42.89706" lon="0.10777">
        <ele>1568</ele>
        <time>2013-05-04T05:53:20Z</time>
      </trkpt>
      <trkpt lat="42.89702" lon="0.10781">
        <ele>1569</ele>
        <time>2013-05-04T05:53:32Z</time>
      </trkpt>
      <trkpt lat="42.89693" lon="0.1078">
        <ele>1570</ele>
        <time>2013-05-04T05:53:43Z</time>
      </trkpt>
      <trkpt lat="42.89684" lon="0.10781">
        <ele>1570</ele>
        <time>2013-05-04T05:53:52Z</time>
      </trkpt>
      <trkpt lat="42.89677" lon="0.10782">
        <ele>1571</ele>
        <time>2013-05-04T05:54:01Z</time>
      </trkpt>
      <trkpt lat="42.89672" lon="0.10786">
        <ele>1572</ele>
        <time>2013-05-04T05:54:13Z</time>
      </trkpt>
      <trkpt lat="42.89668" lon="0.10785">
        <ele>1572</ele>
        <time>2013-05-04T05:54:23Z</time>
      </trkpt>
      <trkpt lat="42.89659" lon="0.10785">
        <ele>1573</ele>
        <time>2013-05-04T05:54:34Z</time>
      </trkpt>
      <trkpt lat="42.89653" lon="0.10786">
        <ele>1574</ele>
        <time>2013-05-04T05:54:44Z</time>
      </trkpt>
      <trkpt lat="42.89643" lon="0.10786">
        <ele>1576</ele>
        <time>2013-05-04T05:54:55Z</time>
      </trkpt>
      <trkpt lat="42.89635" lon="0.10787">
        <ele>1577</ele>
        <time>2013-05-04T05:55:01Z</time>
      </trkpt>
      <trkpt lat="42.89628" lon="0.10789">
        <ele>1577</ele>
        <time>2013-05-04T05:55:11Z</time>
      </trkpt>
      <trkpt lat="42.89627" lon="0.10789">
        <ele>1578</ele>
        <time>2013-05-04T05:55:20Z</time>
      </trkpt>
      <trkpt lat="42.89621" lon="0.1079">
        <ele>1580</ele>
        <time>2013-05-04T05:55:29Z</time>
      </trkpt>
      <trkpt lat="42.89616" lon="0.10794">
        <ele>1580</ele>
        <time>2013-05-04T05:55:38Z</time>
      </trkpt>
      <trkpt lat="42.89614" lon="0.10794">
        <ele>1580</ele>
        <time>2013-05-04T05:55:48Z</time>
      </trkpt>
      <trkpt lat="42.8961" lon="0.10795">
        <ele>1581</ele>
        <time>2013-05-04T05:55:58Z</time>
      </trkpt>
      <trkpt lat="42.89607" lon="0.10796">
        <ele>1583</ele>
        <time>2013-05-04T05:56:07Z</time>
      </trkpt>
      <trkpt lat="42.89604" lon="0.10794">
        <ele>1582</ele>
        <time>2013-05-04T05:56:17Z</time>
      </trkpt>
      <trkpt lat="42.89598" lon="0.10792">
        <ele>1581</ele>
        <time>2013-05-04T05:56:28Z</time>
      </trkpt>
      <trkpt lat="42.89592" lon="0.10795">
        <ele>1582</ele>
        <time>2013-05-04T05:56:41Z</time>
      </trkpt>
      <trkpt lat="42.89589" lon="0.10794">
        <ele>1582</ele>
        <time>2013-05-04T05:56:50Z</time>
      </trkpt>
      <trkpt lat="42.89587" lon="0.10794">
        <ele>1581</ele>
        <time>2013-05-04T05:57:03Z</time>
      </trkpt>
      <trkpt lat="42.8958" lon="0.10797">
        <ele>1582</ele>
        <time>2013-05-04T05:57:15Z</time>
      </trkpt>
      <trkpt lat="42.89573" lon="0.10797">
        <ele>1582</ele>
        <time>2013-05-04T05:57:26Z</time>
      </trkpt>
      <trkpt lat="42.89568" lon="0.10793">
        <ele>1583</ele>
        <time>2013-05-04T05:57:34Z</time>
      </trkpt>
      <trkpt lat="42.8956" lon="0.10789">
        <ele>1584</ele>
        <time>2013-05-04T05:57:45Z</time>
      </trkpt>
      <trkpt lat="42.89554" lon="0.10789">
        <ele>1584</ele>
        <time>2013-05-04T05:57:53Z</time>
      </trkpt>
      <trkpt lat="42.89549" lon="0.10786">
        <ele>1585</ele>
        <time>2013-05-04T05:58:02Z</time>
      </trkpt>
      <trkpt lat="42.89542" lon="0.10781">
        <ele>1586</ele>
        <time>2013-05-04T05:58:12Z</time>
      </trkpt>
      <trkpt lat="42.89539" lon="0.10782">
        <ele>1586</ele>
        <time>2013-05-04T05:58:21Z</time>
      </trkpt>
      <trkpt lat="42.89533" lon="0.10777">
        <ele>1586</ele>
        <time>2013-05-04T05:58:29Z</time>
      </trkpt>
      <trkpt lat="42.89524" lon="0.10777">
        <ele>1588</ele>
        <time>2013-05-04T05:58:39Z</time>
      </trkpt>
      <trkpt lat="42.89522" lon="0.10776">
        <ele>1589</ele>
        <time>2013-05-04T05:58:48Z</time>
      </trkpt>
      <trkpt lat="42.89517" lon="0.10773">
        <ele>1589</ele>
        <time>2013-05-04T05:58:56Z</time>
      </trkpt>
      <trkpt lat="42.89507" lon="0.10771">
        <ele>1590</ele>
        <time>2013-05-04T05:59:06Z</time>
      </trkpt>
      <trkpt lat="42.89503" lon="0.10769">
        <ele>1590</ele>
        <time>2013-05-04T05:59:16Z</time>
      </trkpt>
      <trkpt lat="42.89501" lon="0.10767">
        <ele>1590</ele>
        <time>2013-05-04T05:59:24Z</time>
      </trkpt>
      <trkpt lat="42.89494" lon="0.10763">
        <ele>1590</ele>
        <time>2013-05-04T05:59:32Z</time>
      </trkpt>
      <trkpt lat="42.89485" lon="0.10763">
        <ele>1592</ele>
        <time>2013-05-04T05:59:40Z</time>
      </trkpt>
      <trkpt lat="42.89478" lon="0.10761">
        <ele>1592</ele>
        <time>2013-05-04T05:59:48Z</time>
      </trkpt>
      <trkpt lat="42.8947" lon="0.1076">
        <ele>1593</ele>
        <time>2013-05-04T05:59:57Z</time>
      </trkpt>
      <trkpt lat="42.89464" lon="0.1076">
        <ele>1594</ele>
        <time>2013-05-04T06:00:05Z</time>
      </trkpt>
      <trkpt lat="42.89457" lon="0.10758">
        <ele>1594</ele>
        <time>2013-05-04T06:00:15Z</time>
      </trkpt>
      <trkpt lat="42.8945" lon="0.10759">
        <ele>1595</ele>
        <time>2013-05-04T06:00:24Z</time>
      </trkpt>
      <trkpt lat="42.89446" lon="0.10757">
        <ele>1595</ele>
        <time>2013-05-04T06:00:32Z</time>
      </trkpt>
      <trkpt lat="42.89441" lon="0.10757">
        <ele>1596</ele>
        <time>2013-05-04T06:00:42Z</time>
      </trkpt>
      <trkpt lat="42.89434" lon="0.10757">
        <ele>1597</ele>
        <time>2013-05-04T06:00:52Z</time>
      </trkpt>
      <trkpt lat="42.89428" lon="0.10758">
        <ele>1598</ele>
        <time>2013-05-04T06:01:00Z</time>
      </trkpt>
      <trkpt lat="42.89416" lon="0.10762">
        <ele>1599</ele>
        <time>2013-05-04T06:01:13Z</time>
      </trkpt>
      <trkpt lat="42.8941" lon="0.10762">
        <ele>1600</ele>
        <time>2013-05-04T06:01:23Z</time>
      </trkpt>
      <trkpt lat="42.89404" lon="0.10761">
        <ele>1601</ele>
        <time>2013-05-04T06:01:33Z</time>
      </trkpt>
      <trkpt lat="42.89399" lon="0.1076">
        <ele>1602</ele>
        <time>2013-05-04T06:01:44Z</time>
      </trkpt>
      <trkpt lat="42.89394" lon="0.10759">
        <ele>1602</ele>
        <time>2013-05-04T06:01:55Z</time>
      </trkpt>
      <trkpt lat="42.89392" lon="0.10761">
        <ele>1602</ele>
        <time>2013-05-04T06:02:05Z</time>
      </trkpt>
      <trkpt lat="42.89395" lon="0.10762">
        <ele>1603</ele>
        <time>2013-05-04T06:02:16Z</time>
      </trkpt>
      <trkpt lat="42.89391" lon="0.10759">
        <ele>1603</ele>
        <time>2013-05-04T06:02:28Z</time>
      </trkpt>
      <trkpt lat="42.89389" lon="0.10762">
        <ele>1604</ele>
        <time>2013-05-04T06:02:38Z</time>
      </trkpt>
      <trkpt lat="42.89388" lon="0.10763">
        <ele>1604</ele>
        <time>2013-05-04T06:02:47Z</time>
      </trkpt>
      <trkpt lat="42.89387" lon="0.1076">
        <ele>1604</ele>
        <time>2013-05-04T06:03:01Z</time>
      </trkpt>
      <trkpt lat="42.89383" lon="0.10758">
        <ele>1604</ele>
        <time>2013-05-04T06:03:08Z</time>
      </trkpt>
      <trkpt lat="42.89384" lon="0.10759">
        <ele>1605</ele>
        <time>2013-05-04T06:03:17Z</time>
      </trkpt>
      <trkpt lat="42.89382" lon="0.10762">
        <ele>1605</ele>
        <time>2013-05-04T06:03:29Z</time>
      </trkpt>
      <trkpt lat="42.89378" lon="0.1076">
        <ele>1606</ele>
        <time>2013-05-04T06:03:36Z</time>
      </trkpt>
      <trkpt lat="42.89376" lon="0.10759">
        <ele>1606</ele>
        <time>2013-05-04T06:03:41Z</time>
      </trkpt>
      <trkpt lat="42.89376" lon="0.10755">
        <ele>1606</ele>
        <time>2013-05-04T06:03:54Z</time>
      </trkpt>
      <trkpt lat="42.89377" lon="0.10756">
        <ele>1606</ele>
        <time>2013-05-04T06:04:05Z</time>
      </trkpt>
      <trkpt lat="42.89384" lon="0.10754">
        <ele>1606</ele>
        <time>2013-05-04T06:04:28Z</time>
      </trkpt>
      <trkpt lat="42.89386" lon="0.10749">
        <ele>1605</ele>
        <time>2013-05-04T06:04:51Z</time>
      </trkpt>
      <trkpt lat="42.89382" lon="0.10747">
        <ele>1606</ele>
        <time>2013-05-04T06:05:08Z</time>
      </trkpt>
      <trkpt lat="42.89387" lon="0.10749">
        <ele>1606</ele>
        <time>2013-05-04T06:05:26Z</time>
      </trkpt>
      <trkpt lat="42.89388" lon="0.1075">
        <ele>1606</ele>
        <time>2013-05-04T06:05:38Z</time>
      </trkpt>
      <trkpt lat="42.89385" lon="0.10752">
        <ele>1606</ele>
        <time>2013-05-04T06:05:49Z</time>
      </trkpt>
      <trkpt lat="42.89383" lon="0.10747">
        <ele>1606</ele>
        <time>2013-05-04T06:06:11Z</time>
      </trkpt>
      <trkpt lat="42.89382" lon="0.1075">
        <ele>1607</ele>
        <time>2013-05-04T06:06:21Z</time>
      </trkpt>
      <trkpt lat="42.89373" lon="0.10753">
        <ele>1607</ele>
        <time>2013-05-04T06:06:33Z</time>
      </trkpt>
      <trkpt lat="42.89362" lon="0.10753">
        <ele>1608</ele>
        <time>2013-05-04T06:06:45Z</time>
      </trkpt>
      <trkpt lat="42.89355" lon="0.10754">
        <ele>1608</ele>
        <time>2013-05-04T06:06:55Z</time>
      </trkpt>
      <trkpt lat="42.89352" lon="0.10757">
        <ele>1609</ele>
        <time>2013-05-04T06:07:07Z</time>
      </trkpt>
      <trkpt lat="42.89347" lon="0.10753">
        <ele>1610</ele>
        <time>2013-05-04T06:07:17Z</time>
      </trkpt>
      <trkpt lat="42.89344" lon="0.10751">
        <ele>1612</ele>
        <time>2013-05-04T06:07:27Z</time>
      </trkpt>
      <trkpt lat="42.8934" lon="0.10753">
        <ele>1613</ele>
        <time>2013-05-04T06:07:36Z</time>
      </trkpt>
      <trkpt lat="42.89339" lon="0.10757">
        <ele>1614</ele>
        <time>2013-05-04T06:07:47Z</time>
      </trkpt>
      <trkpt lat="42.89337" lon="0.10751">
        <ele>1615</ele>
        <time>2013-05-04T06:07:51Z</time>
      </trkpt>
      <trkpt lat="42.89334" lon="0.10749">
        <ele>1615</ele>
        <time>2013-05-04T06:07:54Z</time>
      </trkpt>
      <trkpt lat="42.89327" lon="0.10742">
        <ele>1616</ele>
        <time>2013-05-04T06:08:04Z</time>
      </trkpt>
      <trkpt lat="42.8932" lon="0.1074">
        <ele>1618</ele>
        <time>2013-05-04T06:08:14Z</time>
      </trkpt>
      <trkpt lat="42.89318" lon="0.1074">
        <ele>1619</ele>
        <time>2013-05-04T06:08:25Z</time>
      </trkpt>
      <trkpt lat="42.89311" lon="0.10736">
        <ele>1619</ele>
        <time>2013-05-04T06:08:34Z</time>
      </trkpt>
      <trkpt lat="42.89308" lon="0.10734">
        <ele>1620</ele>
        <time>2013-05-04T06:08:40Z</time>
      </trkpt>
      <trkpt lat="42.89295" lon="0.10733">
        <ele>1622</ele>
        <time>2013-05-04T06:08:51Z</time>
      </trkpt>
      <trkpt lat="42.89287" lon="0.10731">
        <ele>1623</ele>
        <time>2013-05-04T06:09:02Z</time>
      </trkpt>
      <trkpt lat="42.89283" lon="0.10725">
        <ele>1623</ele>
        <time>2013-05-04T06:09:11Z</time>
      </trkpt>
      <trkpt lat="42.89276" lon="0.10728">
        <ele>1623</ele>
        <time>2013-05-04T06:09:22Z</time>
      </trkpt>
      <trkpt lat="42.89269" lon="0.10728">
        <ele>1625</ele>
        <time>2013-05-04T06:09:33Z</time>
      </trkpt>
      <trkpt lat="42.89258" lon="0.10727">
        <ele>1626</ele>
        <time>2013-05-04T06:09:44Z</time>
      </trkpt>
      <trkpt lat="42.89253" lon="0.10726">
        <ele>1628</ele>
        <time>2013-05-04T06:09:55Z</time>
      </trkpt>
      <trkpt lat="42.89243" lon="0.10726">
        <ele>1630</ele>
        <time>2013-05-04T06:10:05Z</time>
      </trkpt>
      <trkpt lat="42.89233" lon="0.10725">
        <ele>1631</ele>
        <time>2013-05-04T06:10:19Z</time>
      </trkpt>
      <trkpt lat="42.89223" lon="0.10725">
        <ele>1632</ele>
        <time>2013-05-04T06:10:29Z</time>
      </trkpt>
      <trkpt lat="42.89219" lon="0.10719">
        <ele>1633</ele>
        <time>2013-05-04T06:10:40Z</time>
      </trkpt>
      <trkpt lat="42.89211" lon="0.10721">
        <ele>1633</ele>
        <time>2013-05-04T06:10:51Z</time>
      </trkpt>
      <trkpt lat="42.892" lon="0.10721">
        <ele>1635</ele>
        <time>2013-05-04T06:11:03Z</time>
      </trkpt>
      <trkpt lat="42.8919" lon="0.10719">
        <ele>1636</ele>
        <time>2013-05-04T06:11:14Z</time>
      </trkpt>
      <trkpt lat="42.89182" lon="0.10717">
        <ele>1638</ele>
        <time>2013-05-04T06:11:25Z</time>
      </trkpt>
      <trkpt lat="42.89176" lon="0.10716">
        <ele>1639</ele>
        <time>2013-05-04T06:11:35Z</time>
      </trkpt>
      <trkpt lat="42.89168" lon="0.10716">
        <ele>1640</ele>
        <time>2013-05-04T06:11:46Z</time>
      </trkpt>
      <trkpt lat="42.89158" lon="0.10719">
        <ele>1642</ele>
        <time>2013-05-04T06:11:58Z</time>
      </trkpt>
      <trkpt lat="42.89146" lon="0.10723">
        <ele>1643</ele>
        <time>2013-05-04T06:12:08Z</time>
      </trkpt>
      <trkpt lat="42.89136" lon="0.10725">
        <ele>1644</ele>
        <time>2013-05-04T06:12:20Z</time>
      </trkpt>
      <trkpt lat="42.8912" lon="0.10729">
        <ele>1644</ele>
        <time>2013-05-04T06:12:30Z</time>
      </trkpt>
      <trkpt lat="42.8911" lon="0.10729">
        <ele>1645</ele>
        <time>2013-05-04T06:12:41Z</time>
      </trkpt>
      <trkpt lat="42.891" lon="0.1073">
        <ele>1646</ele>
        <time>2013-05-04T06:12:52Z</time>
      </trkpt>
      <trkpt lat="42.89092" lon="0.10729">
        <ele>1647</ele>
        <time>2013-05-04T06:13:02Z</time>
      </trkpt>
      <trkpt lat="42.89086" lon="0.10728">
        <ele>1648</ele>
        <time>2013-05-04T06:13:11Z</time>
      </trkpt>
      <trkpt lat="42.89074" lon="0.10728">
        <ele>1649</ele>
        <time>2013-05-04T06:13:21Z</time>
      </trkpt>
      <trkpt lat="42.89067" lon="0.10731">
        <ele>1650</ele>
        <time>2013-05-04T06:13:30Z</time>
      </trkpt>
      <trkpt lat="42.89064" lon="0.10736">
        <ele>1651</ele>
        <time>2013-05-04T06:13:41Z</time>
      </trkpt>
      <trkpt lat="42.89061" lon="0.10741">
        <ele>1652</ele>
        <time>2013-05-04T06:13:50Z</time>
      </trkpt>
      <trkpt lat="42.89052" lon="0.10745">
        <ele>1653</ele>
        <time>2013-05-04T06:14:01Z</time>
      </trkpt>
      <trkpt lat="42.89043" lon="0.1075">
        <ele>1654</ele>
        <time>2013-05-04T06:14:15Z</time>
      </trkpt>
      <trkpt lat="42.89033" lon="0.10752">
        <ele>1656</ele>
        <time>2013-05-04T06:14:25Z</time>
      </trkpt>
      <trkpt lat="42.89026" lon="0.10751">
        <ele>1657</ele>
        <time>2013-05-04T06:14:37Z</time>
      </trkpt>
      <trkpt lat="42.89018" lon="0.10751">
        <ele>1658</ele>
        <time>2013-05-04T06:14:48Z</time>
      </trkpt>
      <trkpt lat="42.89008" lon="0.10752">
        <ele>1659</ele>
        <time>2013-05-04T06:14:58Z</time>
      </trkpt>
      <trkpt lat="42.89001" lon="0.10753">
        <ele>1659</ele>
        <time>2013-05-04T06:15:07Z</time>
      </trkpt>
      <trkpt lat="42.8899" lon="0.10753">
        <ele>1660</ele>
        <time>2013-05-04T06:15:18Z</time>
      </trkpt>
      <trkpt lat="42.8898" lon="0.10753">
        <ele>1662</ele>
        <time>2013-05-04T06:15:29Z</time>
      </trkpt>
      <trkpt lat="42.88971" lon="0.10753">
        <ele>1663</ele>
        <time>2013-05-04T06:15:41Z</time>
      </trkpt>
      <trkpt lat="42.88968" lon="0.10753">
        <ele>1663</ele>
        <time>2013-05-04T06:15:52Z</time>
      </trkpt>
      <trkpt lat="42.88959" lon="0.10755">
        <ele>1663</ele>
        <time>2013-05-04T06:16:04Z</time>
      </trkpt>
      <trkpt lat="42.88951" lon="0.10756">
        <ele>1663</ele>
        <time>2013-05-04T06:16:12Z</time>
      </trkpt>
      <trkpt lat="42.88944" lon="0.10758">
        <ele>1664</ele>
        <time>2013-05-04T06:16:24Z</time>
      </trkpt>
      <trkpt lat="42.88936" lon="0.1076">
        <ele>1665</ele>
        <time>2013-05-04T06:16:34Z</time>
      </trkpt>
      <trkpt lat="42.88923" lon="0.10765">
        <ele>1666</ele>
        <time>2013-05-04T06:16:46Z</time>
      </trkpt>
      <trkpt lat="42.88916" lon="0.10768">
        <ele>1667</ele>
        <time>2013-05-04T06:16:56Z</time>
      </trkpt>
      <trkpt lat="42.88913" lon="0.10775">
        <ele>1668</ele>
        <time>2013-05-04T06:17:06Z</time>
      </trkpt>
      <trkpt lat="42.88907" lon="0.10781">
        <ele>1669</ele>
        <time>2013-05-04T06:17:16Z</time>
      </trkpt>
      <trkpt lat="42.88902" lon="0.10788">
        <ele>1669</ele>
        <time>2013-05-04T06:17:25Z</time>
      </trkpt>
      <trkpt lat="42.88904" lon="0.10793">
        <ele>1669</ele>
        <time>2013-05-04T06:17:36Z</time>
      </trkpt>
      <trkpt lat="42.88904" lon="0.10795">
        <ele>1669</ele>
        <time>2013-05-04T06:17:47Z</time>
      </trkpt>
      <trkpt lat="42.88904" lon="0.10797">
        <ele>1669</ele>
        <time>2013-05-04T06:18:00Z</time>
      </trkpt>
      <trkpt lat="42.88898" lon="0.108">
        <ele>1669</ele>
        <time>2013-05-04T06:18:10Z</time>
      </trkpt>
      <trkpt lat="42.88896" lon="0.10802">
        <ele>1669</ele>
        <time>2013-05-04T06:18:22Z</time>
      </trkpt>
      <trkpt lat="42.88897" lon="0.10805">
        <ele>1669</ele>
        <time>2013-05-04T06:18:36Z</time>
      </trkpt>
      <trkpt lat="42.88894" lon="0.10805">
        <ele>1669</ele>
        <time>2013-05-04T06:18:47Z</time>
      </trkpt>
      <trkpt lat="42.88892" lon="0.10806">
        <ele>1669</ele>
        <time>2013-05-04T06:19:02Z</time>
      </trkpt>
      <trkpt lat="42.88892" lon="0.10803">
        <ele>1669</ele>
        <time>2013-05-04T06:19:16Z</time>
      </trkpt>
      <trkpt lat="42.88891" lon="0.10801">
        <ele>1670</ele>
        <time>2013-05-04T06:19:32Z</time>
      </trkpt>
      <trkpt lat="42.88886" lon="0.108">
        <ele>1669</ele>
        <time>2013-05-04T06:19:46Z</time>
      </trkpt>
      <trkpt lat="42.88885" lon="0.10803">
        <ele>1670</ele>
        <time>2013-05-04T06:19:59Z</time>
      </trkpt>
      <trkpt lat="42.8888" lon="0.10806">
        <ele>1671</ele>
        <time>2013-05-04T06:20:09Z</time>
      </trkpt>
      <trkpt lat="42.88877" lon="0.10806">
        <ele>1671</ele>
        <time>2013-05-04T06:20:20Z</time>
      </trkpt>
      <trkpt lat="42.88868" lon="0.10804">
        <ele>1671</ele>
        <time>2013-05-04T06:20:30Z</time>
      </trkpt>
      <trkpt lat="42.88861" lon="0.10804">
        <ele>1672</ele>
        <time>2013-05-04T06:20:40Z</time>
      </trkpt>
      <trkpt lat="42.8885" lon="0.10809">
        <ele>1674</ele>
        <time>2013-05-04T06:20:51Z</time>
      </trkpt>
      <trkpt lat="42.88842" lon="0.10815">
        <ele>1675</ele>
        <time>2013-05-04T06:21:02Z</time>
      </trkpt>
      <trkpt lat="42.88835" lon="0.1082">
        <ele>1675</ele>
        <time>2013-05-04T06:21:13Z</time>
      </trkpt>
      <trkpt lat="42.88823" lon="0.1082">
        <ele>1676</ele>
        <time>2013-05-04T06:21:25Z</time>
      </trkpt>
      <trkpt lat="42.88815" lon="0.10822">
        <ele>1677</ele>
        <time>2013-05-04T06:21:36Z</time>
      </trkpt>
      <trkpt lat="42.88814" lon="0.10823">
        <ele>1677</ele>
        <time>2013-05-04T06:21:45Z</time>
      </trkpt>
      <trkpt lat="42.88795" lon="0.10819">
        <ele>1679</ele>
        <time>2013-05-04T06:21:55Z</time>
      </trkpt>
      <trkpt lat="42.88787" lon="0.10818">
        <ele>1678</ele>
        <time>2013-05-04T06:22:06Z</time>
      </trkpt>
      <trkpt lat="42.8878" lon="0.10816">
        <ele>1679</ele>
        <time>2013-05-04T06:22:17Z</time>
      </trkpt>
      <trkpt lat="42.88776" lon="0.10821">
        <ele>1679</ele>
        <time>2013-05-04T06:22:31Z</time>
      </trkpt>
      <trkpt lat="42.88776" lon="0.10823">
        <ele>1674</ele>
        <time>2013-05-04T06:22:36Z</time>
      </trkpt>
      <trkpt lat="42.88776" lon="0.10823">
        <ele>1676</ele>
        <time>2013-05-04T06:22:37Z</time>
      </trkpt>
      <trkpt lat="42.88776" lon="0.10822">
        <ele>1686</ele>
        <time>2013-05-04T06:22:38Z</time>
      </trkpt>
      <trkpt lat="42.88776" lon="0.10822">
        <ele>1680</ele>
        <time>2013-05-04T06:22:39Z</time>
      </trkpt>
      <trkpt lat="42.88781" lon="0.10823">
        <ele>1679</ele>
        <time>2013-05-04T06:22:41Z</time>
      </trkpt>
      <trkpt lat="42.88792" lon="0.10822">
        <ele>1676</ele>
        <time>2013-05-04T06:22:54Z</time>
      </trkpt>
      <trkpt lat="42.88793" lon="0.10822">
        <ele>1679</ele>
        <time>2013-05-04T06:22:56Z</time>
      </trkpt>
      <trkpt lat="42.88793" lon="0.10821">
        <ele>1680</ele>
        <time>2013-05-04T06:22:57Z</time>
      </trkpt>
      <trkpt lat="42.88799" lon="0.10821">
        <ele>1679</ele>
        <time>2013-05-04T06:23:07Z</time>
      </trkpt>
      <trkpt lat="42.88792" lon="0.10823">
        <ele>1679</ele>
        <time>2013-05-04T06:23:16Z</time>
      </trkpt>
      <trkpt lat="42.88785" lon="0.10828">
        <ele>1679</ele>
        <time>2013-05-04T06:23:26Z</time>
      </trkpt>
      <trkpt lat="42.88781" lon="0.10831">
        <ele>1680</ele>
        <time>2013-05-04T06:23:36Z</time>
      </trkpt>
      <trkpt lat="42.88781" lon="0.10831">
        <ele>1681</ele>
        <time>2013-05-04T06:23:45Z</time>
      </trkpt>
      <trkpt lat="42.88773" lon="0.10836">
        <ele>1681</ele>
        <time>2013-05-04T06:23:54Z</time>
      </trkpt>
      <trkpt lat="42.88767" lon="0.10838">
        <ele>1682</ele>
        <time>2013-05-04T06:24:06Z</time>
      </trkpt>
      <trkpt lat="42.88758" lon="0.10836">
        <ele>1684</ele>
        <time>2013-05-04T06:24:15Z</time>
      </trkpt>
      <trkpt lat="42.88745" lon="0.10838">
        <ele>1686</ele>
        <time>2013-05-04T06:24:27Z</time>
      </trkpt>
      <trkpt lat="42.88739" lon="0.10841">
        <ele>1687</ele>
        <time>2013-05-04T06:24:37Z</time>
      </trkpt>
      <trkpt lat="42.88728" lon="0.10843">
        <ele>1687</ele>
        <time>2013-05-04T06:24:45Z</time>
      </trkpt>
      <trkpt lat="42.88724" lon="0.10842">
        <ele>1688</ele>
        <time>2013-05-04T06:24:52Z</time>
      </trkpt>
      <trkpt lat="42.88715" lon="0.10842">
        <ele>1689</ele>
        <time>2013-05-04T06:25:00Z</time>
      </trkpt>
      <trkpt lat="42.88711" lon="0.10843">
        <ele>1690</ele>
        <time>2013-05-04T06:25:11Z</time>
      </trkpt>
      <trkpt lat="42.88706" lon="0.10844">
        <ele>1690</ele>
        <time>2013-05-04T06:25:19Z</time>
      </trkpt>
      <trkpt lat="42.88699" lon="0.10845">
        <ele>1691</ele>
        <time>2013-05-04T06:25:28Z</time>
      </trkpt>
      <trkpt lat="42.8869" lon="0.10845">
        <ele>1692</ele>
        <time>2013-05-04T06:25:37Z</time>
      </trkpt>
      <trkpt lat="42.88683" lon="0.10845">
        <ele>1693</ele>
        <time>2013-05-04T06:25:46Z</time>
      </trkpt>
      <trkpt lat="42.88676" lon="0.10845">
        <ele>1693</ele>
        <time>2013-05-04T06:25:55Z</time>
      </trkpt>
      <trkpt lat="42.88667" lon="0.10846">
        <ele>1694</ele>
        <time>2013-05-04T06:26:04Z</time>
      </trkpt>
      <trkpt lat="42.88661" lon="0.10844">
        <ele>1695</ele>
        <time>2013-05-04T06:26:12Z</time>
      </trkpt>
      <trkpt lat="42.88651" lon="0.10844">
        <ele>1696</ele>
        <time>2013-05-04T06:26:20Z</time>
      </trkpt>
      <trkpt lat="42.88644" lon="0.10843">
        <ele>1697</ele>
        <time>2013-05-04T06:26:27Z</time>
      </trkpt>
      <trkpt lat="42.88638" lon="0.10841">
        <ele>1699</ele>
        <time>2013-05-04T06:26:39Z</time>
      </trkpt>
      <trkpt lat="42.88633" lon="0.10839">
        <ele>1699</ele>
        <time>2013-05-04T06:26:48Z</time>
      </trkpt>
      <trkpt lat="42.88627" lon="0.10837">
        <ele>1699</ele>
        <time>2013-05-04T06:27:02Z</time>
      </trkpt>
      <trkpt lat="42.88631" lon="0.10837">
        <ele>1698</ele>
        <time>2013-05-04T06:27:16Z</time>
      </trkpt>
      <trkpt lat="42.88627" lon="0.10833">
        <ele>1698</ele>
        <time>2013-05-04T06:27:30Z</time>
      </trkpt>
      <trkpt lat="42.88616" lon="0.10831">
        <ele>1699</ele>
        <time>2013-05-04T06:27:38Z</time>
      </trkpt>
      <trkpt lat="42.88612" lon="0.10833">
        <ele>1699</ele>
        <time>2013-05-04T06:27:54Z</time>
      </trkpt>
      <trkpt lat="42.88615" lon="0.10833">
        <ele>1697</ele>
        <time>2013-05-04T06:28:08Z</time>
      </trkpt>
      <trkpt lat="42.88615" lon="0.10831">
        <ele>1698</ele>
        <time>2013-05-04T06:28:17Z</time>
      </trkpt>
      <trkpt lat="42.88619" lon="0.10831">
        <ele>1698</ele>
        <time>2013-05-04T06:28:29Z</time>
      </trkpt>
      <trkpt lat="42.88622" lon="0.10831">
        <ele>1698</ele>
        <time>2013-05-04T06:28:38Z</time>
      </trkpt>
      <trkpt lat="42.88631" lon="0.10829">
        <ele>1698</ele>
        <time>2013-05-04T06:28:49Z</time>
      </trkpt>
      <trkpt lat="42.88628" lon="0.10827">
        <ele>1698</ele>
        <time>2013-05-04T06:28:59Z</time>
      </trkpt>
      <trkpt lat="42.88628" lon="0.10826">
        <ele>1698</ele>
        <time>2013-05-04T06:29:00Z</time>
      </trkpt>
      <trkpt lat="42.88622" lon="0.10822">
        <ele>1699</ele>
        <time>2013-05-04T06:29:08Z</time>
      </trkpt>
      <trkpt lat="42.88618" lon="0.1082">
        <ele>1701</ele>
        <time>2013-05-04T06:29:17Z</time>
      </trkpt>
      <trkpt lat="42.88614" lon="0.10821">
        <ele>1698</ele>
        <time>2013-05-04T06:29:24Z</time>
      </trkpt>
      <trkpt lat="42.88614" lon="0.10821">
        <ele>1703</ele>
        <time>2013-05-04T06:29:25Z</time>
      </trkpt>
      <trkpt lat="42.8861" lon="0.10821">
        <ele>1701</ele>
        <time>2013-05-04T06:29:28Z</time>
      </trkpt>
      <trkpt lat="42.8861" lon="0.10825">
        <ele>1702</ele>
        <time>2013-05-04T06:29:33Z</time>
      </trkpt>
      <trkpt lat="42.88611" lon="0.10831">
        <ele>1703</ele>
        <time>2013-05-04T06:29:42Z</time>
      </trkpt>
      <trkpt lat="42.88611" lon="0.10839">
        <ele>1704</ele>
        <time>2013-05-04T06:29:50Z</time>
      </trkpt>
      <trkpt lat="42.88606" lon="0.10841">
        <ele>1705</ele>
        <time>2013-05-04T06:29:58Z</time>
      </trkpt>
      <trkpt lat="42.88604" lon="0.1085">
        <ele>1707</ele>
        <time>2013-05-04T06:30:07Z</time>
      </trkpt>
      <trkpt lat="42.88601" lon="0.10859">
        <ele>1708</ele>
        <time>2013-05-04T06:30:15Z</time>
      </trkpt>
      <trkpt lat="42.886" lon="0.10865">
        <ele>1708</ele>
        <time>2013-05-04T06:30:23Z</time>
      </trkpt>
      <trkpt lat="42.88602" lon="0.10871">
        <ele>1709</ele>
        <time>2013-05-04T06:30:31Z</time>
      </trkpt>
      <trkpt lat="42.88601" lon="0.10878">
        <ele>1709</ele>
        <time>2013-05-04T06:30:38Z</time>
      </trkpt>
      <trkpt lat="42.88595" lon="0.10879">
        <ele>1710</ele>
        <time>2013-05-04T06:30:47Z</time>
      </trkpt>
      <trkpt lat="42.88588" lon="0.10886">
        <ele>1711</ele>
        <time>2013-05-04T06:30:56Z</time>
      </trkpt>
      <trkpt lat="42.88583" lon="0.10893">
        <ele>1713</ele>
        <time>2013-05-04T06:31:04Z</time>
      </trkpt>
      <trkpt lat="42.88578" lon="0.109">
        <ele>1713</ele>
        <time>2013-05-04T06:31:12Z</time>
      </trkpt>
      <trkpt lat="42.8857" lon="0.10904">
        <ele>1715</ele>
        <time>2013-05-04T06:31:19Z</time>
      </trkpt>
      <trkpt lat="42.88566" lon="0.10912">
        <ele>1717</ele>
        <time>2013-05-04T06:31:29Z</time>
      </trkpt>
      <trkpt lat="42.88566" lon="0.10913">
        <ele>1717</ele>
        <time>2013-05-04T06:31:37Z</time>
      </trkpt>
      <trkpt lat="42.8856" lon="0.10917">
        <ele>1718</ele>
        <time>2013-05-04T06:31:44Z</time>
      </trkpt>
      <trkpt lat="42.88555" lon="0.10922">
        <ele>1718</ele>
        <time>2013-05-04T06:31:51Z</time>
      </trkpt>
      <trkpt lat="42.88547" lon="0.10928">
        <ele>1719</ele>
        <time>2013-05-04T06:31:59Z</time>
      </trkpt>
      <trkpt lat="42.88541" lon="0.10933">
        <ele>1720</ele>
        <time>2013-05-04T06:32:06Z</time>
      </trkpt>
      <trkpt lat="42.88534" lon="0.10939">
        <ele>1721</ele>
        <time>2013-05-04T06:32:15Z</time>
      </trkpt>
      <trkpt lat="42.88531" lon="0.10943">
        <ele>1721</ele>
        <time>2013-05-04T06:32:21Z</time>
      </trkpt>
      <trkpt lat="42.88529" lon="0.10946">
        <ele>1722</ele>
        <time>2013-05-04T06:32:30Z</time>
      </trkpt>
      <trkpt lat="42.88524" lon="0.1095">
        <ele>1722</ele>
        <time>2013-05-04T06:32:38Z</time>
      </trkpt>
      <trkpt lat="42.88517" lon="0.10952">
        <ele>1722</ele>
        <time>2013-05-04T06:32:46Z</time>
      </trkpt>
      <trkpt lat="42.88517" lon="0.10953">
        <ele>1723</ele>
        <time>2013-05-04T06:32:47Z</time>
      </trkpt>
      <trkpt lat="42.88508" lon="0.10959">
        <ele>1723</ele>
        <time>2013-05-04T06:32:55Z</time>
      </trkpt>
      <trkpt lat="42.88498" lon="0.10966">
        <ele>1724</ele>
        <time>2013-05-04T06:33:06Z</time>
      </trkpt>
      <trkpt lat="42.88491" lon="0.1097">
        <ele>1726</ele>
        <time>2013-05-04T06:33:13Z</time>
      </trkpt>
      <trkpt lat="42.88486" lon="0.10971">
        <ele>1726</ele>
        <time>2013-05-04T06:33:21Z</time>
      </trkpt>
      <trkpt lat="42.88485" lon="0.10973">
        <ele>1726</ele>
        <time>2013-05-04T06:33:29Z</time>
      </trkpt>
      <trkpt lat="42.88482" lon="0.10976">
        <ele>1727</ele>
        <time>2013-05-04T06:33:32Z</time>
      </trkpt>
      <trkpt lat="42.88481" lon="0.10979">
        <ele>1727</ele>
        <time>2013-05-04T06:33:35Z</time>
      </trkpt>
      <trkpt lat="42.88479" lon="0.10981">
        <ele>1727</ele>
        <time>2013-05-04T06:33:37Z</time>
      </trkpt>
      <trkpt lat="42.88472" lon="0.10987">
        <ele>1729</ele>
        <time>2013-05-04T06:33:46Z</time>
      </trkpt>
      <trkpt lat="42.88468" lon="0.10992">
        <ele>1729</ele>
        <time>2013-05-04T06:33:53Z</time>
      </trkpt>
      <trkpt lat="42.88461" lon="0.11001">
        <ele>1730</ele>
        <time>2013-05-04T06:34:03Z</time>
      </trkpt>
      <trkpt lat="42.88455" lon="0.11007">
        <ele>1731</ele>
        <time>2013-05-04T06:34:10Z</time>
      </trkpt>
      <trkpt lat="42.88451" lon="0.11015">
        <ele>1731</ele>
        <time>2013-05-04T06:34:18Z</time>
      </trkpt>
      <trkpt lat="42.88446" lon="0.11024">
        <ele>1732</ele>
        <time>2013-05-04T06:34:27Z</time>
      </trkpt>
      <trkpt lat="42.88447" lon="0.11027">
        <ele>1732</ele>
        <time>2013-05-04T06:34:34Z</time>
      </trkpt>
      <trkpt lat="42.88442" lon="0.11041">
        <ele>1732</ele>
        <time>2013-05-04T06:34:45Z</time>
      </trkpt>
      <trkpt lat="42.88439" lon="0.11049">
        <ele>1733</ele>
        <time>2013-05-04T06:34:52Z</time>
      </trkpt>
      <trkpt lat="42.88433" lon="0.1106">
        <ele>1733</ele>
        <time>2013-05-04T06:35:01Z</time>
      </trkpt>
      <trkpt lat="42.88429" lon="0.11067">
        <ele>1733</ele>
        <time>2013-05-04T06:35:09Z</time>
      </trkpt>
      <trkpt lat="42.88425" lon="0.11076">
        <ele>1734</ele>
        <time>2013-05-04T06:35:17Z</time>
      </trkpt>
      <trkpt lat="42.8842" lon="0.11085">
        <ele>1734</ele>
        <time>2013-05-04T06:35:25Z</time>
      </trkpt>
      <trkpt lat="42.88419" lon="0.1109">
        <ele>1735</ele>
        <time>2013-05-04T06:35:33Z</time>
      </trkpt>
      <trkpt lat="42.88419" lon="0.11093">
        <ele>1735</ele>
        <time>2013-05-04T06:35:35Z</time>
      </trkpt>
      <trkpt lat="42.88414" lon="0.11099">
        <ele>1736</ele>
        <time>2013-05-04T06:35:41Z</time>
      </trkpt>
      <trkpt lat="42.88406" lon="0.11108">
        <ele>1737</ele>
        <time>2013-05-04T06:35:50Z</time>
      </trkpt>
      <trkpt lat="42.884" lon="0.11114">
        <ele>1737</ele>
        <time>2013-05-04T06:35:57Z</time>
      </trkpt>
      <trkpt lat="42.88395" lon="0.11124">
        <ele>1737</ele>
        <time>2013-05-04T06:36:06Z</time>
      </trkpt>
      <trkpt lat="42.88393" lon="0.11134">
        <ele>1739</ele>
        <time>2013-05-04T06:36:14Z</time>
      </trkpt>
      <trkpt lat="42.88388" lon="0.11143">
        <ele>1738</ele>
        <time>2013-05-04T06:36:23Z</time>
      </trkpt>
      <trkpt lat="42.88384" lon="0.11152">
        <ele>1739</ele>
        <time>2013-05-04T06:36:32Z</time>
      </trkpt>
      <trkpt lat="42.88383" lon="0.11154">
        <ele>1739</ele>
        <time>2013-05-04T06:36:34Z</time>
      </trkpt>
      <trkpt lat="42.88379" lon="0.11161">
        <ele>1739</ele>
        <time>2013-05-04T06:36:43Z</time>
      </trkpt>
      <trkpt lat="42.88376" lon="0.11165">
        <ele>1739</ele>
        <time>2013-05-04T06:36:53Z</time>
      </trkpt>
      <trkpt lat="42.88369" lon="0.11168">
        <ele>1740</ele>
        <time>2013-05-04T06:37:03Z</time>
      </trkpt>
      <trkpt lat="42.88362" lon="0.11167">
        <ele>1741</ele>
        <time>2013-05-04T06:37:11Z</time>
      </trkpt>
      <trkpt lat="42.88357" lon="0.11169">
        <ele>1741</ele>
        <time>2013-05-04T06:37:22Z</time>
      </trkpt>
      <trkpt lat="42.88356" lon="0.11172">
        <ele>1742</ele>
        <time>2013-05-04T06:37:37Z</time>
      </trkpt>
      <trkpt lat="42.88356" lon="0.11172">
        <ele>1743</ele>
        <time>2013-05-04T06:37:46Z</time>
      </trkpt>
      <trkpt lat="42.88353" lon="0.11173">
        <ele>1743</ele>
        <time>2013-05-04T06:37:54Z</time>
      </trkpt>
      <trkpt lat="42.88346" lon="0.11181">
        <ele>1744</ele>
        <time>2013-05-04T06:38:05Z</time>
      </trkpt>
      <trkpt lat="42.88339" lon="0.11183">
        <ele>1745</ele>
        <time>2013-05-04T06:38:14Z</time>
      </trkpt>
      <trkpt lat="42.88332" lon="0.11183">
        <ele>1746</ele>
        <time>2013-05-04T06:38:21Z</time>
      </trkpt>
      <trkpt lat="42.8832" lon="0.11185">
        <ele>1747</ele>
        <time>2013-05-04T06:38:34Z</time>
      </trkpt>
      <trkpt lat="42.88311" lon="0.11185">
        <ele>1747</ele>
        <time>2013-05-04T06:38:43Z</time>
      </trkpt>
      <trkpt lat="42.88303" lon="0.11183">
        <ele>1747</ele>
        <time>2013-05-04T06:38:51Z</time>
      </trkpt>
      <trkpt lat="42.88293" lon="0.1118">
        <ele>1748</ele>
        <time>2013-05-04T06:39:01Z</time>
      </trkpt>
      <trkpt lat="42.88283" lon="0.11178">
        <ele>1749</ele>
        <time>2013-05-04T06:39:10Z</time>
      </trkpt>
      <trkpt lat="42.88273" lon="0.11176">
        <ele>1751</ele>
        <time>2013-05-04T06:39:21Z</time>
      </trkpt>
      <trkpt lat="42.88265" lon="0.11176">
        <ele>1752</ele>
        <time>2013-05-04T06:39:30Z</time>
      </trkpt>
      <trkpt lat="42.88258" lon="0.11174">
        <ele>1753</ele>
        <time>2013-05-04T06:39:40Z</time>
      </trkpt>
      <trkpt lat="42.88249" lon="0.11166">
        <ele>1755</ele>
        <time>2013-05-04T06:39:52Z</time>
      </trkpt>
      <trkpt lat="42.88245" lon="0.11157">
        <ele>1755</ele>
        <time>2013-05-04T06:40:01Z</time>
      </trkpt>
      <trkpt lat="42.88241" lon="0.11153">
        <ele>1754</ele>
        <time>2013-05-04T06:40:11Z</time>
      </trkpt>
      <trkpt lat="42.88237" lon="0.11152">
        <ele>1756</ele>
        <time>2013-05-04T06:40:17Z</time>
      </trkpt>
      <trkpt lat="42.88237" lon="0.11153">
        <ele>1755</ele>
        <time>2013-05-04T06:40:19Z</time>
      </trkpt>
      <trkpt lat="42.88234" lon="0.11152">
        <ele>1756</ele>
        <time>2013-05-04T06:40:26Z</time>
      </trkpt>
      <trkpt lat="42.88234" lon="0.11151">
        <ele>1757</ele>
        <time>2013-05-04T06:40:36Z</time>
      </trkpt>
      <trkpt lat="42.88238" lon="0.11147">
        <ele>1757</ele>
        <time>2013-05-04T06:40:44Z</time>
      </trkpt>
      <trkpt lat="42.88239" lon="0.1114">
        <ele>1759</ele>
        <time>2013-05-04T06:40:52Z</time>
      </trkpt>
      <trkpt lat="42.88234" lon="0.11136">
        <ele>1760</ele>
        <time>2013-05-04T06:41:00Z</time>
      </trkpt>
      <trkpt lat="42.88228" lon="0.1114">
        <ele>1763</ele>
        <time>2013-05-04T06:41:10Z</time>
      </trkpt>
      <trkpt lat="42.88225" lon="0.11145">
        <ele>1764</ele>
        <time>2013-05-04T06:41:17Z</time>
      </trkpt>
      <trkpt lat="42.88231" lon="0.11147">
        <ele>1764</ele>
        <time>2013-05-04T06:41:25Z</time>
      </trkpt>
      <trkpt lat="42.88236" lon="0.11147">
        <ele>1764</ele>
        <time>2013-05-04T06:41:39Z</time>
      </trkpt>
      <trkpt lat="42.88239" lon="0.11133">
        <ele>1764</ele>
        <time>2013-05-04T06:41:48Z</time>
      </trkpt>
      <trkpt lat="42.88237" lon="0.11121">
        <ele>1766</ele>
        <time>2013-05-04T06:41:57Z</time>
      </trkpt>
      <trkpt lat="42.88242" lon="0.11117">
        <ele>1766</ele>
        <time>2013-05-04T06:42:04Z</time>
      </trkpt>
      <trkpt lat="42.88243" lon="0.11111">
        <ele>1768</ele>
        <time>2013-05-04T06:42:10Z</time>
      </trkpt>
      <trkpt lat="42.88242" lon="0.11103">
        <ele>1768</ele>
        <time>2013-05-04T06:42:16Z</time>
      </trkpt>
      <trkpt lat="42.88243" lon="0.11097">
        <ele>1770</ele>
        <time>2013-05-04T06:42:23Z</time>
      </trkpt>
      <trkpt lat="42.88239" lon="0.11102">
        <ele>1771</ele>
        <time>2013-05-04T06:42:30Z</time>
      </trkpt>
      <trkpt lat="42.88233" lon="0.11106">
        <ele>1773</ele>
        <time>2013-05-04T06:42:39Z</time>
      </trkpt>
      <trkpt lat="42.88226" lon="0.11109">
        <ele>1774</ele>
        <time>2013-05-04T06:42:49Z</time>
      </trkpt>
      <trkpt lat="42.8822" lon="0.11111">
        <ele>1776</ele>
        <time>2013-05-04T06:42:58Z</time>
      </trkpt>
      <trkpt lat="42.88221" lon="0.11107">
        <ele>1777</ele>
        <time>2013-05-04T06:43:05Z</time>
      </trkpt>
      <trkpt lat="42.88224" lon="0.111">
        <ele>1778</ele>
        <time>2013-05-04T06:43:15Z</time>
      </trkpt>
      <trkpt lat="42.88221" lon="0.11093">
        <ele>1779</ele>
        <time>2013-05-04T06:43:22Z</time>
      </trkpt>
      <trkpt lat="42.88218" lon="0.11089">
        <ele>1780</ele>
        <time>2013-05-04T06:43:27Z</time>
      </trkpt>
      <trkpt lat="42.88216" lon="0.11092">
        <ele>1781</ele>
        <time>2013-05-04T06:43:35Z</time>
      </trkpt>
      <trkpt lat="42.88214" lon="0.11094">
        <ele>1781</ele>
        <time>2013-05-04T06:43:43Z</time>
      </trkpt>
      <trkpt lat="42.88215" lon="0.11091">
        <ele>1782</ele>
        <time>2013-05-04T06:43:58Z</time>
      </trkpt>
      <trkpt lat="42.88216" lon="0.11095">
        <ele>1781</ele>
        <time>2013-05-04T06:44:12Z</time>
      </trkpt>
      <trkpt lat="42.88213" lon="0.11098">
        <ele>1782</ele>
        <time>2013-05-04T06:44:19Z</time>
      </trkpt>
      <trkpt lat="42.8821" lon="0.11101">
        <ele>1783</ele>
        <time>2013-05-04T06:44:24Z</time>
      </trkpt>
      <trkpt lat="42.88204" lon="0.11102">
        <ele>1784</ele>
        <time>2013-05-04T06:44:30Z</time>
      </trkpt>
      <trkpt lat="42.88199" lon="0.11105">
        <ele>1786</ele>
        <time>2013-05-04T06:44:39Z</time>
      </trkpt>
      <trkpt lat="42.88195" lon="0.11111">
        <ele>1788</ele>
        <time>2013-05-04T06:44:48Z</time>
      </trkpt>
      <trkpt lat="42.8819" lon="0.11115">
        <ele>1789</ele>
        <time>2013-05-04T06:44:56Z</time>
      </trkpt>
      <trkpt lat="42.88187" lon="0.11115">
        <ele>1790</ele>
        <time>2013-05-04T06:45:03Z</time>
      </trkpt>
      <trkpt lat="42.8819" lon="0.11108">
        <ele>1791</ele>
        <time>2013-05-04T06:45:12Z</time>
      </trkpt>
      <trkpt lat="42.88191" lon="0.11104">
        <ele>1791</ele>
        <time>2013-05-04T06:45:22Z</time>
      </trkpt>
      <trkpt lat="42.88192" lon="0.11102">
        <ele>1793</ele>
        <time>2013-05-04T06:45:32Z</time>
      </trkpt>
      <trkpt lat="42.88192" lon="0.11097">
        <ele>1793</ele>
        <time>2013-05-04T06:45:39Z</time>
      </trkpt>
      <trkpt lat="42.8819" lon="0.1109">
        <ele>1795</ele>
        <time>2013-05-04T06:45:46Z</time>
      </trkpt>
      <trkpt lat="42.88188" lon="0.11085">
        <ele>1795</ele>
        <time>2013-05-04T06:45:51Z</time>
      </trkpt>
      <trkpt lat="42.88186" lon="0.11082">
        <ele>1796</ele>
        <time>2013-05-04T06:45:54Z</time>
      </trkpt>
      <trkpt lat="42.88184" lon="0.11069">
        <ele>1797</ele>
        <time>2013-05-04T06:46:05Z</time>
      </trkpt>
      <trkpt lat="42.88182" lon="0.11064">
        <ele>1799</ele>
        <time>2013-05-04T06:46:13Z</time>
      </trkpt>
      <trkpt lat="42.88182" lon="0.11061">
        <ele>1800</ele>
        <time>2013-05-04T06:46:21Z</time>
      </trkpt>
      <trkpt lat="42.88182" lon="0.11051">
        <ele>1803</ele>
        <time>2013-05-04T06:46:32Z</time>
      </trkpt>
      <trkpt lat="42.88183" lon="0.11043">
        <ele>1805</ele>
        <time>2013-05-04T06:46:41Z</time>
      </trkpt>
      <trkpt lat="42.88182" lon="0.1104">
        <ele>1806</ele>
        <time>2013-05-04T06:46:47Z</time>
      </trkpt>
      <trkpt lat="42.88181" lon="0.11046">
        <ele>1806</ele>
        <time>2013-05-04T06:46:57Z</time>
      </trkpt>
      <trkpt lat="42.88176" lon="0.11049">
        <ele>1808</ele>
        <time>2013-05-04T06:47:07Z</time>
      </trkpt>
      <trkpt lat="42.88173" lon="0.11052">
        <ele>1809</ele>
        <time>2013-05-04T06:47:16Z</time>
      </trkpt>
      <trkpt lat="42.88168" lon="0.11055">
        <ele>1811</ele>
        <time>2013-05-04T06:47:25Z</time>
      </trkpt>
      <trkpt lat="42.88166" lon="0.11054">
        <ele>1812</ele>
        <time>2013-05-04T06:47:35Z</time>
      </trkpt>
      <trkpt lat="42.88165" lon="0.11055">
        <ele>1813</ele>
        <time>2013-05-04T06:47:50Z</time>
      </trkpt>
      <trkpt lat="42.88162" lon="0.11057">
        <ele>1814</ele>
        <time>2013-05-04T06:47:57Z</time>
      </trkpt>
      <trkpt lat="42.8816" lon="0.11057">
        <ele>1815</ele>
        <time>2013-05-04T06:48:07Z</time>
      </trkpt>
      <trkpt lat="42.88158" lon="0.11056">
        <ele>1815</ele>
        <time>2013-05-04T06:48:15Z</time>
      </trkpt>
      <trkpt lat="42.88153" lon="0.11062">
        <ele>1817</ele>
        <time>2013-05-04T06:48:25Z</time>
      </trkpt>
      <trkpt lat="42.88149" lon="0.11067">
        <ele>1819</ele>
        <time>2013-05-04T06:48:35Z</time>
      </trkpt>
      <trkpt lat="42.88145" lon="0.11069">
        <ele>1820</ele>
        <time>2013-05-04T06:48:45Z</time>
      </trkpt>
      <trkpt lat="42.88147" lon="0.11068">
        <ele>1821</ele>
        <time>2013-05-04T06:48:53Z</time>
      </trkpt>
      <trkpt lat="42.88149" lon="0.11066">
        <ele>1820</ele>
        <time>2013-05-04T06:49:07Z</time>
      </trkpt>
      <trkpt lat="42.88148" lon="0.11065">
        <ele>1821</ele>
        <time>2013-05-04T06:49:15Z</time>
      </trkpt>
      <trkpt lat="42.88147" lon="0.11062">
        <ele>1821</ele>
        <time>2013-05-04T06:49:25Z</time>
      </trkpt>
      <trkpt lat="42.88146" lon="0.11057">
        <ele>1822</ele>
        <time>2013-05-04T06:49:32Z</time>
      </trkpt>
      <trkpt lat="42.88145" lon="0.11052">
        <ele>1825</ele>
        <time>2013-05-04T06:49:42Z</time>
      </trkpt>
      <trkpt lat="42.88145" lon="0.11049">
        <ele>1826</ele>
        <time>2013-05-04T06:49:51Z</time>
      </trkpt>
      <trkpt lat="42.88141" lon="0.11055">
        <ele>1827</ele>
        <time>2013-05-04T06:50:00Z</time>
      </trkpt>
      <trkpt lat="42.88136" lon="0.11058">
        <ele>1829</ele>
        <time>2013-05-04T06:50:10Z</time>
      </trkpt>
      <trkpt lat="42.88132" lon="0.11061">
        <ele>1830</ele>
        <time>2013-05-04T06:50:19Z</time>
      </trkpt>
      <trkpt lat="42.88124" lon="0.11067">
        <ele>1832</ele>
        <time>2013-05-04T06:50:30Z</time>
      </trkpt>
      <trkpt lat="42.88117" lon="0.11073">
        <ele>1835</ele>
        <time>2013-05-04T06:50:44Z</time>
      </trkpt>
      <trkpt lat="42.88113" lon="0.11075">
        <ele>1837</ele>
        <time>2013-05-04T06:50:53Z</time>
      </trkpt>
      <trkpt lat="42.88108" lon="0.11083">
        <ele>1838</ele>
        <time>2013-05-04T06:51:04Z</time>
      </trkpt>
      <trkpt lat="42.88104" lon="0.11088">
        <ele>1840</ele>
        <time>2013-05-04T06:51:12Z</time>
      </trkpt>
      <trkpt lat="42.88097" lon="0.11092">
        <ele>1842</ele>
        <time>2013-05-04T06:51:23Z</time>
      </trkpt>
      <trkpt lat="42.88093" lon="0.11097">
        <ele>1843</ele>
        <time>2013-05-04T06:51:32Z</time>
      </trkpt>
      <trkpt lat="42.88088" lon="0.11102">
        <ele>1844</ele>
        <time>2013-05-04T06:51:43Z</time>
      </trkpt>
      <trkpt lat="42.88081" lon="0.11109">
        <ele>1846</ele>
        <time>2013-05-04T06:51:54Z</time>
      </trkpt>
      <trkpt lat="42.88076" lon="0.11112">
        <ele>1848</ele>
        <time>2013-05-04T06:52:03Z</time>
      </trkpt>
      <trkpt lat="42.8807" lon="0.11114">
        <ele>1849</ele>
        <time>2013-05-04T06:52:11Z</time>
      </trkpt>
      <trkpt lat="42.88066" lon="0.11116">
        <ele>1850</ele>
        <time>2013-05-04T06:52:19Z</time>
      </trkpt>
      <trkpt lat="42.88064" lon="0.11115">
        <ele>1852</ele>
        <time>2013-05-04T06:52:26Z</time>
      </trkpt>
      <trkpt lat="42.88065" lon="0.11108">
        <ele>1853</ele>
        <time>2013-05-04T06:52:33Z</time>
      </trkpt>
      <trkpt lat="42.88066" lon="0.11103">
        <ele>1854</ele>
        <time>2013-05-04T06:52:42Z</time>
      </trkpt>
      <trkpt lat="42.88066" lon="0.11096">
        <ele>1855</ele>
        <time>2013-05-04T06:52:54Z</time>
      </trkpt>
      <trkpt lat="42.88066" lon="0.11087">
        <ele>1858</ele>
        <time>2013-05-04T06:53:03Z</time>
      </trkpt>
      <trkpt lat="42.88065" lon="0.11081">
        <ele>1858</ele>
        <time>2013-05-04T06:53:12Z</time>
      </trkpt>
      <trkpt lat="42.88061" lon="0.11085">
        <ele>1859</ele>
        <time>2013-05-04T06:53:20Z</time>
      </trkpt>
      <trkpt lat="42.88055" lon="0.11088">
        <ele>1860</ele>
        <time>2013-05-04T06:53:31Z</time>
      </trkpt>
      <trkpt lat="42.8805" lon="0.11091">
        <ele>1863</ele>
        <time>2013-05-04T06:53:40Z</time>
      </trkpt>
      <trkpt lat="42.88045" lon="0.11091">
        <ele>1864</ele>
        <time>2013-05-04T06:53:49Z</time>
      </trkpt>
      <trkpt lat="42.8804" lon="0.11093">
        <ele>1865</ele>
        <time>2013-05-04T06:53:56Z</time>
      </trkpt>
      <trkpt lat="42.88037" lon="0.11093">
        <ele>1866</ele>
        <time>2013-05-04T06:54:02Z</time>
      </trkpt>
      <trkpt lat="42.88033" lon="0.11095">
        <ele>1867</ele>
        <time>2013-05-04T06:54:09Z</time>
      </trkpt>
      <trkpt lat="42.88029" lon="0.11096">
        <ele>1869</ele>
        <time>2013-05-04T06:54:17Z</time>
      </trkpt>
      <trkpt lat="42.88026" lon="0.11093">
        <ele>1870</ele>
        <time>2013-05-04T06:54:24Z</time>
      </trkpt>
      <trkpt lat="42.88026" lon="0.11095">
        <ele>1871</ele>
        <time>2013-05-04T06:54:32Z</time>
      </trkpt>
      <trkpt lat="42.88026" lon="0.11094">
        <ele>1870</ele>
        <time>2013-05-04T06:54:47Z</time>
      </trkpt>
      <trkpt lat="42.88026" lon="0.11094">
        <ele>1870</ele>
        <time>2013-05-04T06:55:01Z</time>
      </trkpt>
      <trkpt lat="42.88027" lon="0.11096">
        <ele>1870</ele>
        <time>2013-05-04T06:55:14Z</time>
      </trkpt>
      <trkpt lat="42.88026" lon="0.11094">
        <ele>1871</ele>
        <time>2013-05-04T06:55:28Z</time>
      </trkpt>
      <trkpt lat="42.88025" lon="0.11096">
        <ele>1871</ele>
        <time>2013-05-04T06:55:37Z</time>
      </trkpt>
      <trkpt lat="42.88024" lon="0.11096">
        <ele>1870</ele>
        <time>2013-05-04T06:55:56Z</time>
      </trkpt>
      <trkpt lat="42.88027" lon="0.11097">
        <ele>1871</ele>
        <time>2013-05-04T06:56:13Z</time>
      </trkpt>
      <trkpt lat="42.88026" lon="0.11097">
        <ele>1871</ele>
        <time>2013-05-04T06:56:32Z</time>
      </trkpt>
      <trkpt lat="42.88027" lon="0.11097">
        <ele>1871</ele>
        <time>2013-05-04T06:56:51Z</time>
      </trkpt>
      <trkpt lat="42.88027" lon="0.11096">
        <ele>1872</ele>
        <time>2013-05-04T06:57:12Z</time>
      </trkpt>
      <trkpt lat="42.88027" lon="0.11099">
        <ele>1871</ele>
        <time>2013-05-04T06:57:24Z</time>
      </trkpt>
      <trkpt lat="42.88027" lon="0.11097">
        <ele>1871</ele>
        <time>2013-05-04T06:57:39Z</time>
      </trkpt>
      <trkpt lat="42.88027" lon="0.11095">
        <ele>1872</ele>
        <time>2013-05-04T06:57:51Z</time>
      </trkpt>
      <trkpt lat="42.88028" lon="0.11096">
        <ele>1871</ele>
        <time>2013-05-04T06:58:08Z</time>
      </trkpt>
      <trkpt lat="42.88028" lon="0.11097">
        <ele>1872</ele>
        <time>2013-05-04T06:58:21Z</time>
      </trkpt>
      <trkpt lat="42.88025" lon="0.111">
        <ele>1872</ele>
        <time>2013-05-04T06:58:28Z</time>
      </trkpt>
      <trkpt lat="42.88019" lon="0.11098">
        <ele>1874</ele>
        <time>2013-05-04T06:58:37Z</time>
      </trkpt>
      <trkpt lat="42.88018" lon="0.11087">
        <ele>1875</ele>
        <time>2013-05-04T06:58:46Z</time>
      </trkpt>
      <trkpt lat="42.88018" lon="0.11076">
        <ele>1877</ele>
        <time>2013-05-04T06:58:55Z</time>
      </trkpt>
      <trkpt lat="42.88019" lon="0.11072">
        <ele>1878</ele>
        <time>2013-05-04T06:59:01Z</time>
      </trkpt>
      <trkpt lat="42.88019" lon="0.11066">
        <ele>1880</ele>
        <time>2013-05-04T06:59:07Z</time>
      </trkpt>
      <trkpt lat="42.88014" lon="0.11069">
        <ele>1880</ele>
        <time>2013-05-04T06:59:16Z</time>
      </trkpt>
      <trkpt lat="42.88008" lon="0.11072">
        <ele>1881</ele>
        <time>2013-05-04T06:59:24Z</time>
      </trkpt>
      <trkpt lat="42.88003" lon="0.11075">
        <ele>1883</ele>
        <time>2013-05-04T06:59:31Z</time>
      </trkpt>
      <trkpt lat="42.88002" lon="0.11076">
        <ele>1883</ele>
        <time>2013-05-04T06:59:32Z</time>
      </trkpt>
      <trkpt lat="42.87998" lon="0.11077">
        <ele>1884</ele>
        <time>2013-05-04T06:59:39Z</time>
      </trkpt>
      <trkpt lat="42.87994" lon="0.11079">
        <ele>1886</ele>
        <time>2013-05-04T06:59:46Z</time>
      </trkpt>
      <trkpt lat="42.87994" lon="0.11079">
        <ele>1886</ele>
        <time>2013-05-04T06:59:47Z</time>
      </trkpt>
      <trkpt lat="42.87988" lon="0.11081">
        <ele>1888</ele>
        <time>2013-05-04T06:59:57Z</time>
      </trkpt>
      <trkpt lat="42.87983" lon="0.11081">
        <ele>1890</ele>
        <time>2013-05-04T07:00:09Z</time>
      </trkpt>
      <trkpt lat="42.87984" lon="0.11072">
        <ele>1891</ele>
        <time>2013-05-04T07:00:19Z</time>
      </trkpt>
      <trkpt lat="42.87985" lon="0.11062">
        <ele>1892</ele>
        <time>2013-05-04T07:00:27Z</time>
      </trkpt>
      <trkpt lat="42.87988" lon="0.11054">
        <ele>1893</ele>
        <time>2013-05-04T07:00:37Z</time>
      </trkpt>
      <trkpt lat="42.8799" lon="0.11049">
        <ele>1895</ele>
        <time>2013-05-04T07:00:44Z</time>
      </trkpt>
      <trkpt lat="42.87991" lon="0.11038">
        <ele>1896</ele>
        <time>2013-05-04T07:00:54Z</time>
      </trkpt>
      <trkpt lat="42.87993" lon="0.11036">
        <ele>1896</ele>
        <time>2013-05-04T07:01:02Z</time>
      </trkpt>
      <trkpt lat="42.87991" lon="0.11043">
        <ele>1897</ele>
        <time>2013-05-04T07:01:10Z</time>
      </trkpt>
      <trkpt lat="42.87984" lon="0.11045">
        <ele>1899</ele>
        <time>2013-05-04T07:01:19Z</time>
      </trkpt>
      <trkpt lat="42.87979" lon="0.11048">
        <ele>1901</ele>
        <time>2013-05-04T07:01:30Z</time>
      </trkpt>
      <trkpt lat="42.87975" lon="0.1105">
        <ele>1902</ele>
        <time>2013-05-04T07:01:37Z</time>
      </trkpt>
      <trkpt lat="42.87968" lon="0.11053">
        <ele>1904</ele>
        <time>2013-05-04T07:01:48Z</time>
      </trkpt>
      <trkpt lat="42.87963" lon="0.11056">
        <ele>1905</ele>
        <time>2013-05-04T07:01:59Z</time>
      </trkpt>
      <trkpt lat="42.87957" lon="0.11059">
        <ele>1907</ele>
        <time>2013-05-04T07:02:09Z</time>
      </trkpt>
      <trkpt lat="42.87952" lon="0.11063">
        <ele>1909</ele>
        <time>2013-05-04T07:02:19Z</time>
      </trkpt>
      <trkpt lat="42.87954" lon="0.11059">
        <ele>1910</ele>
        <time>2013-05-04T07:02:28Z</time>
      </trkpt>
      <trkpt lat="42.87953" lon="0.11049">
        <ele>1911</ele>
        <time>2013-05-04T07:02:39Z</time>
      </trkpt>
      <trkpt lat="42.87954" lon="0.11042">
        <ele>1914</ele>
        <time>2013-05-04T07:02:50Z</time>
      </trkpt>
      <trkpt lat="42.87955" lon="0.11038">
        <ele>1915</ele>
        <time>2013-05-04T07:02:56Z</time>
      </trkpt>
      <trkpt lat="42.87957" lon="0.11028">
        <ele>1917</ele>
        <time>2013-05-04T07:03:07Z</time>
      </trkpt>
      <trkpt lat="42.87957" lon="0.11026">
        <ele>1917</ele>
        <time>2013-05-04T07:03:17Z</time>
      </trkpt>
      <trkpt lat="42.87956" lon="0.1103">
        <ele>1917</ele>
        <time>2013-05-04T07:03:27Z</time>
      </trkpt>
      <trkpt lat="42.87951" lon="0.11032">
        <ele>1920</ele>
        <time>2013-05-04T07:03:39Z</time>
      </trkpt>
      <trkpt lat="42.87947" lon="0.11033">
        <ele>1921</ele>
        <time>2013-05-04T07:03:48Z</time>
      </trkpt>
      <trkpt lat="42.87942" lon="0.11036">
        <ele>1923</ele>
        <time>2013-05-04T07:03:58Z</time>
      </trkpt>
      <trkpt lat="42.87937" lon="0.11039">
        <ele>1925</ele>
        <time>2013-05-04T07:04:08Z</time>
      </trkpt>
      <trkpt lat="42.87933" lon="0.11041">
        <ele>1926</ele>
        <time>2013-05-04T07:04:16Z</time>
      </trkpt>
      <trkpt lat="42.87927" lon="0.11044">
        <ele>1928</ele>
        <time>2013-05-04T07:04:26Z</time>
      </trkpt>
      <trkpt lat="42.87927" lon="0.11038">
        <ele>1929</ele>
        <time>2013-05-04T07:04:34Z</time>
      </trkpt>
      <trkpt lat="42.87929" lon="0.11029">
        <ele>1929</ele>
        <time>2013-05-04T07:04:44Z</time>
      </trkpt>
      <trkpt lat="42.87932" lon="0.1102">
        <ele>1931</ele>
        <time>2013-05-04T07:04:55Z</time>
      </trkpt>
      <trkpt lat="42.87933" lon="0.11015">
        <ele>1932</ele>
        <time>2013-05-04T07:05:03Z</time>
      </trkpt>
      <trkpt lat="42.87936" lon="0.11007">
        <ele>1933</ele>
        <time>2013-05-04T07:05:13Z</time>
      </trkpt>
      <trkpt lat="42.87933" lon="0.1101">
        <ele>1934</ele>
        <time>2013-05-04T07:05:22Z</time>
      </trkpt>
      <trkpt lat="42.87928" lon="0.11013">
        <ele>1936</ele>
        <time>2013-05-04T07:05:33Z</time>
      </trkpt>
      <trkpt lat="42.87923" lon="0.11014">
        <ele>1936</ele>
        <time>2013-05-04T07:05:42Z</time>
      </trkpt>
      <trkpt lat="42.87918" lon="0.11019">
        <ele>1938</ele>
        <time>2013-05-04T07:05:51Z</time>
      </trkpt>
      <trkpt lat="42.87914" lon="0.1102">
        <ele>1940</ele>
        <time>2013-05-04T07:06:02Z</time>
      </trkpt>
      <trkpt lat="42.87915" lon="0.11013">
        <ele>1941</ele>
        <time>2013-05-04T07:06:11Z</time>
      </trkpt>
      <trkpt lat="42.87917" lon="0.11003">
        <ele>1942</ele>
        <time>2013-05-04T07:06:23Z</time>
      </trkpt>
      <trkpt lat="42.87918" lon="0.10995">
        <ele>1944</ele>
        <time>2013-05-04T07:06:34Z</time>
      </trkpt>
      <trkpt lat="42.87914" lon="0.10998">
        <ele>1945</ele>
        <time>2013-05-04T07:06:44Z</time>
      </trkpt>
      <trkpt lat="42.87907" lon="0.11004">
        <ele>1947</ele>
        <time>2013-05-04T07:06:57Z</time>
      </trkpt>
      <trkpt lat="42.87903" lon="0.11009">
        <ele>1948</ele>
        <time>2013-05-04T07:07:06Z</time>
      </trkpt>
      <trkpt lat="42.879" lon="0.11014">
        <ele>1950</ele>
        <time>2013-05-04T07:07:14Z</time>
      </trkpt>
      <trkpt lat="42.879" lon="0.1101">
        <ele>1951</ele>
        <time>2013-05-04T07:07:23Z</time>
      </trkpt>
      <trkpt lat="42.879" lon="0.11002">
        <ele>1952</ele>
        <time>2013-05-04T07:07:31Z</time>
      </trkpt>
      <trkpt lat="42.879" lon="0.10996">
        <ele>1952</ele>
        <time>2013-05-04T07:07:38Z</time>
      </trkpt>
      <trkpt lat="42.879" lon="0.1099">
        <ele>1953</ele>
        <time>2013-05-04T07:07:45Z</time>
      </trkpt>
      <trkpt lat="42.87899" lon="0.1098">
        <ele>1954</ele>
        <time>2013-05-04T07:07:54Z</time>
      </trkpt>
      <trkpt lat="42.87901" lon="0.10974">
        <ele>1956</ele>
        <time>2013-05-04T07:08:03Z</time>
      </trkpt>
      <trkpt lat="42.87902" lon="0.10969">
        <ele>1958</ele>
        <time>2013-05-04T07:08:11Z</time>
      </trkpt>
      <trkpt lat="42.87902" lon="0.10963">
        <ele>1959</ele>
        <time>2013-05-04T07:08:18Z</time>
      </trkpt>
      <trkpt lat="42.879" lon="0.10969">
        <ele>1960</ele>
        <time>2013-05-04T07:08:25Z</time>
      </trkpt>
      <trkpt lat="42.87894" lon="0.10976">
        <ele>1961</ele>
        <time>2013-05-04T07:08:35Z</time>
      </trkpt>
      <trkpt lat="42.87889" lon="0.1098">
        <ele>1962</ele>
        <time>2013-05-04T07:08:44Z</time>
      </trkpt>
      <trkpt lat="42.87885" lon="0.10986">
        <ele>1963</ele>
        <time>2013-05-04T07:08:54Z</time>
      </trkpt>
      <trkpt lat="42.87883" lon="0.10994">
        <ele>1964</ele>
        <time>2013-05-04T07:09:03Z</time>
      </trkpt>
      <trkpt lat="42.87881" lon="0.10999">
        <ele>1966</ele>
        <time>2013-05-04T07:09:11Z</time>
      </trkpt>
      <trkpt lat="42.8788" lon="0.11">
        <ele>1967</ele>
        <time>2013-05-04T07:09:21Z</time>
      </trkpt>
      <trkpt lat="42.87879" lon="0.1099">
        <ele>1968</ele>
        <time>2013-05-04T07:09:31Z</time>
      </trkpt>
      <trkpt lat="42.87877" lon="0.10983">
        <ele>1969</ele>
        <time>2013-05-04T07:09:39Z</time>
      </trkpt>
      <trkpt lat="42.87877" lon="0.10973">
        <ele>1972</ele>
        <time>2013-05-04T07:09:52Z</time>
      </trkpt>
      <trkpt lat="42.87876" lon="0.10968">
        <ele>1972</ele>
        <time>2013-05-04T07:10:01Z</time>
      </trkpt>
      <trkpt lat="42.87875" lon="0.10966">
        <ele>1972</ele>
        <time>2013-05-04T07:10:13Z</time>
      </trkpt>
      <trkpt lat="42.87875" lon="0.10963">
        <ele>1973</ele>
        <time>2013-05-04T07:10:20Z</time>
      </trkpt>
      <trkpt lat="42.87875" lon="0.10956">
        <ele>1975</ele>
        <time>2013-05-04T07:10:31Z</time>
      </trkpt>
      <trkpt lat="42.87874" lon="0.10955">
        <ele>1975</ele>
        <time>2013-05-04T07:10:45Z</time>
      </trkpt>
      <trkpt lat="42.87874" lon="0.10954">
        <ele>1976</ele>
        <time>2013-05-04T07:11:04Z</time>
      </trkpt>
      <trkpt lat="42.87875" lon="0.10951">
        <ele>1975</ele>
        <time>2013-05-04T07:11:17Z</time>
      </trkpt>
      <trkpt lat="42.87876" lon="0.10945">
        <ele>1977</ele>
        <time>2013-05-04T07:11:26Z</time>
      </trkpt>
      <trkpt lat="42.87871" lon="0.10952">
        <ele>1979</ele>
        <time>2013-05-04T07:11:37Z</time>
      </trkpt>
      <trkpt lat="42.87867" lon="0.10959">
        <ele>1980</ele>
        <time>2013-05-04T07:11:45Z</time>
      </trkpt>
      <trkpt lat="42.87864" lon="0.10968">
        <ele>1982</ele>
        <time>2013-05-04T07:11:54Z</time>
      </trkpt>
      <trkpt lat="42.87862" lon="0.10975">
        <ele>1983</ele>
        <time>2013-05-04T07:12:03Z</time>
      </trkpt>
      <trkpt lat="42.87861" lon="0.10977">
        <ele>1984</ele>
        <time>2013-05-04T07:12:11Z</time>
      </trkpt>
      <trkpt lat="42.87856" lon="0.10987">
        <ele>1986</ele>
        <time>2013-05-04T07:12:22Z</time>
      </trkpt>
      <trkpt lat="42.87856" lon="0.10987">
        <ele>1986</ele>
        <time>2013-05-04T07:12:31Z</time>
      </trkpt>
      <trkpt lat="42.87854" lon="0.10981">
        <ele>1988</ele>
        <time>2013-05-04T07:12:40Z</time>
      </trkpt>
      <trkpt lat="42.87853" lon="0.10971">
        <ele>1990</ele>
        <time>2013-05-04T07:12:49Z</time>
      </trkpt>
      <trkpt lat="42.87851" lon="0.1096">
        <ele>1991</ele>
        <time>2013-05-04T07:13:00Z</time>
      </trkpt>
      <trkpt lat="42.87849" lon="0.10951">
        <ele>1993</ele>
        <time>2013-05-04T07:13:11Z</time>
      </trkpt>
      <trkpt lat="42.87848" lon="0.10939">
        <ele>1995</ele>
        <time>2013-05-04T07:13:21Z</time>
      </trkpt>
      <trkpt lat="42.87848" lon="0.10931">
        <ele>1997</ele>
        <time>2013-05-04T07:13:29Z</time>
      </trkpt>
      <trkpt lat="42.87848" lon="0.10928">
        <ele>1997</ele>
        <time>2013-05-04T07:13:39Z</time>
      </trkpt>
      <trkpt lat="42.87849" lon="0.10921">
        <ele>1999</ele>
        <time>2013-05-04T07:13:47Z</time>
      </trkpt>
      <trkpt lat="42.87852" lon="0.10913">
        <ele>2001</ele>
        <time>2013-05-04T07:13:56Z</time>
      </trkpt>
      <trkpt lat="42.87852" lon="0.10913">
        <ele>2001</ele>
        <time>2013-05-04T07:14:02Z</time>
      </trkpt>
      <trkpt lat="42.87848" lon="0.10919">
        <ele>2002</ele>
        <time>2013-05-04T07:14:10Z</time>
      </trkpt>
      <trkpt lat="42.87843" lon="0.10924">
        <ele>2004</ele>
        <time>2013-05-04T07:14:19Z</time>
      </trkpt>
      <trkpt lat="42.87838" lon="0.10929">
        <ele>2004</ele>
        <time>2013-05-04T07:14:27Z</time>
      </trkpt>
      <trkpt lat="42.87835" lon="0.10932">
        <ele>2006</ele>
        <time>2013-05-04T07:14:34Z</time>
      </trkpt>
      <trkpt lat="42.87832" lon="0.10938">
        <ele>2007</ele>
        <time>2013-05-04T07:14:43Z</time>
      </trkpt>
      <trkpt lat="42.87831" lon="0.10943">
        <ele>2008</ele>
        <time>2013-05-04T07:14:48Z</time>
      </trkpt>
      <trkpt lat="42.87829" lon="0.10951">
        <ele>2010</ele>
        <time>2013-05-04T07:14:56Z</time>
      </trkpt>
      <trkpt lat="42.87827" lon="0.10956">
        <ele>2011</ele>
        <time>2013-05-04T07:15:04Z</time>
      </trkpt>
      <trkpt lat="42.87827" lon="0.10955">
        <ele>2011</ele>
        <time>2013-05-04T07:15:13Z</time>
      </trkpt>
      <trkpt lat="42.87826" lon="0.10948">
        <ele>2012</ele>
        <time>2013-05-04T07:15:22Z</time>
      </trkpt>
      <trkpt lat="42.87824" lon="0.10938">
        <ele>2013</ele>
        <time>2013-05-04T07:15:31Z</time>
      </trkpt>
      <trkpt lat="42.87822" lon="0.10927">
        <ele>2014</ele>
        <time>2013-05-04T07:15:40Z</time>
      </trkpt>
      <trkpt lat="42.87822" lon="0.10919">
        <ele>2016</ele>
        <time>2013-05-04T07:15:49Z</time>
      </trkpt>
      <trkpt lat="42.87824" lon="0.10911">
        <ele>2017</ele>
        <time>2013-05-04T07:15:58Z</time>
      </trkpt>
      <trkpt lat="42.87826" lon="0.10907">
        <ele>2018</ele>
        <time>2013-05-04T07:16:04Z</time>
      </trkpt>
      <trkpt lat="42.87827" lon="0.10898">
        <ele>2019</ele>
        <time>2013-05-04T07:16:12Z</time>
      </trkpt>
      <trkpt lat="42.87828" lon="0.10898">
        <ele>2020</ele>
        <time>2013-05-04T07:16:21Z</time>
      </trkpt>
      <trkpt lat="42.87825" lon="0.10903">
        <ele>2021</ele>
        <time>2013-05-04T07:16:28Z</time>
      </trkpt>
      <trkpt lat="42.8782" lon="0.10907">
        <ele>2022</ele>
        <time>2013-05-04T07:16:36Z</time>
      </trkpt>
      <trkpt lat="42.87815" lon="0.10912">
        <ele>2024</ele>
        <time>2013-05-04T07:16:44Z</time>
      </trkpt>
      <trkpt lat="42.87811" lon="0.10917">
        <ele>2025</ele>
        <time>2013-05-04T07:16:53Z</time>
      </trkpt>
      <trkpt lat="42.8781" lon="0.10916">
        <ele>2025</ele>
        <time>2013-05-04T07:17:02Z</time>
      </trkpt>
      <trkpt lat="42.87812" lon="0.1091">
        <ele>2026</ele>
        <time>2013-05-04T07:17:11Z</time>
      </trkpt>
      <trkpt lat="42.87812" lon="0.10904">
        <ele>2026</ele>
        <time>2013-05-04T07:17:18Z</time>
      </trkpt>
      <trkpt lat="42.87812" lon="0.10896">
        <ele>2028</ele>
        <time>2013-05-04T07:17:28Z</time>
      </trkpt>
      <trkpt lat="42.87813" lon="0.1089">
        <ele>2029</ele>
        <time>2013-05-04T07:17:35Z</time>
      </trkpt>
      <trkpt lat="42.87816" lon="0.10887">
        <ele>2029</ele>
        <time>2013-05-04T07:17:42Z</time>
      </trkpt>
      <trkpt lat="42.87817" lon="0.10881">
        <ele>2031</ele>
        <time>2013-05-04T07:17:51Z</time>
      </trkpt>
      <trkpt lat="42.87819" lon="0.10876">
        <ele>2031</ele>
        <time>2013-05-04T07:17:58Z</time>
      </trkpt>
      <trkpt lat="42.8782" lon="0.10871">
        <ele>2032</ele>
        <time>2013-05-04T07:18:05Z</time>
      </trkpt>
      <trkpt lat="42.87823" lon="0.10866">
        <ele>2033</ele>
        <time>2013-05-04T07:18:13Z</time>
      </trkpt>
      <trkpt lat="42.87828" lon="0.1086">
        <ele>2034</ele>
        <time>2013-05-04T07:18:22Z</time>
      </trkpt>
      <trkpt lat="42.87833" lon="0.10855">
        <ele>2035</ele>
        <time>2013-05-04T07:18:32Z</time>
      </trkpt>
      <trkpt lat="42.87838" lon="0.1085">
        <ele>2036</ele>
        <time>2013-05-04T07:18:40Z</time>
      </trkpt>
      <trkpt lat="42.87843" lon="0.10845">
        <ele>2038</ele>
        <time>2013-05-04T07:18:49Z</time>
      </trkpt>
      <trkpt lat="42.87848" lon="0.10841">
        <ele>2039</ele>
        <time>2013-05-04T07:18:58Z</time>
      </trkpt>
      <trkpt lat="42.87854" lon="0.10837">
        <ele>2041</ele>
        <time>2013-05-04T07:19:08Z</time>
      </trkpt>
      <trkpt lat="42.87859" lon="0.10835">
        <ele>2042</ele>
        <time>2013-05-04T07:19:18Z</time>
      </trkpt>
      <trkpt lat="42.87856" lon="0.10834">
        <ele>2041</ele>
        <time>2013-05-04T07:19:28Z</time>
      </trkpt>
      <trkpt lat="42.87851" lon="0.10833">
        <ele>2043</ele>
        <time>2013-05-04T07:19:36Z</time>
      </trkpt>
      <trkpt lat="42.87847" lon="0.10831">
        <ele>2045</ele>
        <time>2013-05-04T07:19:44Z</time>
      </trkpt>
      <trkpt lat="42.87846" lon="0.10826">
        <ele>2046</ele>
        <time>2013-05-04T07:19:52Z</time>
      </trkpt>
      <trkpt lat="42.87852" lon="0.10822">
        <ele>2047</ele>
        <time>2013-05-04T07:20:01Z</time>
      </trkpt>
      <trkpt lat="42.87856" lon="0.10818">
        <ele>2049</ele>
        <time>2013-05-04T07:20:09Z</time>
      </trkpt>
      <trkpt lat="42.87855" lon="0.10819">
        <ele>2048</ele>
        <time>2013-05-04T07:20:15Z</time>
      </trkpt>
      <trkpt lat="42.87855" lon="0.10816">
        <ele>2048</ele>
        <time>2013-05-04T07:20:26Z</time>
      </trkpt>
      <trkpt lat="42.87854" lon="0.10818">
        <ele>2048</ele>
        <time>2013-05-04T07:20:39Z</time>
      </trkpt>
      <trkpt lat="42.87856" lon="0.10815">
        <ele>2048</ele>
        <time>2013-05-04T07:20:48Z</time>
      </trkpt>
      <trkpt lat="42.87857" lon="0.10815">
        <ele>2048</ele>
        <time>2013-05-04T07:20:49Z</time>
      </trkpt>
      <trkpt lat="42.8786" lon="0.10815">
        <ele>2048</ele>
        <time>2013-05-04T07:20:58Z</time>
      </trkpt>
      <trkpt lat="42.87865" lon="0.10815">
        <ele>2048</ele>
        <time>2013-05-04T07:21:05Z</time>
      </trkpt>
      <trkpt lat="42.87872" lon="0.10807">
        <ele>2050</ele>
        <time>2013-05-04T07:21:15Z</time>
      </trkpt>
      <trkpt lat="42.87872" lon="0.10804">
        <ele>2050</ele>
        <time>2013-05-04T07:21:17Z</time>
      </trkpt>
      <trkpt lat="42.87877" lon="0.1079">
        <ele>2053</ele>
        <time>2013-05-04T07:21:30Z</time>
      </trkpt>
      <trkpt lat="42.87882" lon="0.10782">
        <ele>2055</ele>
        <time>2013-05-04T07:21:39Z</time>
      </trkpt>
      <trkpt lat="42.87885" lon="0.10781">
        <ele>2056</ele>
        <time>2013-05-04T07:21:47Z</time>
      </trkpt>
      <trkpt lat="42.87884" lon="0.10781">
        <ele>2056</ele>
        <time>2013-05-04T07:21:53Z</time>
      </trkpt>
      <trkpt lat="42.87886" lon="0.10779">
        <ele>2056</ele>
        <time>2013-05-04T07:22:07Z</time>
      </trkpt>
      <trkpt lat="42.87885" lon="0.10776">
        <ele>2056</ele>
        <time>2013-05-04T07:22:16Z</time>
      </trkpt>
      <trkpt lat="42.87886" lon="0.10775">
        <ele>2056</ele>
        <time>2013-05-04T07:22:21Z</time>
      </trkpt>
      <trkpt lat="42.87885" lon="0.10774">
        <ele>2056</ele>
        <time>2013-05-04T07:22:28Z</time>
      </trkpt>
      <trkpt lat="42.87885" lon="0.10773">
        <ele>2056</ele>
        <time>2013-05-04T07:22:34Z</time>
      </trkpt>
      <trkpt lat="42.87884" lon="0.10772">
        <ele>2055</ele>
        <time>2013-05-04T07:22:39Z</time>
      </trkpt>
      <trkpt lat="42.87884" lon="0.10772">
        <ele>2055</ele>
        <time>2013-05-04T07:22:57Z</time>
      </trkpt>
      <trkpt lat="42.87883" lon="0.1077">
        <ele>2055</ele>
        <time>2013-05-04T07:23:18Z</time>
      </trkpt>
      <trkpt lat="42.87883" lon="0.1077">
        <ele>2056</ele>
        <time>2013-05-04T07:23:42Z</time>
      </trkpt>
      <trkpt lat="42.87885" lon="0.1077">
        <ele>2055</ele>
        <time>2013-05-04T07:24:05Z</time>
      </trkpt>
      <trkpt lat="42.87886" lon="0.10771">
        <ele>2056</ele>
        <time>2013-05-04T07:24:10Z</time>
      </trkpt>
      <trkpt lat="42.87884" lon="0.10771">
        <ele>2055</ele>
        <time>2013-05-04T07:24:16Z</time>
      </trkpt>
      <trkpt lat="42.87884" lon="0.10773">
        <ele>2054</ele>
        <time>2013-05-04T07:24:39Z</time>
      </trkpt>
      <trkpt lat="42.87884" lon="0.10772">
        <ele>2054</ele>
        <time>2013-05-04T07:24:57Z</time>
      </trkpt>
      <trkpt lat="42.87883" lon="0.10771">
        <ele>2053</ele>
        <time>2013-05-04T07:25:21Z</time>
      </trkpt>
      <trkpt lat="42.87884" lon="0.10771">
        <ele>2057</ele>
        <time>2013-05-04T07:25:22Z</time>
      </trkpt>
      <trkpt lat="42.87885" lon="0.10773">
        <ele>2056</ele>
        <time>2013-05-04T07:25:28Z</time>
      </trkpt>
      <trkpt lat="42.87885" lon="0.10773">
        <ele>2056</ele>
        <time>2013-05-04T07:25:37Z</time>
      </trkpt>
      <trkpt lat="42.87885" lon="0.10773">
        <ele>2056</ele>
        <time>2013-05-04T07:25:45Z</time>
      </trkpt>
      <trkpt lat="42.87885" lon="0.10773">
        <ele>2056</ele>
        <time>2013-05-04T07:25:53Z</time>
      </trkpt>
      <trkpt lat="42.87884" lon="0.10774">
        <ele>2053</ele>
        <time>2013-05-04T07:26:00Z</time>
      </trkpt>
      <trkpt lat="42.87885" lon="0.10775">
        <ele>2057</ele>
        <time>2013-05-04T07:26:01Z</time>
      </trkpt>
      <trkpt lat="42.87886" lon="0.10773">
        <ele>2055</ele>
        <time>2013-05-04T07:26:12Z</time>
      </trkpt>
      <trkpt lat="42.87885" lon="0.10771">
        <ele>2056</ele>
        <time>2013-05-04T07:26:20Z</time>
      </trkpt>
      <trkpt lat="42.87883" lon="0.10777">
        <ele>2055</ele>
        <time>2013-05-04T07:26:39Z</time>
      </trkpt>
      <trkpt lat="42.87882" lon="0.10771">
        <ele>2055</ele>
        <time>2013-05-04T07:26:53Z</time>
      </trkpt>
      <trkpt lat="42.87883" lon="0.10769">
        <ele>2055</ele>
        <time>2013-05-04T07:27:07Z</time>
      </trkpt>
      <trkpt lat="42.87885" lon="0.10769">
        <ele>2056</ele>
        <time>2013-05-04T07:27:17Z</time>
      </trkpt>
      <trkpt lat="42.87884" lon="0.10768">
        <ele>2055</ele>
        <time>2013-05-04T07:27:20Z</time>
      </trkpt>
      <trkpt lat="42.87883" lon="0.10769">
        <ele>2056</ele>
        <time>2013-05-04T07:27:31Z</time>
      </trkpt>
      <trkpt lat="42.87882" lon="0.10765">
        <ele>2055</ele>
        <time>2013-05-04T07:27:40Z</time>
      </trkpt>
      <trkpt lat="42.87881" lon="0.10755">
        <ele>2054</ele>
        <time>2013-05-04T07:27:45Z</time>
      </trkpt>
      <trkpt lat="42.87879" lon="0.10738">
        <ele>2053</ele>
        <time>2013-05-04T07:27:53Z</time>
      </trkpt>
      <trkpt lat="42.87879" lon="0.10733">
        <ele>2053</ele>
        <time>2013-05-04T07:27:56Z</time>
      </trkpt>
      <trkpt lat="42.8788" lon="0.10723">
        <ele>2052</ele>
        <time>2013-05-04T07:28:02Z</time>
      </trkpt>
      <trkpt lat="42.87881" lon="0.10712">
        <ele>2053</ele>
        <time>2013-05-04T07:28:10Z</time>
      </trkpt>
      <trkpt lat="42.87881" lon="0.10715">
        <ele>2053</ele>
        <time>2013-05-04T07:28:16Z</time>
      </trkpt>
      <trkpt lat="42.87881" lon="0.10708">
        <ele>2053</ele>
        <time>2013-05-04T07:28:22Z</time>
      </trkpt>
      <trkpt lat="42.87883" lon="0.10693">
        <ele>2053</ele>
        <time>2013-05-04T07:28:30Z</time>
      </trkpt>
      <trkpt lat="42.87884" lon="0.10684">
        <ele>2053</ele>
        <time>2013-05-04T07:28:34Z</time>
      </trkpt>
      <trkpt lat="42.87884" lon="0.10679">
        <ele>2053</ele>
        <time>2013-05-04T07:28:38Z</time>
      </trkpt>
      <trkpt lat="42.87886" lon="0.10673">
        <ele>2054</ele>
        <time>2013-05-04T07:28:43Z</time>
      </trkpt>
      <trkpt lat="42.87889" lon="0.10664">
        <ele>2055</ele>
        <time>2013-05-04T07:28:51Z</time>
      </trkpt>
      <trkpt lat="42.8789" lon="0.10656">
        <ele>2056</ele>
        <time>2013-05-04T07:28:59Z</time>
      </trkpt>
      <trkpt lat="42.87885" lon="0.10656">
        <ele>2057</ele>
        <time>2013-05-04T07:29:04Z</time>
      </trkpt>
      <trkpt lat="42.87876" lon="0.10657">
        <ele>2059</ele>
        <time>2013-05-04T07:29:12Z</time>
      </trkpt>
      <trkpt lat="42.8787" lon="0.10655">
        <ele>2060</ele>
        <time>2013-05-04T07:29:19Z</time>
      </trkpt>
      <trkpt lat="42.87866" lon="0.1065">
        <ele>2059</ele>
        <time>2013-05-04T07:29:25Z</time>
      </trkpt>
      <trkpt lat="42.87865" lon="0.10646">
        <ele>2060</ele>
        <time>2013-05-04T07:29:29Z</time>
      </trkpt>
      <trkpt lat="42.87862" lon="0.10632">
        <ele>2061</ele>
        <time>2013-05-04T07:29:39Z</time>
      </trkpt>
      <trkpt lat="42.87862" lon="0.10631">
        <ele>2061</ele>
        <time>2013-05-04T07:29:46Z</time>
      </trkpt>
      <trkpt lat="42.87862" lon="0.10631">
        <ele>2061</ele>
        <time>2013-05-04T07:29:57Z</time>
      </trkpt>
      <trkpt lat="42.87859" lon="0.10626">
        <ele>2061</ele>
        <time>2013-05-04T07:30:04Z</time>
      </trkpt>
      <trkpt lat="42.87857" lon="0.10617">
        <ele>2062</ele>
        <time>2013-05-04T07:30:12Z</time>
      </trkpt>
      <trkpt lat="42.87855" lon="0.10613">
        <ele>2064</ele>
        <time>2013-05-04T07:30:18Z</time>
      </trkpt>
      <trkpt lat="42.87853" lon="0.1061">
        <ele>2066</ele>
        <time>2013-05-04T07:30:25Z</time>
      </trkpt>
      <trkpt lat="42.87855" lon="0.10599">
        <ele>2067</ele>
        <time>2013-05-04T07:30:34Z</time>
      </trkpt>
      <trkpt lat="42.87851" lon="0.10592">
        <ele>2069</ele>
        <time>2013-05-04T07:30:41Z</time>
      </trkpt>
      <trkpt lat="42.87848" lon="0.10583">
        <ele>2070</ele>
        <time>2013-05-04T07:30:51Z</time>
      </trkpt>
      <trkpt lat="42.87845" lon="0.10579">
        <ele>2072</ele>
        <time>2013-05-04T07:30:57Z</time>
      </trkpt>
      <trkpt lat="42.8784" lon="0.1057">
        <ele>2074</ele>
        <time>2013-05-04T07:31:08Z</time>
      </trkpt>
      <trkpt lat="42.87835" lon="0.10563">
        <ele>2076</ele>
        <time>2013-05-04T07:31:17Z</time>
      </trkpt>
      <trkpt lat="42.87831" lon="0.10559">
        <ele>2077</ele>
        <time>2013-05-04T07:31:25Z</time>
      </trkpt>
      <trkpt lat="42.87826" lon="0.10559">
        <ele>2079</ele>
        <time>2013-05-04T07:31:34Z</time>
      </trkpt>
      <trkpt lat="42.8782" lon="0.10559">
        <ele>2080</ele>
        <time>2013-05-04T07:31:43Z</time>
      </trkpt>
      <trkpt lat="42.87814" lon="0.10559">
        <ele>2082</ele>
        <time>2013-05-04T07:31:52Z</time>
      </trkpt>
      <trkpt lat="42.87814" lon="0.10552">
        <ele>2084</ele>
        <time>2013-05-04T07:31:59Z</time>
      </trkpt>
      <trkpt lat="42.87815" lon="0.10551">
        <ele>2084</ele>
        <time>2013-05-04T07:32:07Z</time>
      </trkpt>
      <trkpt lat="42.87816" lon="0.10552">
        <ele>2084</ele>
        <time>2013-05-04T07:32:22Z</time>
      </trkpt>
      <trkpt lat="42.87817" lon="0.10546">
        <ele>2084</ele>
        <time>2013-05-04T07:32:30Z</time>
      </trkpt>
      <trkpt lat="42.8782" lon="0.10539">
        <ele>2086</ele>
        <time>2013-05-04T07:32:37Z</time>
      </trkpt>
      <trkpt lat="42.87822" lon="0.10531">
        <ele>2087</ele>
        <time>2013-05-04T07:32:46Z</time>
      </trkpt>
      <trkpt lat="42.87822" lon="0.10529">
        <ele>2088</ele>
        <time>2013-05-04T07:32:47Z</time>
      </trkpt>
      <trkpt lat="42.87818" lon="0.10525">
        <ele>2090</ele>
        <time>2013-05-04T07:32:54Z</time>
      </trkpt>
      <trkpt lat="42.87817" lon="0.10525">
        <ele>2090</ele>
        <time>2013-05-04T07:32:55Z</time>
      </trkpt>
      <trkpt lat="42.87811" lon="0.10527">
        <ele>2091</ele>
        <time>2013-05-04T07:33:03Z</time>
      </trkpt>
      <trkpt lat="42.87803" lon="0.10532">
        <ele>2092</ele>
        <time>2013-05-04T07:33:14Z</time>
      </trkpt>
      <trkpt lat="42.87802" lon="0.10532">
        <ele>2094</ele>
        <time>2013-05-04T07:33:21Z</time>
      </trkpt>
      <trkpt lat="42.87803" lon="0.10521">
        <ele>2095</ele>
        <time>2013-05-04T07:33:31Z</time>
      </trkpt>
      <trkpt lat="42.87804" lon="0.10515">
        <ele>2096</ele>
        <time>2013-05-04T07:33:39Z</time>
      </trkpt>
      <trkpt lat="42.87804" lon="0.10508">
        <ele>2098</ele>
        <time>2013-05-04T07:33:46Z</time>
      </trkpt>
      <trkpt lat="42.87806" lon="0.10496">
        <ele>2098</ele>
        <time>2013-05-04T07:33:56Z</time>
      </trkpt>
      <trkpt lat="42.87809" lon="0.10491">
        <ele>2100</ele>
        <time>2013-05-04T07:34:04Z</time>
      </trkpt>
      <trkpt lat="42.87813" lon="0.10486">
        <ele>2101</ele>
        <time>2013-05-04T07:34:12Z</time>
      </trkpt>
      <trkpt lat="42.87818" lon="0.10481">
        <ele>2102</ele>
        <time>2013-05-04T07:34:20Z</time>
      </trkpt>
      <trkpt lat="42.87814" lon="0.10477">
        <ele>2103</ele>
        <time>2013-05-04T07:34:28Z</time>
      </trkpt>
      <trkpt lat="42.87805" lon="0.10478">
        <ele>2105</ele>
        <time>2013-05-04T07:34:38Z</time>
      </trkpt>
      <trkpt lat="42.878" lon="0.10481">
        <ele>2107</ele>
        <time>2013-05-04T07:34:49Z</time>
      </trkpt>
      <trkpt lat="42.87797" lon="0.10482">
        <ele>2108</ele>
        <time>2013-05-04T07:34:58Z</time>
      </trkpt>
      <trkpt lat="42.8779" lon="0.10483">
        <ele>2110</ele>
        <time>2013-05-04T07:35:07Z</time>
      </trkpt>
      <trkpt lat="42.87781" lon="0.10488">
        <ele>2111</ele>
        <time>2013-05-04T07:35:18Z</time>
      </trkpt>
      <trkpt lat="42.87776" lon="0.10495">
        <ele>2113</ele>
        <time>2013-05-04T07:35:28Z</time>
      </trkpt>
      <trkpt lat="42.87774" lon="0.10502">
        <ele>2114</ele>
        <time>2013-05-04T07:35:35Z</time>
      </trkpt>
      <trkpt lat="42.87774" lon="0.10504">
        <ele>2115</ele>
        <time>2013-05-04T07:35:43Z</time>
      </trkpt>
      <trkpt lat="42.87775" lon="0.10495">
        <ele>2116</ele>
        <time>2013-05-04T07:35:53Z</time>
      </trkpt>
      <trkpt lat="42.8777" lon="0.10488">
        <ele>2117</ele>
        <time>2013-05-04T07:36:01Z</time>
      </trkpt>
      <trkpt lat="42.87764" lon="0.10476">
        <ele>2119</ele>
        <time>2013-05-04T07:36:12Z</time>
      </trkpt>
      <trkpt lat="42.87764" lon="0.1047">
        <ele>2119</ele>
        <time>2013-05-04T07:36:15Z</time>
      </trkpt>
      <trkpt lat="42.87761" lon="0.10464">
        <ele>2120</ele>
        <time>2013-05-04T07:36:22Z</time>
      </trkpt>
      <trkpt lat="42.8776" lon="0.10453">
        <ele>2121</ele>
        <time>2013-05-04T07:36:32Z</time>
      </trkpt>
      <trkpt lat="42.8776" lon="0.10444">
        <ele>2124</ele>
        <time>2013-05-04T07:36:41Z</time>
      </trkpt>
      <trkpt lat="42.87762" lon="0.10435">
        <ele>2125</ele>
        <time>2013-05-04T07:36:50Z</time>
      </trkpt>
      <trkpt lat="42.87763" lon="0.10426">
        <ele>2127</ele>
        <time>2013-05-04T07:36:59Z</time>
      </trkpt>
      <trkpt lat="42.87761" lon="0.10418">
        <ele>2128</ele>
        <time>2013-05-04T07:37:09Z</time>
      </trkpt>
      <trkpt lat="42.87759" lon="0.10421">
        <ele>2128</ele>
        <time>2013-05-04T07:37:18Z</time>
      </trkpt>
      <trkpt lat="42.87754" lon="0.10428">
        <ele>2129</ele>
        <time>2013-05-04T07:37:27Z</time>
      </trkpt>
      <trkpt lat="42.87749" lon="0.10432">
        <ele>2131</ele>
        <time>2013-05-04T07:37:35Z</time>
      </trkpt>
      <trkpt lat="42.87743" lon="0.10437">
        <ele>2132</ele>
        <time>2013-05-04T07:37:45Z</time>
      </trkpt>
      <trkpt lat="42.87739" lon="0.10442">
        <ele>2135</ele>
        <time>2013-05-04T07:37:54Z</time>
      </trkpt>
      <trkpt lat="42.87739" lon="0.10446">
        <ele>2135</ele>
        <time>2013-05-04T07:38:01Z</time>
      </trkpt>
      <trkpt lat="42.87739" lon="0.10441">
        <ele>2136</ele>
        <time>2013-05-04T07:38:10Z</time>
      </trkpt>
      <trkpt lat="42.87739" lon="0.10432">
        <ele>2138</ele>
        <time>2013-05-04T07:38:20Z</time>
      </trkpt>
      <trkpt lat="42.87738" lon="0.10422">
        <ele>2139</ele>
        <time>2013-05-04T07:38:29Z</time>
      </trkpt>
      <trkpt lat="42.87738" lon="0.10415">
        <ele>2140</ele>
        <time>2013-05-04T07:38:37Z</time>
      </trkpt>
      <trkpt lat="42.87736" lon="0.10406">
        <ele>2142</ele>
        <time>2013-05-04T07:38:47Z</time>
      </trkpt>
      <trkpt lat="42.87733" lon="0.104">
        <ele>2143</ele>
        <time>2013-05-04T07:38:55Z</time>
      </trkpt>
      <trkpt lat="42.87733" lon="0.10404">
        <ele>2143</ele>
        <time>2013-05-04T07:39:03Z</time>
      </trkpt>
      <trkpt lat="42.87731" lon="0.10412">
        <ele>2144</ele>
        <time>2013-05-04T07:39:11Z</time>
      </trkpt>
      <trkpt lat="42.87726" lon="0.10416">
        <ele>2146</ele>
        <time>2013-05-04T07:39:20Z</time>
      </trkpt>
      <trkpt lat="42.87723" lon="0.10425">
        <ele>2147</ele>
        <time>2013-05-04T07:39:30Z</time>
      </trkpt>
      <trkpt lat="42.87717" lon="0.10431">
        <ele>2148</ele>
        <time>2013-05-04T07:39:41Z</time>
      </trkpt>
      <trkpt lat="42.87714" lon="0.10435">
        <ele>2150</ele>
        <time>2013-05-04T07:39:48Z</time>
      </trkpt>
      <trkpt lat="42.87708" lon="0.10437">
        <ele>2151</ele>
        <time>2013-05-04T07:39:55Z</time>
      </trkpt>
      <trkpt lat="42.87704" lon="0.10434">
        <ele>2153</ele>
        <time>2013-05-04T07:40:03Z</time>
      </trkpt>
      <trkpt lat="42.87704" lon="0.10433">
        <ele>2153</ele>
        <time>2013-05-04T07:40:04Z</time>
      </trkpt>
      <trkpt lat="42.87699" lon="0.1043">
        <ele>2154</ele>
        <time>2013-05-04T07:40:12Z</time>
      </trkpt>
      <trkpt lat="42.87694" lon="0.10429">
        <ele>2156</ele>
        <time>2013-05-04T07:40:21Z</time>
      </trkpt>
      <trkpt lat="42.87689" lon="0.10425">
        <ele>2158</ele>
        <time>2013-05-04T07:40:30Z</time>
      </trkpt>
      <trkpt lat="42.87686" lon="0.10423">
        <ele>2159</ele>
        <time>2013-05-04T07:40:37Z</time>
      </trkpt>
      <trkpt lat="42.87681" lon="0.1042">
        <ele>2159</ele>
        <time>2013-05-04T07:40:44Z</time>
      </trkpt>
      <trkpt lat="42.87677" lon="0.10419">
        <ele>2162</ele>
        <time>2013-05-04T07:40:50Z</time>
      </trkpt>
      <trkpt lat="42.87674" lon="0.10417">
        <ele>2163</ele>
        <time>2013-05-04T07:40:56Z</time>
      </trkpt>
      <trkpt lat="42.87671" lon="0.10411">
        <ele>2164</ele>
        <time>2013-05-04T07:41:03Z</time>
      </trkpt>
      <trkpt lat="42.87667" lon="0.10408">
        <ele>2165</ele>
        <time>2013-05-04T07:41:10Z</time>
      </trkpt>
      <trkpt lat="42.87667" lon="0.10404">
        <ele>2166</ele>
        <time>2013-05-04T07:41:14Z</time>
      </trkpt>
      <trkpt lat="42.87665" lon="0.10397">
        <ele>2167</ele>
        <time>2013-05-04T07:41:21Z</time>
      </trkpt>
      <trkpt lat="42.87664" lon="0.10397">
        <ele>2167</ele>
        <time>2013-05-04T07:41:30Z</time>
      </trkpt>
      <trkpt lat="42.87662" lon="0.10394">
        <ele>2168</ele>
        <time>2013-05-04T07:41:38Z</time>
      </trkpt>
      <trkpt lat="42.87667" lon="0.10391">
        <ele>2169</ele>
        <time>2013-05-04T07:41:46Z</time>
      </trkpt>
      <trkpt lat="42.87666" lon="0.10386">
        <ele>2171</ele>
        <time>2013-05-04T07:41:55Z</time>
      </trkpt>
      <trkpt lat="42.87662" lon="0.1038">
        <ele>2173</ele>
        <time>2013-05-04T07:42:02Z</time>
      </trkpt>
      <trkpt lat="42.87652" lon="0.10373">
        <ele>2174</ele>
        <time>2013-05-04T07:42:12Z</time>
      </trkpt>
      <trkpt lat="42.87647" lon="0.1037">
        <ele>2176</ele>
        <time>2013-05-04T07:42:21Z</time>
      </trkpt>
      <trkpt lat="42.87644" lon="0.10367">
        <ele>2177</ele>
        <time>2013-05-04T07:42:29Z</time>
      </trkpt>
      <trkpt lat="42.87642" lon="0.10366">
        <ele>2178</ele>
        <time>2013-05-04T07:42:31Z</time>
      </trkpt>
      <trkpt lat="42.87636" lon="0.10364">
        <ele>2179</ele>
        <time>2013-05-04T07:42:40Z</time>
      </trkpt>
      <trkpt lat="42.87633" lon="0.10361">
        <ele>2180</ele>
        <time>2013-05-04T07:42:47Z</time>
      </trkpt>
      <trkpt lat="42.87628" lon="0.10354">
        <ele>2182</ele>
        <time>2013-05-04T07:42:56Z</time>
      </trkpt>
      <trkpt lat="42.87624" lon="0.1035">
        <ele>2183</ele>
        <time>2013-05-04T07:43:03Z</time>
      </trkpt>
      <trkpt lat="42.87618" lon="0.10347">
        <ele>2185</ele>
        <time>2013-05-04T07:43:12Z</time>
      </trkpt>
      <trkpt lat="42.87614" lon="0.10342">
        <ele>2187</ele>
        <time>2013-05-04T07:43:21Z</time>
      </trkpt>
      <trkpt lat="42.87609" lon="0.10336">
        <ele>2189</ele>
        <time>2013-05-04T07:43:31Z</time>
      </trkpt>
      <trkpt lat="42.87603" lon="0.10333">
        <ele>2190</ele>
        <time>2013-05-04T07:43:39Z</time>
      </trkpt>
      <trkpt lat="42.87596" lon="0.10328">
        <ele>2191</ele>
        <time>2013-05-04T07:43:49Z</time>
      </trkpt>
      <trkpt lat="42.8759" lon="0.10324">
        <ele>2194</ele>
        <time>2013-05-04T07:43:57Z</time>
      </trkpt>
      <trkpt lat="42.87587" lon="0.10323">
        <ele>2195</ele>
        <time>2013-05-04T07:44:04Z</time>
      </trkpt>
      <trkpt lat="42.87585" lon="0.10324">
        <ele>2195</ele>
        <time>2013-05-04T07:44:11Z</time>
      </trkpt>
      <trkpt lat="42.87584" lon="0.10321">
        <ele>2197</ele>
        <time>2013-05-04T07:44:23Z</time>
      </trkpt>
      <trkpt lat="42.87579" lon="0.10319">
        <ele>2199</ele>
        <time>2013-05-04T07:44:31Z</time>
      </trkpt>
      <trkpt lat="42.87573" lon="0.10317">
        <ele>2200</ele>
        <time>2013-05-04T07:44:38Z</time>
      </trkpt>
      <trkpt lat="42.87568" lon="0.10316">
        <ele>2202</ele>
        <time>2013-05-04T07:44:46Z</time>
      </trkpt>
      <trkpt lat="42.87565" lon="0.10315">
        <ele>2202</ele>
        <time>2013-05-04T07:44:49Z</time>
      </trkpt>
      <trkpt lat="42.87557" lon="0.10309">
        <ele>2203</ele>
        <time>2013-05-04T07:44:58Z</time>
      </trkpt>
      <trkpt lat="42.87551" lon="0.10304">
        <ele>2204</ele>
        <time>2013-05-04T07:45:08Z</time>
      </trkpt>
      <trkpt lat="42.87547" lon="0.10299">
        <ele>2206</ele>
        <time>2013-05-04T07:45:15Z</time>
      </trkpt>
      <trkpt lat="42.87544" lon="0.10294">
        <ele>2207</ele>
        <time>2013-05-04T07:45:23Z</time>
      </trkpt>
      <trkpt lat="42.8754" lon="0.1029">
        <ele>2209</ele>
        <time>2013-05-04T07:45:30Z</time>
      </trkpt>
      <trkpt lat="42.87536" lon="0.10283">
        <ele>2210</ele>
        <time>2013-05-04T07:45:40Z</time>
      </trkpt>
      <trkpt lat="42.87533" lon="0.10276">
        <ele>2212</ele>
        <time>2013-05-04T07:45:50Z</time>
      </trkpt>
      <trkpt lat="42.87533" lon="0.10275">
        <ele>2213</ele>
        <time>2013-05-04T07:45:51Z</time>
      </trkpt>
      <trkpt lat="42.8753" lon="0.10267">
        <ele>2214</ele>
        <time>2013-05-04T07:45:58Z</time>
      </trkpt>
      <trkpt lat="42.87525" lon="0.10263">
        <ele>2214</ele>
        <time>2013-05-04T07:46:07Z</time>
      </trkpt>
      <trkpt lat="42.87521" lon="0.10257">
        <ele>2215</ele>
        <time>2013-05-04T07:46:16Z</time>
      </trkpt>
      <trkpt lat="42.8752" lon="0.10254">
        <ele>2215</ele>
        <time>2013-05-04T07:46:23Z</time>
      </trkpt>
      <trkpt lat="42.8752" lon="0.10253">
        <ele>2216</ele>
        <time>2013-05-04T07:46:24Z</time>
      </trkpt>
      <trkpt lat="42.87522" lon="0.10244">
        <ele>2216</ele>
        <time>2013-05-04T07:46:32Z</time>
      </trkpt>
      <trkpt lat="42.87524" lon="0.10243">
        <ele>2215</ele>
        <time>2013-05-04T07:46:40Z</time>
      </trkpt>
      <trkpt lat="42.87523" lon="0.10244">
        <ele>2215</ele>
        <time>2013-05-04T07:46:49Z</time>
      </trkpt>
      <trkpt lat="42.87525" lon="0.10241">
        <ele>2216</ele>
        <time>2013-05-04T07:47:11Z</time>
      </trkpt>
      <trkpt lat="42.87525" lon="0.10242">
        <ele>2215</ele>
        <time>2013-05-04T07:47:32Z</time>
      </trkpt>
      <trkpt lat="42.87524" lon="0.10242">
        <ele>2215</ele>
        <time>2013-05-04T07:47:47Z</time>
      </trkpt>
      <trkpt lat="42.87525" lon="0.10242">
        <ele>2215</ele>
        <time>2013-05-04T07:48:09Z</time>
      </trkpt>
      <trkpt lat="42.87525" lon="0.1024">
        <ele>2215</ele>
        <time>2013-05-04T07:48:20Z</time>
      </trkpt>
      <trkpt lat="42.87522" lon="0.10237">
        <ele>2215</ele>
        <time>2013-05-04T07:48:25Z</time>
      </trkpt>
      <trkpt lat="42.8752" lon="0.10237">
        <ele>2216</ele>
        <time>2013-05-04T07:48:30Z</time>
      </trkpt>
      <trkpt lat="42.87519" lon="0.10238">
        <ele>2215</ele>
        <time>2013-05-04T07:48:39Z</time>
      </trkpt>
      <trkpt lat="42.87519" lon="0.10237">
        <ele>2216</ele>
        <time>2013-05-04T07:48:46Z</time>
      </trkpt>
      <trkpt lat="42.87517" lon="0.1024">
        <ele>2215</ele>
        <time>2013-05-04T07:49:00Z</time>
      </trkpt>
      <trkpt lat="42.8752" lon="0.1024">
        <ele>2215</ele>
        <time>2013-05-04T07:49:11Z</time>
      </trkpt>
      <trkpt lat="42.87519" lon="0.10241">
        <ele>2216</ele>
        <time>2013-05-04T07:49:25Z</time>
      </trkpt>
      <trkpt lat="42.8752" lon="0.10242">
        <ele>2215</ele>
        <time>2013-05-04T07:49:42Z</time>
      </trkpt>
      <trkpt lat="42.87519" lon="0.10241">
        <ele>2216</ele>
        <time>2013-05-04T07:49:59Z</time>
      </trkpt>
      <trkpt lat="42.8752" lon="0.10242">
        <ele>2216</ele>
        <time>2013-05-04T07:50:15Z</time>
      </trkpt>
      <trkpt lat="42.87519" lon="0.10239">
        <ele>2215</ele>
        <time>2013-05-04T07:50:34Z</time>
      </trkpt>
      <trkpt lat="42.87515" lon="0.10235">
        <ele>2215</ele>
        <time>2013-05-04T07:50:45Z</time>
      </trkpt>
      <trkpt lat="42.87509" lon="0.10231">
        <ele>2216</ele>
        <time>2013-05-04T07:50:53Z</time>
      </trkpt>
      <trkpt lat="42.87504" lon="0.10226">
        <ele>2217</ele>
        <time>2013-05-04T07:51:01Z</time>
      </trkpt>
      <trkpt lat="42.87497" lon="0.10223">
        <ele>2218</ele>
        <time>2013-05-04T07:51:11Z</time>
      </trkpt>
      <trkpt lat="42.87494" lon="0.10218">
        <ele>2219</ele>
        <time>2013-05-04T07:51:17Z</time>
      </trkpt>
      <trkpt lat="42.8749" lon="0.10212">
        <ele>2220</ele>
        <time>2013-05-04T07:51:24Z</time>
      </trkpt>
      <trkpt lat="42.87488" lon="0.10209">
        <ele>2220</ele>
        <time>2013-05-04T07:51:27Z</time>
      </trkpt>
      <trkpt lat="42.87485" lon="0.10208">
        <ele>2220</ele>
        <time>2013-05-04T07:51:35Z</time>
      </trkpt>
      <trkpt lat="42.87485" lon="0.10209">
        <ele>2220</ele>
        <time>2013-05-04T07:51:51Z</time>
      </trkpt>
      <trkpt lat="42.87484" lon="0.10207">
        <ele>2220</ele>
        <time>2013-05-04T07:51:59Z</time>
      </trkpt>
      <trkpt lat="42.87482" lon="0.10212">
        <ele>2220</ele>
        <time>2013-05-04T07:52:06Z</time>
      </trkpt>
      <trkpt lat="42.87482" lon="0.10209">
        <ele>2220</ele>
        <time>2013-05-04T07:52:14Z</time>
      </trkpt>
      <trkpt lat="42.8748" lon="0.10204">
        <ele>2220</ele>
        <time>2013-05-04T07:52:21Z</time>
      </trkpt>
      <trkpt lat="42.87474" lon="0.10196">
        <ele>2222</ele>
        <time>2013-05-04T07:52:29Z</time>
      </trkpt>
      <trkpt lat="42.8747" lon="0.10188">
        <ele>2223</ele>
        <time>2013-05-04T07:52:36Z</time>
      </trkpt>
      <trkpt lat="42.87466" lon="0.1018">
        <ele>2224</ele>
        <time>2013-05-04T07:52:44Z</time>
      </trkpt>
      <trkpt lat="42.87462" lon="0.10176">
        <ele>2225</ele>
        <time>2013-05-04T07:52:51Z</time>
      </trkpt>
      <trkpt lat="42.8746" lon="0.10173">
        <ele>2226</ele>
        <time>2013-05-04T07:52:59Z</time>
      </trkpt>
      <trkpt lat="42.87456" lon="0.10167">
        <ele>2227</ele>
        <time>2013-05-04T07:53:07Z</time>
      </trkpt>
      <trkpt lat="42.87453" lon="0.10168">
        <ele>2228</ele>
        <time>2013-05-04T07:53:11Z</time>
      </trkpt>
      <trkpt lat="42.87447" lon="0.10178">
        <ele>2229</ele>
        <time>2013-05-04T07:53:22Z</time>
      </trkpt>
      <trkpt lat="42.87443" lon="0.10187">
        <ele>2231</ele>
        <time>2013-05-04T07:53:31Z</time>
      </trkpt>
      <trkpt lat="42.8744" lon="0.10194">
        <ele>2232</ele>
        <time>2013-05-04T07:53:40Z</time>
      </trkpt>
      <trkpt lat="42.87435" lon="0.10199">
        <ele>2234</ele>
        <time>2013-05-04T07:53:50Z</time>
      </trkpt>
      <trkpt lat="42.87433" lon="0.10201">
        <ele>2234</ele>
        <time>2013-05-04T07:53:59Z</time>
      </trkpt>
      <trkpt lat="42.87435" lon="0.10191">
        <ele>2235</ele>
        <time>2013-05-04T07:54:07Z</time>
      </trkpt>
      <trkpt lat="42.87433" lon="0.10186">
        <ele>2237</ele>
        <time>2013-05-04T07:54:17Z</time>
      </trkpt>
      <trkpt lat="42.87431" lon="0.10176">
        <ele>2238</ele>
        <time>2013-05-04T07:54:26Z</time>
      </trkpt>
      <trkpt lat="42.87431" lon="0.10172">
        <ele>2238</ele>
        <time>2013-05-04T07:54:29Z</time>
      </trkpt>
      <trkpt lat="42.8743" lon="0.10164">
        <ele>2240</ele>
        <time>2013-05-04T07:54:38Z</time>
      </trkpt>
      <trkpt lat="42.87429" lon="0.10154">
        <ele>2240</ele>
        <time>2013-05-04T07:54:46Z</time>
      </trkpt>
      <trkpt lat="42.87427" lon="0.10144">
        <ele>2243</ele>
        <time>2013-05-04T07:54:57Z</time>
      </trkpt>
      <trkpt lat="42.87428" lon="0.10134">
        <ele>2245</ele>
        <time>2013-05-04T07:55:06Z</time>
      </trkpt>
      <trkpt lat="42.87428" lon="0.10125">
        <ele>2246</ele>
        <time>2013-05-04T07:55:16Z</time>
      </trkpt>
      <trkpt lat="42.87425" lon="0.10122">
        <ele>2247</ele>
        <time>2013-05-04T07:55:26Z</time>
      </trkpt>
      <trkpt lat="42.87422" lon="0.10127">
        <ele>2248</ele>
        <time>2013-05-04T07:55:33Z</time>
      </trkpt>
      <trkpt lat="42.87419" lon="0.10133">
        <ele>2249</ele>
        <time>2013-05-04T07:55:43Z</time>
      </trkpt>
      <trkpt lat="42.87414" lon="0.10142">
        <ele>2250</ele>
        <time>2013-05-04T07:55:54Z</time>
      </trkpt>
      <trkpt lat="42.87412" lon="0.10149">
        <ele>2251</ele>
        <time>2013-05-04T07:56:01Z</time>
      </trkpt>
      <trkpt lat="42.8741" lon="0.10157">
        <ele>2253</ele>
        <time>2013-05-04T07:56:09Z</time>
      </trkpt>
      <trkpt lat="42.87409" lon="0.10154">
        <ele>2253</ele>
        <time>2013-05-04T07:56:16Z</time>
      </trkpt>
      <trkpt lat="42.8741" lon="0.10147">
        <ele>2253</ele>
        <time>2013-05-04T07:56:23Z</time>
      </trkpt>
      <trkpt lat="42.87411" lon="0.10136">
        <ele>2256</ele>
        <time>2013-05-04T07:56:34Z</time>
      </trkpt>
      <trkpt lat="42.87411" lon="0.10128">
        <ele>2257</ele>
        <time>2013-05-04T07:56:44Z</time>
      </trkpt>
      <trkpt lat="42.87411" lon="0.1012">
        <ele>2258</ele>
        <time>2013-05-04T07:56:53Z</time>
      </trkpt>
      <trkpt lat="42.87411" lon="0.10109">
        <ele>2260</ele>
        <time>2013-05-04T07:57:03Z</time>
      </trkpt>
      <trkpt lat="42.87411" lon="0.1011">
        <ele>2260</ele>
        <time>2013-05-04T07:57:12Z</time>
      </trkpt>
      <trkpt lat="42.8741" lon="0.10106">
        <ele>2260</ele>
        <time>2013-05-04T07:57:22Z</time>
      </trkpt>
      <trkpt lat="42.87411" lon="0.10107">
        <ele>2260</ele>
        <time>2013-05-04T07:57:35Z</time>
      </trkpt>
      <trkpt lat="42.87411" lon="0.10104">
        <ele>2260</ele>
        <time>2013-05-04T07:57:45Z</time>
      </trkpt>
      <trkpt lat="42.8741" lon="0.10102">
        <ele>2260</ele>
        <time>2013-05-04T07:58:04Z</time>
      </trkpt>
      <trkpt lat="42.87409" lon="0.10105">
        <ele>2260</ele>
        <time>2013-05-04T07:58:12Z</time>
      </trkpt>
      <trkpt lat="42.8741" lon="0.10105">
        <ele>2261</ele>
        <time>2013-05-04T07:58:30Z</time>
      </trkpt>
      <trkpt lat="42.87409" lon="0.1011">
        <ele>2261</ele>
        <time>2013-05-04T07:58:43Z</time>
      </trkpt>
      <trkpt lat="42.87406" lon="0.10119">
        <ele>2262</ele>
        <time>2013-05-04T07:58:51Z</time>
      </trkpt>
      <trkpt lat="42.87402" lon="0.10124">
        <ele>2264</ele>
        <time>2013-05-04T07:58:59Z</time>
      </trkpt>
      <trkpt lat="42.87398" lon="0.10129">
        <ele>2265</ele>
        <time>2013-05-04T07:59:07Z</time>
      </trkpt>
      <trkpt lat="42.87395" lon="0.10137">
        <ele>2266</ele>
        <time>2013-05-04T07:59:17Z</time>
      </trkpt>
      <trkpt lat="42.87391" lon="0.10144">
        <ele>2268</ele>
        <time>2013-05-04T07:59:26Z</time>
      </trkpt>
      <trkpt lat="42.87389" lon="0.10152">
        <ele>2269</ele>
        <time>2013-05-04T07:59:36Z</time>
      </trkpt>
      <trkpt lat="42.87387" lon="0.10152">
        <ele>2270</ele>
        <time>2013-05-04T07:59:44Z</time>
      </trkpt>
      <trkpt lat="42.87388" lon="0.10147">
        <ele>2270</ele>
        <time>2013-05-04T07:59:51Z</time>
      </trkpt>
      <trkpt lat="42.87389" lon="0.10139">
        <ele>2271</ele>
        <time>2013-05-04T08:00:00Z</time>
      </trkpt>
      <trkpt lat="42.87389" lon="0.10131">
        <ele>2273</ele>
        <time>2013-05-04T08:00:10Z</time>
      </trkpt>
      <trkpt lat="42.87387" lon="0.10136">
        <ele>2273</ele>
        <time>2013-05-04T08:00:20Z</time>
      </trkpt>
      <trkpt lat="42.87384" lon="0.10141">
        <ele>2274</ele>
        <time>2013-05-04T08:00:29Z</time>
      </trkpt>
      <trkpt lat="42.87381" lon="0.10146">
        <ele>2276</ele>
        <time>2013-05-04T08:00:38Z</time>
      </trkpt>
      <trkpt lat="42.87378" lon="0.10154">
        <ele>2277</ele>
        <time>2013-05-04T08:00:48Z</time>
      </trkpt>
      <trkpt lat="42.87379" lon="0.10151">
        <ele>2278</ele>
        <time>2013-05-04T08:00:56Z</time>
      </trkpt>
      <trkpt lat="42.87379" lon="0.10151">
        <ele>2278</ele>
        <time>2013-05-04T08:01:08Z</time>
      </trkpt>
      <trkpt lat="42.87377" lon="0.10148">
        <ele>2278</ele>
        <time>2013-05-04T08:01:22Z</time>
      </trkpt>
      <trkpt lat="42.87376" lon="0.1014">
        <ele>2279</ele>
        <time>2013-05-04T08:01:32Z</time>
      </trkpt>
      <trkpt lat="42.87376" lon="0.10131">
        <ele>2282</ele>
        <time>2013-05-04T08:01:44Z</time>
      </trkpt>
      <trkpt lat="42.87376" lon="0.10123">
        <ele>2283</ele>
        <time>2013-05-04T08:01:54Z</time>
      </trkpt>
      <trkpt lat="42.87375" lon="0.10114">
        <ele>2286</ele>
        <time>2013-05-04T08:02:04Z</time>
      </trkpt>
      <trkpt lat="42.87375" lon="0.10105">
        <ele>2288</ele>
        <time>2013-05-04T08:02:13Z</time>
      </trkpt>
      <trkpt lat="42.87375" lon="0.10104">
        <ele>2288</ele>
        <time>2013-05-04T08:02:14Z</time>
      </trkpt>
      <trkpt lat="42.87374" lon="0.10096">
        <ele>2289</ele>
        <time>2013-05-04T08:02:22Z</time>
      </trkpt>
      <trkpt lat="42.87375" lon="0.10088">
        <ele>2291</ele>
        <time>2013-05-04T08:02:32Z</time>
      </trkpt>
      <trkpt lat="42.87376" lon="0.1008">
        <ele>2292</ele>
        <time>2013-05-04T08:02:40Z</time>
      </trkpt>
      <trkpt lat="42.87375" lon="0.10079">
        <ele>2292</ele>
        <time>2013-05-04T08:02:48Z</time>
      </trkpt>
      <trkpt lat="42.87376" lon="0.10081">
        <ele>2292</ele>
        <time>2013-05-04T08:03:00Z</time>
      </trkpt>
      <trkpt lat="42.87375" lon="0.10083">
        <ele>2292</ele>
        <time>2013-05-04T08:03:15Z</time>
      </trkpt>
      <trkpt lat="42.87372" lon="0.10091">
        <ele>2293</ele>
        <time>2013-05-04T08:03:25Z</time>
      </trkpt>
      <trkpt lat="42.8737" lon="0.10093">
        <ele>2294</ele>
        <time>2013-05-04T08:03:39Z</time>
      </trkpt>
      <trkpt lat="42.8737" lon="0.10091">
        <ele>2294</ele>
        <time>2013-05-04T08:03:55Z</time>
      </trkpt>
      <trkpt lat="42.87371" lon="0.10092">
        <ele>2294</ele>
        <time>2013-05-04T08:04:13Z</time>
      </trkpt>
      <trkpt lat="42.8737" lon="0.10093">
        <ele>2294</ele>
        <time>2013-05-04T08:04:28Z</time>
      </trkpt>
      <trkpt lat="42.8737" lon="0.10092">
        <ele>2294</ele>
        <time>2013-05-04T08:04:41Z</time>
      </trkpt>
      <trkpt lat="42.87371" lon="0.10093">
        <ele>2294</ele>
        <time>2013-05-04T08:05:00Z</time>
      </trkpt>
      <trkpt lat="42.87369" lon="0.10092">
        <ele>2294</ele>
        <time>2013-05-04T08:05:20Z</time>
      </trkpt>
      <trkpt lat="42.8737" lon="0.10094">
        <ele>2295</ele>
        <time>2013-05-04T08:05:33Z</time>
      </trkpt>
      <trkpt lat="42.87369" lon="0.10098">
        <ele>2296</ele>
        <time>2013-05-04T08:05:41Z</time>
      </trkpt>
      <trkpt lat="42.87364" lon="0.10105">
        <ele>2298</ele>
        <time>2013-05-04T08:05:53Z</time>
      </trkpt>
      <trkpt lat="42.87361" lon="0.10113">
        <ele>2300</ele>
        <time>2013-05-04T08:06:03Z</time>
      </trkpt>
      <trkpt lat="42.8736" lon="0.10116">
        <ele>2300</ele>
        <time>2013-05-04T08:06:10Z</time>
      </trkpt>
      <trkpt lat="42.87363" lon="0.10113">
        <ele>2301</ele>
        <time>2013-05-04T08:06:20Z</time>
      </trkpt>
      <trkpt lat="42.87363" lon="0.1011">
        <ele>2302</ele>
        <time>2013-05-04T08:06:37Z</time>
      </trkpt>
      <trkpt lat="42.8736" lon="0.10104">
        <ele>2302</ele>
        <time>2013-05-04T08:06:45Z</time>
      </trkpt>
      <trkpt lat="42.8736" lon="0.10093">
        <ele>2304</ele>
        <time>2013-05-04T08:06:56Z</time>
      </trkpt>
      <trkpt lat="42.87359" lon="0.10082">
        <ele>2306</ele>
        <time>2013-05-04T08:07:08Z</time>
      </trkpt>
      <trkpt lat="42.87361" lon="0.10074">
        <ele>2307</ele>
        <time>2013-05-04T08:07:18Z</time>
      </trkpt>
      <trkpt lat="42.87362" lon="0.10064">
        <ele>2310</ele>
        <time>2013-05-04T08:07:29Z</time>
      </trkpt>
      <trkpt lat="42.87362" lon="0.1006">
        <ele>2310</ele>
        <time>2013-05-04T08:07:39Z</time>
      </trkpt>
      <trkpt lat="42.87361" lon="0.10063">
        <ele>2310</ele>
        <time>2013-05-04T08:07:48Z</time>
      </trkpt>
      <trkpt lat="42.87358" lon="0.10066">
        <ele>2311</ele>
        <time>2013-05-04T08:07:57Z</time>
      </trkpt>
      <trkpt lat="42.87355" lon="0.10072">
        <ele>2312</ele>
        <time>2013-05-04T08:08:07Z</time>
      </trkpt>
      <trkpt lat="42.87352" lon="0.10077">
        <ele>2314</ele>
        <time>2013-05-04T08:08:15Z</time>
      </trkpt>
      <trkpt lat="42.87348" lon="0.10084">
        <ele>2315</ele>
        <time>2013-05-04T08:08:25Z</time>
      </trkpt>
      <trkpt lat="42.87345" lon="0.10088">
        <ele>2317</ele>
        <time>2013-05-04T08:08:34Z</time>
      </trkpt>
      <trkpt lat="42.87349" lon="0.10085">
        <ele>2317</ele>
        <time>2013-05-04T08:08:47Z</time>
      </trkpt>
      <trkpt lat="42.87349" lon="0.10082">
        <ele>2317</ele>
        <time>2013-05-04T08:08:57Z</time>
      </trkpt>
      <trkpt lat="42.87348" lon="0.10075">
        <ele>2318</ele>
        <time>2013-05-04T08:09:07Z</time>
      </trkpt>
      <trkpt lat="42.87348" lon="0.10066">
        <ele>2320</ele>
        <time>2013-05-04T08:09:16Z</time>
      </trkpt>
      <trkpt lat="42.87346" lon="0.10058">
        <ele>2321</ele>
        <time>2013-05-04T08:09:27Z</time>
      </trkpt>
      <trkpt lat="42.87344" lon="0.10056">
        <ele>2323</ele>
        <time>2013-05-04T08:09:38Z</time>
      </trkpt>
      <trkpt lat="42.87344" lon="0.10054">
        <ele>2323</ele>
        <time>2013-05-04T08:09:46Z</time>
      </trkpt>
      <trkpt lat="42.87346" lon="0.10052">
        <ele>2322</ele>
        <time>2013-05-04T08:09:48Z</time>
      </trkpt>
      <trkpt lat="42.87349" lon="0.10046">
        <ele>2321</ele>
        <time>2013-05-04T08:09:54Z</time>
      </trkpt>
      <trkpt lat="42.87351" lon="0.10038">
        <ele>2321</ele>
        <time>2013-05-04T08:10:01Z</time>
      </trkpt>
      <trkpt lat="42.87351" lon="0.1004">
        <ele>2320</ele>
        <time>2013-05-04T08:10:12Z</time>
      </trkpt>
      <trkpt lat="42.87352" lon="0.10039">
        <ele>2320</ele>
        <time>2013-05-04T08:10:26Z</time>
      </trkpt>
      <trkpt lat="42.8735" lon="0.10041">
        <ele>2320</ele>
        <time>2013-05-04T08:10:36Z</time>
      </trkpt>
      <trkpt lat="42.8735" lon="0.10042">
        <ele>2320</ele>
        <time>2013-05-04T08:10:51Z</time>
      </trkpt>
      <trkpt lat="42.8735" lon="0.1004">
        <ele>2320</ele>
        <time>2013-05-04T08:11:05Z</time>
      </trkpt>
      <trkpt lat="42.8735" lon="0.1004">
        <ele>2320</ele>
        <time>2013-05-04T08:11:27Z</time>
      </trkpt>
      <trkpt lat="42.8735" lon="0.10038">
        <ele>2320</ele>
        <time>2013-05-04T08:11:42Z</time>
      </trkpt>
      <trkpt lat="42.8735" lon="0.10046">
        <ele>2320</ele>
        <time>2013-05-04T08:11:52Z</time>
      </trkpt>
      <trkpt lat="42.87351" lon="0.10054">
        <ele>2320</ele>
        <time>2013-05-04T08:12:01Z</time>
      </trkpt>
      <trkpt lat="42.87347" lon="0.10059">
        <ele>2321</ele>
        <time>2013-05-04T08:12:09Z</time>
      </trkpt>
      <trkpt lat="42.87347" lon="0.10057">
        <ele>2321</ele>
        <time>2013-05-04T08:12:17Z</time>
      </trkpt>
      <trkpt lat="42.87345" lon="0.10063">
        <ele>2321</ele>
        <time>2013-05-04T08:12:28Z</time>
      </trkpt>
      <trkpt lat="42.87345" lon="0.10069">
        <ele>2321</ele>
        <time>2013-05-04T08:12:39Z</time>
      </trkpt>
      <trkpt lat="42.87346" lon="0.10069">
        <ele>2322</ele>
        <time>2013-05-04T08:12:53Z</time>
      </trkpt>
      <trkpt lat="42.87345" lon="0.10069">
        <ele>2322</ele>
        <time>2013-05-04T08:13:10Z</time>
      </trkpt>
      <trkpt lat="42.87345" lon="0.10068">
        <ele>2321</ele>
        <time>2013-05-04T08:13:27Z</time>
      </trkpt>
      <trkpt lat="42.87344" lon="0.10069">
        <ele>2321</ele>
        <time>2013-05-04T08:13:45Z</time>
      </trkpt>
      <trkpt lat="42.87348" lon="0.10062">
        <ele>2321</ele>
        <time>2013-05-04T08:13:52Z</time>
      </trkpt>
      <trkpt lat="42.8735" lon="0.10056">
        <ele>2321</ele>
        <time>2013-05-04T08:13:59Z</time>
      </trkpt>
      <trkpt lat="42.8735" lon="0.10054">
        <ele>2322</ele>
        <time>2013-05-04T08:14:00Z</time>
      </trkpt>
      <trkpt lat="42.87352" lon="0.10045">
        <ele>2321</ele>
        <time>2013-05-04T08:14:08Z</time>
      </trkpt>
      <trkpt lat="42.87351" lon="0.10037">
        <ele>2321</ele>
        <time>2013-05-04T08:14:16Z</time>
      </trkpt>
      <trkpt lat="42.87349" lon="0.10037">
        <ele>2320</ele>
        <time>2013-05-04T08:14:26Z</time>
      </trkpt>
      <trkpt lat="42.87345" lon="0.10036">
        <ele>2320</ele>
        <time>2013-05-04T08:14:34Z</time>
      </trkpt>
      <trkpt lat="42.87344" lon="0.10036">
        <ele>2319</ele>
        <time>2013-05-04T08:14:35Z</time>
      </trkpt>
      <trkpt lat="42.87333" lon="0.10037">
        <ele>2318</ele>
        <time>2013-05-04T08:14:45Z</time>
      </trkpt>
      <trkpt lat="42.87323" lon="0.10041">
        <ele>2318</ele>
        <time>2013-05-04T08:14:55Z</time>
      </trkpt>
      <trkpt lat="42.87316" lon="0.10043">
        <ele>2318</ele>
        <time>2013-05-04T08:15:03Z</time>
      </trkpt>
      <trkpt lat="42.87309" lon="0.10049">
        <ele>2319</ele>
        <time>2013-05-04T08:15:13Z</time>
      </trkpt>
      <trkpt lat="42.87304" lon="0.10052">
        <ele>2320</ele>
        <time>2013-05-04T08:15:21Z</time>
      </trkpt>
      <trkpt lat="42.87298" lon="0.10057">
        <ele>2321</ele>
        <time>2013-05-04T08:15:30Z</time>
      </trkpt>
      <trkpt lat="42.87292" lon="0.10061">
        <ele>2322</ele>
        <time>2013-05-04T08:15:39Z</time>
      </trkpt>
      <trkpt lat="42.87289" lon="0.10064">
        <ele>2323</ele>
        <time>2013-05-04T08:15:47Z</time>
      </trkpt>
      <trkpt lat="42.87285" lon="0.10067">
        <ele>2324</ele>
        <time>2013-05-04T08:15:55Z</time>
      </trkpt>
      <trkpt lat="42.87283" lon="0.10071">
        <ele>2324</ele>
        <time>2013-05-04T08:16:05Z</time>
      </trkpt>
      <trkpt lat="42.87277" lon="0.10076">
        <ele>2326</ele>
        <time>2013-05-04T08:16:14Z</time>
      </trkpt>
      <trkpt lat="42.87272" lon="0.1008">
        <ele>2327</ele>
        <time>2013-05-04T08:16:23Z</time>
      </trkpt>
      <trkpt lat="42.87267" lon="0.10085">
        <ele>2328</ele>
        <time>2013-05-04T08:16:32Z</time>
      </trkpt>
      <trkpt lat="42.8726" lon="0.1009">
        <ele>2330</ele>
        <time>2013-05-04T08:16:42Z</time>
      </trkpt>
      <trkpt lat="42.87256" lon="0.10094">
        <ele>2332</ele>
        <time>2013-05-04T08:16:50Z</time>
      </trkpt>
      <trkpt lat="42.87252" lon="0.10098">
        <ele>2332</ele>
        <time>2013-05-04T08:16:58Z</time>
      </trkpt>
      <trkpt lat="42.87247" lon="0.10101">
        <ele>2334</ele>
        <time>2013-05-04T08:17:07Z</time>
      </trkpt>
      <trkpt lat="42.87243" lon="0.10106">
        <ele>2335</ele>
        <time>2013-05-04T08:17:15Z</time>
      </trkpt>
      <trkpt lat="42.87235" lon="0.10106">
        <ele>2336</ele>
        <time>2013-05-04T08:17:24Z</time>
      </trkpt>
      <trkpt lat="42.87229" lon="0.10107">
        <ele>2339</ele>
        <time>2013-05-04T08:17:33Z</time>
      </trkpt>
      <trkpt lat="42.87225" lon="0.1011">
        <ele>2339</ele>
        <time>2013-05-04T08:17:40Z</time>
      </trkpt>
      <trkpt lat="42.87221" lon="0.10113">
        <ele>2340</ele>
        <time>2013-05-04T08:17:48Z</time>
      </trkpt>
      <trkpt lat="42.87216" lon="0.10117">
        <ele>2342</ele>
        <time>2013-05-04T08:17:58Z</time>
      </trkpt>
      <trkpt lat="42.87212" lon="0.10122">
        <ele>2344</ele>
        <time>2013-05-04T08:18:08Z</time>
      </trkpt>
      <trkpt lat="42.87207" lon="0.10127">
        <ele>2345</ele>
        <time>2013-05-04T08:18:18Z</time>
      </trkpt>
      <trkpt lat="42.872" lon="0.1013">
        <ele>2346</ele>
        <time>2013-05-04T08:18:28Z</time>
      </trkpt>
      <trkpt lat="42.87195" lon="0.10133">
        <ele>2348</ele>
        <time>2013-05-04T08:18:36Z</time>
      </trkpt>
      <trkpt lat="42.87189" lon="0.1014">
        <ele>2349</ele>
        <time>2013-05-04T08:18:45Z</time>
      </trkpt>
      <trkpt lat="42.87186" lon="0.10145">
        <ele>2350</ele>
        <time>2013-05-04T08:18:55Z</time>
      </trkpt>
      <trkpt lat="42.87182" lon="0.10148">
        <ele>2351</ele>
        <time>2013-05-04T08:19:02Z</time>
      </trkpt>
      <trkpt lat="42.87178" lon="0.10153">
        <ele>2352</ele>
        <time>2013-05-04T08:19:09Z</time>
      </trkpt>
      <trkpt lat="42.87173" lon="0.10158">
        <ele>2353</ele>
        <time>2013-05-04T08:19:15Z</time>
      </trkpt>
      <trkpt lat="42.87172" lon="0.10159">
        <ele>2353</ele>
        <time>2013-05-04T08:19:17Z</time>
      </trkpt>
      <trkpt lat="42.87165" lon="0.10165">
        <ele>2353</ele>
        <time>2013-05-04T08:19:27Z</time>
      </trkpt>
      <trkpt lat="42.87158" lon="0.10171">
        <ele>2355</ele>
        <time>2013-05-04T08:19:37Z</time>
      </trkpt>
      <trkpt lat="42.87151" lon="0.10177">
        <ele>2356</ele>
        <time>2013-05-04T08:19:47Z</time>
      </trkpt>
      <trkpt lat="42.87144" lon="0.10182">
        <ele>2357</ele>
        <time>2013-05-04T08:19:56Z</time>
      </trkpt>
      <trkpt lat="42.87137" lon="0.10188">
        <ele>2358</ele>
        <time>2013-05-04T08:20:06Z</time>
      </trkpt>
      <trkpt lat="42.8713" lon="0.10195">
        <ele>2360</ele>
        <time>2013-05-04T08:20:15Z</time>
      </trkpt>
      <trkpt lat="42.87126" lon="0.10201">
        <ele>2360</ele>
        <time>2013-05-04T08:20:22Z</time>
      </trkpt>
      <trkpt lat="42.87119" lon="0.10207">
        <ele>2362</ele>
        <time>2013-05-04T08:20:31Z</time>
      </trkpt>
      <trkpt lat="42.87114" lon="0.10212">
        <ele>2362</ele>
        <time>2013-05-04T08:20:38Z</time>
      </trkpt>
      <trkpt lat="42.87108" lon="0.10219">
        <ele>2363</ele>
        <time>2013-05-04T08:20:46Z</time>
      </trkpt>
      <trkpt lat="42.87102" lon="0.10226">
        <ele>2364</ele>
        <time>2013-05-04T08:20:55Z</time>
      </trkpt>
      <trkpt lat="42.87096" lon="0.10231">
        <ele>2365</ele>
        <time>2013-05-04T08:21:04Z</time>
      </trkpt>
      <trkpt lat="42.8709" lon="0.10238">
        <ele>2367</ele>
        <time>2013-05-04T08:21:15Z</time>
      </trkpt>
      <trkpt lat="42.87088" lon="0.1024">
        <ele>2367</ele>
        <time>2013-05-04T08:21:23Z</time>
      </trkpt>
      <trkpt lat="42.87091" lon="0.10242">
        <ele>2367</ele>
        <time>2013-05-04T08:21:36Z</time>
      </trkpt>
      <trkpt lat="42.87091" lon="0.10243">
        <ele>2367</ele>
        <time>2013-05-04T08:21:47Z</time>
      </trkpt>
      <trkpt lat="42.87086" lon="0.10244">
        <ele>2368</ele>
        <time>2013-05-04T08:21:56Z</time>
      </trkpt>
      <trkpt lat="42.87081" lon="0.10251">
        <ele>2369</ele>
        <time>2013-05-04T08:22:06Z</time>
      </trkpt>
      <trkpt lat="42.87076" lon="0.10257">
        <ele>2371</ele>
        <time>2013-05-04T08:22:18Z</time>
      </trkpt>
      <trkpt lat="42.87072" lon="0.10262">
        <ele>2373</ele>
        <time>2013-05-04T08:22:28Z</time>
      </trkpt>
      <trkpt lat="42.87069" lon="0.10271">
        <ele>2374</ele>
        <time>2013-05-04T08:22:39Z</time>
      </trkpt>
      <trkpt lat="42.87066" lon="0.10276">
        <ele>2376</ele>
        <time>2013-05-04T08:22:47Z</time>
      </trkpt>
      <trkpt lat="42.87062" lon="0.10284">
        <ele>2377</ele>
        <time>2013-05-04T08:22:59Z</time>
      </trkpt>
      <trkpt lat="42.87059" lon="0.1029">
        <ele>2379</ele>
        <time>2013-05-04T08:23:08Z</time>
      </trkpt>
      <trkpt lat="42.87056" lon="0.10296">
        <ele>2381</ele>
        <time>2013-05-04T08:23:17Z</time>
      </trkpt>
      <trkpt lat="42.87054" lon="0.10301">
        <ele>2382</ele>
        <time>2013-05-04T08:23:26Z</time>
      </trkpt>
      <trkpt lat="42.87052" lon="0.10304">
        <ele>2383</ele>
        <time>2013-05-04T08:23:34Z</time>
      </trkpt>
      <trkpt lat="42.87048" lon="0.10307">
        <ele>2385</ele>
        <time>2013-05-04T08:23:42Z</time>
      </trkpt>
      <trkpt lat="42.87044" lon="0.10303">
        <ele>2386</ele>
        <time>2013-05-04T08:23:51Z</time>
      </trkpt>
      <trkpt lat="42.87043" lon="0.10302">
        <ele>2387</ele>
        <time>2013-05-04T08:24:00Z</time>
      </trkpt>
      <trkpt lat="42.87043" lon="0.10301">
        <ele>2386</ele>
        <time>2013-05-04T08:24:15Z</time>
      </trkpt>
      <trkpt lat="42.87041" lon="0.103">
        <ele>2387</ele>
        <time>2013-05-04T08:24:30Z</time>
      </trkpt>
      <trkpt lat="42.8704" lon="0.10296">
        <ele>2388</ele>
        <time>2013-05-04T08:24:39Z</time>
      </trkpt>
      <trkpt lat="42.87038" lon="0.10293">
        <ele>2388</ele>
        <time>2013-05-04T08:24:50Z</time>
      </trkpt>
      <trkpt lat="42.87039" lon="0.10293">
        <ele>2388</ele>
        <time>2013-05-04T08:24:59Z</time>
      </trkpt>
      <trkpt lat="42.87037" lon="0.1029">
        <ele>2389</ele>
        <time>2013-05-04T08:25:10Z</time>
      </trkpt>
      <trkpt lat="42.87034" lon="0.10283">
        <ele>2390</ele>
        <time>2013-05-04T08:25:19Z</time>
      </trkpt>
      <trkpt lat="42.8703" lon="0.10277">
        <ele>2392</ele>
        <time>2013-05-04T08:25:29Z</time>
      </trkpt>
      <trkpt lat="42.87026" lon="0.1027">
        <ele>2393</ele>
        <time>2013-05-04T08:25:38Z</time>
      </trkpt>
      <trkpt lat="42.87023" lon="0.10265">
        <ele>2394</ele>
        <time>2013-05-04T08:25:46Z</time>
      </trkpt>
      <trkpt lat="42.8702" lon="0.10257">
        <ele>2396</ele>
        <time>2013-05-04T08:25:57Z</time>
      </trkpt>
      <trkpt lat="42.87017" lon="0.1025">
        <ele>2398</ele>
        <time>2013-05-04T08:26:07Z</time>
      </trkpt>
      <trkpt lat="42.87014" lon="0.10243">
        <ele>2399</ele>
        <time>2013-05-04T08:26:16Z</time>
      </trkpt>
      <trkpt lat="42.87013" lon="0.10235">
        <ele>2400</ele>
        <time>2013-05-04T08:26:25Z</time>
      </trkpt>
      <trkpt lat="42.8701" lon="0.10226">
        <ele>2402</ele>
        <time>2013-05-04T08:26:35Z</time>
      </trkpt>
      <trkpt lat="42.8701" lon="0.10224">
        <ele>2402</ele>
        <time>2013-05-04T08:26:45Z</time>
      </trkpt>
      <trkpt lat="42.87011" lon="0.10223">
        <ele>2402</ele>
        <time>2013-05-04T08:27:00Z</time>
      </trkpt>
      <trkpt lat="42.87011" lon="0.10224">
        <ele>2403</ele>
        <time>2013-05-04T08:27:18Z</time>
      </trkpt>
      <trkpt lat="42.87011" lon="0.10226">
        <ele>2403</ele>
        <time>2013-05-04T08:27:31Z</time>
      </trkpt>
      <trkpt lat="42.8701" lon="0.10228">
        <ele>2401</ele>
        <time>2013-05-04T08:27:41Z</time>
      </trkpt>
      <trkpt lat="42.8701" lon="0.10228">
        <ele>2406</ele>
        <time>2013-05-04T08:27:46Z</time>
      </trkpt>
      <trkpt lat="42.87006" lon="0.10233">
        <ele>2403</ele>
        <time>2013-05-04T08:27:55Z</time>
      </trkpt>
      <trkpt lat="42.87002" lon="0.10238">
        <ele>2406</ele>
        <time>2013-05-04T08:28:04Z</time>
      </trkpt>
      <trkpt lat="42.87002" lon="0.10239">
        <ele>2406</ele>
        <time>2013-05-04T08:28:05Z</time>
      </trkpt>
      <trkpt lat="42.86998" lon="0.10247">
        <ele>2408</ele>
        <time>2013-05-04T08:28:16Z</time>
      </trkpt>
      <trkpt lat="42.86994" lon="0.10253">
        <ele>2410</ele>
        <time>2013-05-04T08:28:25Z</time>
      </trkpt>
      <trkpt lat="42.86989" lon="0.10261">
        <ele>2413</ele>
        <time>2013-05-04T08:28:37Z</time>
      </trkpt>
      <trkpt lat="42.86985" lon="0.10268">
        <ele>2414</ele>
        <time>2013-05-04T08:28:47Z</time>
      </trkpt>
      <trkpt lat="42.86981" lon="0.10274">
        <ele>2416</ele>
        <time>2013-05-04T08:28:55Z</time>
      </trkpt>
      <trkpt lat="42.86978" lon="0.10279">
        <ele>2417</ele>
        <time>2013-05-04T08:29:03Z</time>
      </trkpt>
      <trkpt lat="42.86973" lon="0.10286">
        <ele>2419</ele>
        <time>2013-05-04T08:29:14Z</time>
      </trkpt>
      <trkpt lat="42.8697" lon="0.10292">
        <ele>2421</ele>
        <time>2013-05-04T08:29:23Z</time>
      </trkpt>
      <trkpt lat="42.86966" lon="0.10299">
        <ele>2423</ele>
        <time>2013-05-04T08:29:33Z</time>
      </trkpt>
      <trkpt lat="42.86961" lon="0.10303">
        <ele>2425</ele>
        <time>2013-05-04T08:29:42Z</time>
      </trkpt>
      <trkpt lat="42.86956" lon="0.10308">
        <ele>2426</ele>
        <time>2013-05-04T08:29:52Z</time>
      </trkpt>
      <trkpt lat="42.86952" lon="0.10313">
        <ele>2427</ele>
        <time>2013-05-04T08:30:01Z</time>
      </trkpt>
      <trkpt lat="42.86952" lon="0.10311">
        <ele>2427</ele>
        <time>2013-05-04T08:30:10Z</time>
      </trkpt>
      <trkpt lat="42.86953" lon="0.10301">
        <ele>2428</ele>
        <time>2013-05-04T08:30:20Z</time>
      </trkpt>
      <trkpt lat="42.86951" lon="0.10293">
        <ele>2430</ele>
        <time>2013-05-04T08:30:29Z</time>
      </trkpt>
      <trkpt lat="42.8695" lon="0.10284">
        <ele>2432</ele>
        <time>2013-05-04T08:30:39Z</time>
      </trkpt>
      <trkpt lat="42.86949" lon="0.10275">
        <ele>2433</ele>
        <time>2013-05-04T08:30:49Z</time>
      </trkpt>
      <trkpt lat="42.86948" lon="0.10267">
        <ele>2434</ele>
        <time>2013-05-04T08:30:58Z</time>
      </trkpt>
      <trkpt lat="42.86947" lon="0.10257">
        <ele>2437</ele>
        <time>2013-05-04T08:31:09Z</time>
      </trkpt>
      <trkpt lat="42.86947" lon="0.10247">
        <ele>2438</ele>
        <time>2013-05-04T08:31:19Z</time>
      </trkpt>
      <trkpt lat="42.86946" lon="0.10239">
        <ele>2440</ele>
        <time>2013-05-04T08:31:28Z</time>
      </trkpt>
      <trkpt lat="42.86946" lon="0.1023">
        <ele>2441</ele>
        <time>2013-05-04T08:31:38Z</time>
      </trkpt>
      <trkpt lat="42.86946" lon="0.10222">
        <ele>2443</ele>
        <time>2013-05-04T08:31:48Z</time>
      </trkpt>
      <trkpt lat="42.86946" lon="0.10213">
        <ele>2446</ele>
        <time>2013-05-04T08:31:59Z</time>
      </trkpt>
      <trkpt lat="42.86946" lon="0.10205">
        <ele>2447</ele>
        <time>2013-05-04T08:32:08Z</time>
      </trkpt>
      <trkpt lat="42.86947" lon="0.10201">
        <ele>2449</ele>
        <time>2013-05-04T08:32:13Z</time>
      </trkpt>
      <trkpt lat="42.86946" lon="0.1019">
        <ele>2451</ele>
        <time>2013-05-04T08:32:25Z</time>
      </trkpt>
      <trkpt lat="42.86946" lon="0.10181">
        <ele>2452</ele>
        <time>2013-05-04T08:32:36Z</time>
      </trkpt>
      <trkpt lat="42.86946" lon="0.10172">
        <ele>2455</ele>
        <time>2013-05-04T08:32:47Z</time>
      </trkpt>
      <trkpt lat="42.86946" lon="0.10165">
        <ele>2456</ele>
        <time>2013-05-04T08:32:57Z</time>
      </trkpt>
      <trkpt lat="42.86944" lon="0.10169">
        <ele>2457</ele>
        <time>2013-05-04T08:33:08Z</time>
      </trkpt>
      <trkpt lat="42.86939" lon="0.10175">
        <ele>2459</ele>
        <time>2013-05-04T08:33:20Z</time>
      </trkpt>
      <trkpt lat="42.86933" lon="0.10182">
        <ele>2462</ele>
        <time>2013-05-04T08:33:32Z</time>
      </trkpt>
      <trkpt lat="42.86928" lon="0.10187">
        <ele>2464</ele>
        <time>2013-05-04T08:33:42Z</time>
      </trkpt>
      <trkpt lat="42.86922" lon="0.10192">
        <ele>2465</ele>
        <time>2013-05-04T08:33:54Z</time>
      </trkpt>
      <trkpt lat="42.86917" lon="0.10196">
        <ele>2468</ele>
        <time>2013-05-04T08:34:05Z</time>
      </trkpt>
      <trkpt lat="42.86912" lon="0.10201">
        <ele>2470</ele>
        <time>2013-05-04T08:34:18Z</time>
      </trkpt>
      <trkpt lat="42.86906" lon="0.10205">
        <ele>2472</ele>
        <time>2013-05-04T08:34:30Z</time>
      </trkpt>
      <trkpt lat="42.869" lon="0.10209">
        <ele>2475</ele>
        <time>2013-05-04T08:34:41Z</time>
      </trkpt>
      <trkpt lat="42.86894" lon="0.10213">
        <ele>2477</ele>
        <time>2013-05-04T08:34:51Z</time>
      </trkpt>
      <trkpt lat="42.86892" lon="0.10213">
        <ele>2477</ele>
        <time>2013-05-04T08:35:01Z</time>
      </trkpt>
      <trkpt lat="42.86896" lon="0.10202">
        <ele>2479</ele>
        <time>2013-05-04T08:35:12Z</time>
      </trkpt>
      <trkpt lat="42.86897" lon="0.10196">
        <ele>2479</ele>
        <time>2013-05-04T08:35:20Z</time>
      </trkpt>
      <trkpt lat="42.86897" lon="0.10189">
        <ele>2482</ele>
        <time>2013-05-04T08:35:29Z</time>
      </trkpt>
      <trkpt lat="42.86897" lon="0.10182">
        <ele>2483</ele>
        <time>2013-05-04T08:35:37Z</time>
      </trkpt>
      <trkpt lat="42.86896" lon="0.10176">
        <ele>2485</ele>
        <time>2013-05-04T08:35:48Z</time>
      </trkpt>
      <trkpt lat="42.86892" lon="0.1018">
        <ele>2485</ele>
        <time>2013-05-04T08:35:58Z</time>
      </trkpt>
      <trkpt lat="42.86887" lon="0.10186">
        <ele>2487</ele>
        <time>2013-05-04T08:36:06Z</time>
      </trkpt>
      <trkpt lat="42.86882" lon="0.1019">
        <ele>2488</ele>
        <time>2013-05-04T08:36:16Z</time>
      </trkpt>
      <trkpt lat="42.86884" lon="0.10187">
        <ele>2488</ele>
        <time>2013-05-04T08:36:27Z</time>
      </trkpt>
      <trkpt lat="42.86887" lon="0.10176">
        <ele>2490</ele>
        <time>2013-05-04T08:36:40Z</time>
      </trkpt>
      <trkpt lat="42.86888" lon="0.10169">
        <ele>2493</ele>
        <time>2013-05-04T08:36:50Z</time>
      </trkpt>
      <trkpt lat="42.86889" lon="0.10162">
        <ele>2494</ele>
        <time>2013-05-04T08:36:59Z</time>
      </trkpt>
      <trkpt lat="42.86888" lon="0.10157">
        <ele>2496</ele>
        <time>2013-05-04T08:37:09Z</time>
      </trkpt>
      <trkpt lat="42.86891" lon="0.10152">
        <ele>2496</ele>
        <time>2013-05-04T08:37:17Z</time>
      </trkpt>
      <trkpt lat="42.86889" lon="0.10147">
        <ele>2498</ele>
        <time>2013-05-04T08:37:28Z</time>
      </trkpt>
      <trkpt lat="42.86888" lon="0.10145">
        <ele>2497</ele>
        <time>2013-05-04T08:37:49Z</time>
      </trkpt>
      <trkpt lat="42.86886" lon="0.10145">
        <ele>2497</ele>
        <time>2013-05-04T08:38:05Z</time>
      </trkpt>
      <trkpt lat="42.86885" lon="0.10146">
        <ele>2497</ele>
        <time>2013-05-04T08:38:23Z</time>
      </trkpt>
      <trkpt lat="42.86886" lon="0.10148">
        <ele>2497</ele>
        <time>2013-05-04T08:38:34Z</time>
      </trkpt>
      <trkpt lat="42.86887" lon="0.10149">
        <ele>2497</ele>
        <time>2013-05-04T08:38:47Z</time>
      </trkpt>
      <trkpt lat="42.86887" lon="0.10148">
        <ele>2497</ele>
        <time>2013-05-04T08:38:57Z</time>
      </trkpt>
      <trkpt lat="42.8689" lon="0.10147">
        <ele>2496</ele>
        <time>2013-05-04T08:39:05Z</time>
      </trkpt>
      <trkpt lat="42.8689" lon="0.10148">
        <ele>2498</ele>
        <time>2013-05-04T08:39:19Z</time>
      </trkpt>
      <trkpt lat="42.8689" lon="0.10147">
        <ele>2496</ele>
        <time>2013-05-04T08:39:34Z</time>
      </trkpt>
      <trkpt lat="42.86892" lon="0.10143">
        <ele>2497</ele>
        <time>2013-05-04T08:39:47Z</time>
      </trkpt>
      <trkpt lat="42.86896" lon="0.10135">
        <ele>2498</ele>
        <time>2013-05-04T08:39:56Z</time>
      </trkpt>
      <trkpt lat="42.86899" lon="0.10131">
        <ele>2498</ele>
        <time>2013-05-04T08:40:02Z</time>
      </trkpt>
      <trkpt lat="42.86901" lon="0.1013">
        <ele>2498</ele>
        <time>2013-05-04T08:40:12Z</time>
      </trkpt>
      <trkpt lat="42.86902" lon="0.10127">
        <ele>2499</ele>
        <time>2013-05-04T08:40:22Z</time>
      </trkpt>
      <trkpt lat="42.86902" lon="0.10124">
        <ele>2500</ele>
        <time>2013-05-04T08:40:30Z</time>
      </trkpt>
      <trkpt lat="42.86901" lon="0.10122">
        <ele>2501</ele>
        <time>2013-05-04T08:40:38Z</time>
      </trkpt>
      <trkpt lat="42.86901" lon="0.10121">
        <ele>2501</ele>
        <time>2013-05-04T08:40:45Z</time>
      </trkpt>
      <trkpt lat="42.86901" lon="0.1012">
        <ele>2502</ele>
        <time>2013-05-04T08:40:53Z</time>
      </trkpt>
      <trkpt lat="42.86901" lon="0.10121">
        <ele>2501</ele>
        <time>2013-05-04T08:40:55Z</time>
      </trkpt>
      <trkpt lat="42.869" lon="0.1012">
        <ele>2502</ele>
        <time>2013-05-04T08:41:08Z</time>
      </trkpt>
      <trkpt lat="42.86902" lon="0.1012">
        <ele>2501</ele>
        <time>2013-05-04T08:41:23Z</time>
      </trkpt>
      <trkpt lat="42.86901" lon="0.1012">
        <ele>2498</ele>
        <time>2013-05-04T08:41:33Z</time>
      </trkpt>
      <trkpt lat="42.86901" lon="0.1012">
        <ele>2502</ele>
        <time>2013-05-04T08:41:34Z</time>
      </trkpt>
      <trkpt lat="42.86901" lon="0.1012">
        <ele>2508</ele>
        <time>2013-05-04T08:41:35Z</time>
      </trkpt>
      <trkpt lat="42.86901" lon="0.10121">
        <ele>2501</ele>
        <time>2013-05-04T08:41:36Z</time>
      </trkpt>
      <trkpt lat="42.86901" lon="0.10121">
        <ele>2504</ele>
        <time>2013-05-04T08:41:38Z</time>
      </trkpt>
      <trkpt lat="42.86901" lon="0.1012">
        <ele>2503</ele>
        <time>2013-05-04T08:41:39Z</time>
      </trkpt>
      <trkpt lat="42.869" lon="0.1012">
        <ele>2502</ele>
        <time>2013-05-04T08:41:41Z</time>
      </trkpt>
      <trkpt lat="42.869" lon="0.1012">
        <ele>2501</ele>
        <time>2013-05-04T08:41:55Z</time>
      </trkpt>
      <trkpt lat="42.86901" lon="0.1012">
        <ele>2501</ele>
        <time>2013-05-04T08:42:04Z</time>
      </trkpt>
      <trkpt lat="42.869" lon="0.10118">
        <ele>2503</ele>
        <time>2013-05-04T08:42:14Z</time>
      </trkpt>
      <trkpt lat="42.869" lon="0.10116">
        <ele>2504</ele>
        <time>2013-05-04T08:42:25Z</time>
      </trkpt>
      <trkpt lat="42.869" lon="0.10116">
        <ele>2502</ele>
        <time>2013-05-04T08:42:30Z</time>
      </trkpt>
      <trkpt lat="42.86898" lon="0.10116">
        <ele>2503</ele>
        <time>2013-05-04T08:42:46Z</time>
      </trkpt>
      <trkpt lat="42.86899" lon="0.10116">
        <ele>2503</ele>
        <time>2013-05-04T08:42:58Z</time>
      </trkpt>
      <trkpt lat="42.86899" lon="0.10117">
        <ele>2503</ele>
        <time>2013-05-04T08:43:12Z</time>
      </trkpt>
      <trkpt lat="42.86898" lon="0.10119">
        <ele>2503</ele>
        <time>2013-05-04T08:43:24Z</time>
      </trkpt>
      <trkpt lat="42.86897" lon="0.10117">
        <ele>2502</ele>
        <time>2013-05-04T08:43:43Z</time>
      </trkpt>
      <trkpt lat="42.86896" lon="0.10119">
        <ele>2503</ele>
        <time>2013-05-04T08:43:58Z</time>
      </trkpt>
      <trkpt lat="42.86897" lon="0.10117">
        <ele>2502</ele>
        <time>2013-05-04T08:44:09Z</time>
      </trkpt>
      <trkpt lat="42.86896" lon="0.10117">
        <ele>2502</ele>
        <time>2013-05-04T08:44:24Z</time>
      </trkpt>
      <trkpt lat="42.86896" lon="0.10117">
        <ele>2502</ele>
        <time>2013-05-04T08:44:41Z</time>
      </trkpt>
      <trkpt lat="42.86896" lon="0.10116">
        <ele>2502</ele>
        <time>2013-05-04T08:44:58Z</time>
      </trkpt>
      <trkpt lat="42.86895" lon="0.10116">
        <ele>2503</ele>
        <time>2013-05-04T08:45:17Z</time>
      </trkpt>
      <trkpt lat="42.86895" lon="0.10117">
        <ele>2502</ele>
        <time>2013-05-04T08:45:35Z</time>
      </trkpt>
      <trkpt lat="42.86897" lon="0.10119">
        <ele>2502</ele>
        <time>2013-05-04T08:45:47Z</time>
      </trkpt>
      <trkpt lat="42.86899" lon="0.10117">
        <ele>2503</ele>
        <time>2013-05-04T08:46:00Z</time>
      </trkpt>
      <trkpt lat="42.86897" lon="0.10116">
        <ele>2503</ele>
        <time>2013-05-04T08:46:10Z</time>
      </trkpt>
      <trkpt lat="42.86898" lon="0.10117">
        <ele>2503</ele>
        <time>2013-05-04T08:46:26Z</time>
      </trkpt>
      <trkpt lat="42.86898" lon="0.10116">
        <ele>2503</ele>
        <time>2013-05-04T08:46:40Z</time>
      </trkpt>
      <trkpt lat="42.86898" lon="0.10116">
        <ele>2503</ele>
        <time>2013-05-04T08:47:00Z</time>
      </trkpt>
      <trkpt lat="42.86896" lon="0.10116">
        <ele>2502</ele>
        <time>2013-05-04T08:47:11Z</time>
      </trkpt>
      <trkpt lat="42.86898" lon="0.10117">
        <ele>2503</ele>
        <time>2013-05-04T08:47:23Z</time>
      </trkpt>
      <trkpt lat="42.86899" lon="0.10116">
        <ele>2502</ele>
        <time>2013-05-04T08:47:34Z</time>
      </trkpt>
      <trkpt lat="42.86899" lon="0.10116">
        <ele>2502</ele>
        <time>2013-05-04T08:47:46Z</time>
      </trkpt>
      <trkpt lat="42.869" lon="0.10116">
        <ele>2503</ele>
        <time>2013-05-04T08:47:57Z</time>
      </trkpt>
      <trkpt lat="42.86902" lon="0.10114">
        <ele>2502</ele>
        <time>2013-05-04T08:48:06Z</time>
      </trkpt>
      <trkpt lat="42.86904" lon="0.10115">
        <ele>2502</ele>
        <time>2013-05-04T08:48:17Z</time>
      </trkpt>
      <trkpt lat="42.86904" lon="0.10112">
        <ele>2503</ele>
        <time>2013-05-04T08:48:32Z</time>
      </trkpt>
      <trkpt lat="42.86904" lon="0.10111">
        <ele>2503</ele>
        <time>2013-05-04T08:48:42Z</time>
      </trkpt>
      <trkpt lat="42.86904" lon="0.10111">
        <ele>2502</ele>
        <time>2013-05-04T08:48:56Z</time>
      </trkpt>
      <trkpt lat="42.86903" lon="0.1011">
        <ele>2502</ele>
        <time>2013-05-04T08:49:03Z</time>
      </trkpt>
      <trkpt lat="42.86904" lon="0.1011">
        <ele>2502</ele>
        <time>2013-05-04T08:49:12Z</time>
      </trkpt>
      <trkpt lat="42.86905" lon="0.1011">
        <ele>2502</ele>
        <time>2013-05-04T08:49:26Z</time>
      </trkpt>
      <trkpt lat="42.86904" lon="0.1011">
        <ele>2502</ele>
        <time>2013-05-04T08:49:38Z</time>
      </trkpt>
      <trkpt lat="42.86903" lon="0.1011">
        <ele>2502</ele>
        <time>2013-05-04T08:49:49Z</time>
      </trkpt>
      <trkpt lat="42.86904" lon="0.10114">
        <ele>2502</ele>
        <time>2013-05-04T08:50:01Z</time>
      </trkpt>
      <trkpt lat="42.86904" lon="0.10116">
        <ele>2502</ele>
        <time>2013-05-04T08:50:13Z</time>
      </trkpt>
      <trkpt lat="42.86903" lon="0.10115">
        <ele>2502</ele>
        <time>2013-05-04T08:50:27Z</time>
      </trkpt>
      <trkpt lat="42.86902" lon="0.10112">
        <ele>2502</ele>
        <time>2013-05-04T08:50:40Z</time>
      </trkpt>
      <trkpt lat="42.86902" lon="0.10113">
        <ele>2502</ele>
        <time>2013-05-04T08:50:56Z</time>
      </trkpt>
      <trkpt lat="42.86902" lon="0.10113">
        <ele>2503</ele>
        <time>2013-05-04T08:51:12Z</time>
      </trkpt>
      <trkpt lat="42.86902" lon="0.10114">
        <ele>2502</ele>
        <time>2013-05-04T08:51:25Z</time>
      </trkpt>
      <trkpt lat="42.86904" lon="0.10115">
        <ele>2502</ele>
        <time>2013-05-04T08:51:40Z</time>
      </trkpt>
      <trkpt lat="42.86902" lon="0.10116">
        <ele>2502</ele>
        <time>2013-05-04T08:51:53Z</time>
      </trkpt>
      <trkpt lat="42.86901" lon="0.10115">
        <ele>2502</ele>
        <time>2013-05-04T08:52:02Z</time>
      </trkpt>
      <trkpt lat="42.869" lon="0.10114">
        <ele>2503</ele>
        <time>2013-05-04T08:52:14Z</time>
      </trkpt>
      <trkpt lat="42.86899" lon="0.10117">
        <ele>2503</ele>
        <time>2013-05-04T08:52:22Z</time>
      </trkpt>
      <trkpt lat="42.86898" lon="0.10119">
        <ele>2502</ele>
        <time>2013-05-04T08:52:32Z</time>
      </trkpt>
      <trkpt lat="42.86897" lon="0.10122">
        <ele>2502</ele>
        <time>2013-05-04T08:52:41Z</time>
      </trkpt>
      <trkpt lat="42.86898" lon="0.10124">
        <ele>2501</ele>
        <time>2013-05-04T08:52:51Z</time>
      </trkpt>
      <trkpt lat="42.86898" lon="0.10119">
        <ele>2501</ele>
        <time>2013-05-04T08:53:06Z</time>
      </trkpt>
      <trkpt lat="42.86898" lon="0.1012">
        <ele>2501</ele>
        <time>2013-05-04T08:53:16Z</time>
      </trkpt>
      <trkpt lat="42.86897" lon="0.10125">
        <ele>2500</ele>
        <time>2013-05-04T08:53:26Z</time>
      </trkpt>
      <trkpt lat="42.86896" lon="0.10125">
        <ele>2500</ele>
        <time>2013-05-04T08:53:33Z</time>
      </trkpt>
      <trkpt lat="42.86897" lon="0.10124">
        <ele>2500</ele>
        <time>2013-05-04T08:53:44Z</time>
      </trkpt>
      <trkpt lat="42.86896" lon="0.10124">
        <ele>2500</ele>
        <time>2013-05-04T08:53:53Z</time>
      </trkpt>
      <trkpt lat="42.86897" lon="0.10124">
        <ele>2500</ele>
        <time>2013-05-04T08:54:05Z</time>
      </trkpt>
      <trkpt lat="42.86897" lon="0.10126">
        <ele>2499</ele>
        <time>2013-05-04T08:54:15Z</time>
      </trkpt>
      <trkpt lat="42.86897" lon="0.10127">
        <ele>2499</ele>
        <time>2013-05-04T08:54:32Z</time>
      </trkpt>
      <trkpt lat="42.86897" lon="0.10127">
        <ele>2500</ele>
        <time>2013-05-04T08:54:50Z</time>
      </trkpt>
      <trkpt lat="42.86897" lon="0.10126">
        <ele>2500</ele>
        <time>2013-05-04T08:55:07Z</time>
      </trkpt>
      <trkpt lat="42.86897" lon="0.10125">
        <ele>2500</ele>
        <time>2013-05-04T08:55:29Z</time>
      </trkpt>
      <trkpt lat="42.86897" lon="0.10125">
        <ele>2499</ele>
        <time>2013-05-04T08:55:49Z</time>
      </trkpt>
      <trkpt lat="42.86897" lon="0.10126">
        <ele>2499</ele>
        <time>2013-05-04T08:56:09Z</time>
      </trkpt>
      <trkpt lat="42.86896" lon="0.10126">
        <ele>2500</ele>
        <time>2013-05-04T08:56:28Z</time>
      </trkpt>
      <trkpt lat="42.86896" lon="0.10125">
        <ele>2500</ele>
        <time>2013-05-04T08:56:41Z</time>
      </trkpt>
      <trkpt lat="42.86897" lon="0.10126">
        <ele>2499</ele>
        <time>2013-05-04T08:57:04Z</time>
      </trkpt>
      <trkpt lat="42.86897" lon="0.10127">
        <ele>2499</ele>
        <time>2013-05-04T08:57:26Z</time>
      </trkpt>
      <trkpt lat="42.86897" lon="0.10127">
        <ele>2499</ele>
        <time>2013-05-04T08:57:47Z</time>
      </trkpt>
      <trkpt lat="42.86897" lon="0.10128">
        <ele>2499</ele>
        <time>2013-05-04T08:58:11Z</time>
      </trkpt>
      <trkpt lat="42.86896" lon="0.10128">
        <ele>2499</ele>
        <time>2013-05-04T08:58:28Z</time>
      </trkpt>
      <trkpt lat="42.86896" lon="0.10128">
        <ele>2499</ele>
        <time>2013-05-04T08:58:47Z</time>
      </trkpt>
      <trkpt lat="42.86895" lon="0.10128">
        <ele>2499</ele>
        <time>2013-05-04T08:59:08Z</time>
      </trkpt>
      <trkpt lat="42.86896" lon="0.10128">
        <ele>2499</ele>
        <time>2013-05-04T08:59:27Z</time>
      </trkpt>
      <trkpt lat="42.86896" lon="0.10127">
        <ele>2499</ele>
        <time>2013-05-04T08:59:45Z</time>
      </trkpt>
      <trkpt lat="42.86896" lon="0.10128">
        <ele>2499</ele>
        <time>2013-05-04T09:00:02Z</time>
      </trkpt>
      <trkpt lat="42.86895" lon="0.10128">
        <ele>2499</ele>
        <time>2013-05-04T09:00:25Z</time>
      </trkpt>
      <trkpt lat="42.86896" lon="0.10128">
        <ele>2500</ele>
        <time>2013-05-04T09:00:42Z</time>
      </trkpt>
      <trkpt lat="42.86896" lon="0.10129">
        <ele>2499</ele>
        <time>2013-05-04T09:00:58Z</time>
      </trkpt>
      <trkpt lat="42.86896" lon="0.10129">
        <ele>2499</ele>
        <time>2013-05-04T09:01:15Z</time>
      </trkpt>
      <trkpt lat="42.86895" lon="0.10131">
        <ele>2499</ele>
        <time>2013-05-04T09:01:34Z</time>
      </trkpt>
      <trkpt lat="42.86896" lon="0.10129">
        <ele>2499</ele>
        <time>2013-05-04T09:01:51Z</time>
      </trkpt>
      <trkpt lat="42.86897" lon="0.10128">
        <ele>2499</ele>
        <time>2013-05-04T09:02:12Z</time>
      </trkpt>
      <trkpt lat="42.86897" lon="0.10127">
        <ele>2499</ele>
        <time>2013-05-04T09:02:29Z</time>
      </trkpt>
      <trkpt lat="42.86896" lon="0.10127">
        <ele>2500</ele>
        <time>2013-05-04T09:02:51Z</time>
      </trkpt>
      <trkpt lat="42.86896" lon="0.10128">
        <ele>2500</ele>
        <time>2013-05-04T09:03:15Z</time>
      </trkpt>
      <trkpt lat="42.86897" lon="0.10126">
        <ele>2500</ele>
        <time>2013-05-04T09:03:36Z</time>
      </trkpt>
      <trkpt lat="42.86897" lon="0.10126">
        <ele>2499</ele>
        <time>2013-05-04T09:03:53Z</time>
      </trkpt>
      <trkpt lat="42.86897" lon="0.10127">
        <ele>2500</ele>
        <time>2013-05-04T09:04:08Z</time>
      </trkpt>
      <trkpt lat="42.86898" lon="0.10125">
        <ele>2500</ele>
        <time>2013-05-04T09:04:20Z</time>
      </trkpt>
      <trkpt lat="42.86898" lon="0.10124">
        <ele>2499</ele>
        <time>2013-05-04T09:04:40Z</time>
      </trkpt>
      <trkpt lat="42.86899" lon="0.10124">
        <ele>2499</ele>
        <time>2013-05-04T09:04:57Z</time>
      </trkpt>
      <trkpt lat="42.86899" lon="0.10124">
        <ele>2500</ele>
        <time>2013-05-04T09:05:15Z</time>
      </trkpt>
      <trkpt lat="42.86898" lon="0.10124">
        <ele>2499</ele>
        <time>2013-05-04T09:05:37Z</time>
      </trkpt>
      <trkpt lat="42.86898" lon="0.10125">
        <ele>2500</ele>
        <time>2013-05-04T09:05:56Z</time>
      </trkpt>
      <trkpt lat="42.86897" lon="0.10125">
        <ele>2500</ele>
        <time>2013-05-04T09:06:14Z</time>
      </trkpt>
      <trkpt lat="42.86898" lon="0.10124">
        <ele>2500</ele>
        <time>2013-05-04T09:06:33Z</time>
      </trkpt>
      <trkpt lat="42.86898" lon="0.10124">
        <ele>2500</ele>
        <time>2013-05-04T09:06:51Z</time>
      </trkpt>
      <trkpt lat="42.86899" lon="0.10124">
        <ele>2500</ele>
        <time>2013-05-04T09:07:04Z</time>
      </trkpt>
      <trkpt lat="42.86899" lon="0.10122">
        <ele>2500</ele>
        <time>2013-05-04T09:07:19Z</time>
      </trkpt>
      <trkpt lat="42.86899" lon="0.10124">
        <ele>2500</ele>
        <time>2013-05-04T09:07:38Z</time>
      </trkpt>
      <trkpt lat="42.86898" lon="0.10125">
        <ele>2499</ele>
        <time>2013-05-04T09:07:55Z</time>
      </trkpt>
      <trkpt lat="42.86899" lon="0.10125">
        <ele>2500</ele>
        <time>2013-05-04T09:08:09Z</time>
      </trkpt>
      <trkpt lat="42.86898" lon="0.10123">
        <ele>2501</ele>
        <time>2013-05-04T09:08:17Z</time>
      </trkpt>
      <trkpt lat="42.86896" lon="0.10123">
        <ele>2501</ele>
        <time>2013-05-04T09:08:24Z</time>
      </trkpt>
      <trkpt lat="42.86895" lon="0.10122">
        <ele>2501</ele>
        <time>2013-05-04T09:08:38Z</time>
      </trkpt>
      <trkpt lat="42.86895" lon="0.10123">
        <ele>2500</ele>
        <time>2013-05-04T09:08:45Z</time>
      </trkpt>
      <trkpt lat="42.86895" lon="0.10123">
        <ele>2500</ele>
        <time>2013-05-04T09:08:55Z</time>
      </trkpt>
      <trkpt lat="42.86895" lon="0.10122">
        <ele>2500</ele>
        <time>2013-05-04T09:09:12Z</time>
      </trkpt>
      <trkpt lat="42.86894" lon="0.10123">
        <ele>2501</ele>
        <time>2013-05-04T09:09:25Z</time>
      </trkpt>
      <trkpt lat="42.86896" lon="0.10123">
        <ele>2501</ele>
        <time>2013-05-04T09:09:37Z</time>
      </trkpt>
      <trkpt lat="42.86895" lon="0.10123">
        <ele>2500</ele>
        <time>2013-05-04T09:09:49Z</time>
      </trkpt>
      <trkpt lat="42.86894" lon="0.10124">
        <ele>2501</ele>
        <time>2013-05-04T09:10:05Z</time>
      </trkpt>
      <trkpt lat="42.86895" lon="0.10123">
        <ele>2501</ele>
        <time>2013-05-04T09:10:17Z</time>
      </trkpt>
      <trkpt lat="42.86895" lon="0.10124">
        <ele>2501</ele>
        <time>2013-05-04T09:10:31Z</time>
      </trkpt>
      <trkpt lat="42.86896" lon="0.10124">
        <ele>2500</ele>
        <time>2013-05-04T09:10:43Z</time>
      </trkpt>
      <trkpt lat="42.86895" lon="0.10124">
        <ele>2501</ele>
        <time>2013-05-04T09:10:57Z</time>
      </trkpt>
      <trkpt lat="42.86895" lon="0.10124">
        <ele>2501</ele>
        <time>2013-05-04T09:11:07Z</time>
      </trkpt>
      <trkpt lat="42.86895" lon="0.10123">
        <ele>2501</ele>
        <time>2013-05-04T09:11:22Z</time>
      </trkpt>
      <trkpt lat="42.86895" lon="0.10125">
        <ele>2501</ele>
        <time>2013-05-04T09:11:36Z</time>
      </trkpt>
      <trkpt lat="42.86897" lon="0.10123">
        <ele>2500</ele>
        <time>2013-05-04T09:11:47Z</time>
      </trkpt>
      <trkpt lat="42.86896" lon="0.10124">
        <ele>2500</ele>
        <time>2013-05-04T09:11:56Z</time>
      </trkpt>
      <trkpt lat="42.86896" lon="0.10125">
        <ele>2498</ele>
        <time>2013-05-04T09:12:09Z</time>
      </trkpt>
      <trkpt lat="42.86897" lon="0.10127">
        <ele>2498</ele>
        <time>2013-05-04T09:12:20Z</time>
      </trkpt>
      <trkpt lat="42.86902" lon="0.1013">
        <ele>2495</ele>
        <time>2013-05-04T09:12:25Z</time>
      </trkpt>
      <trkpt lat="42.86906" lon="0.10129">
        <ele>2495</ele>
        <time>2013-05-04T09:12:30Z</time>
      </trkpt>
      <trkpt lat="42.86907" lon="0.10139">
        <ele>2490</ele>
        <time>2013-05-04T09:12:34Z</time>
      </trkpt>
      <trkpt lat="42.86907" lon="0.10141">
        <ele>2487</ele>
        <time>2013-05-04T09:12:37Z</time>
      </trkpt>
      <trkpt lat="42.86909" lon="0.10139">
        <ele>2487</ele>
        <time>2013-05-04T09:12:51Z</time>
      </trkpt>
      <trkpt lat="42.86908" lon="0.1014">
        <ele>2487</ele>
        <time>2013-05-04T09:13:06Z</time>
      </trkpt>
      <trkpt lat="42.8691" lon="0.10145">
        <ele>2486</ele>
        <time>2013-05-04T09:13:17Z</time>
      </trkpt>
      <trkpt lat="42.8691" lon="0.10149">
        <ele>2485</ele>
        <time>2013-05-04T09:13:19Z</time>
      </trkpt>
      <trkpt lat="42.8691" lon="0.10152">
        <ele>2484</ele>
        <time>2013-05-04T09:13:20Z</time>
      </trkpt>
      <trkpt lat="42.86916" lon="0.1016">
        <ele>2480</ele>
        <time>2013-05-04T09:13:23Z</time>
      </trkpt>
      <trkpt lat="42.86918" lon="0.10167">
        <ele>2477</ele>
        <time>2013-05-04T09:13:25Z</time>
      </trkpt>
      <trkpt lat="42.86918" lon="0.10175">
        <ele>2475</ele>
        <time>2013-05-04T09:13:27Z</time>
      </trkpt>
      <trkpt lat="42.86921" lon="0.10187">
        <ele>2469</ele>
        <time>2013-05-04T09:13:31Z</time>
      </trkpt>
      <trkpt lat="42.86927" lon="0.10191">
        <ele>2465</ele>
        <time>2013-05-04T09:13:33Z</time>
      </trkpt>
      <trkpt lat="42.86933" lon="0.10197">
        <ele>2460</ele>
        <time>2013-05-04T09:13:35Z</time>
      </trkpt>
      <trkpt lat="42.86942" lon="0.10202">
        <ele>2455</ele>
        <time>2013-05-04T09:13:37Z</time>
      </trkpt>
      <trkpt lat="42.86951" lon="0.1021">
        <ele>2451</ele>
        <time>2013-05-04T09:13:39Z</time>
      </trkpt>
      <trkpt lat="42.86959" lon="0.10217">
        <ele>2442</ele>
        <time>2013-05-04T09:13:43Z</time>
      </trkpt>
      <trkpt lat="42.86965" lon="0.10222">
        <ele>2439</ele>
        <time>2013-05-04T09:13:45Z</time>
      </trkpt>
      <trkpt lat="42.86969" lon="0.10223">
        <ele>2437</ele>
        <time>2013-05-04T09:13:46Z</time>
      </trkpt>
      <trkpt lat="42.86971" lon="0.10225">
        <ele>2430</ele>
        <time>2013-05-04T09:13:49Z</time>
      </trkpt>
      <trkpt lat="42.86969" lon="0.10224">
        <ele>2432</ele>
        <time>2013-05-04T09:13:53Z</time>
      </trkpt>
      <trkpt lat="42.86966" lon="0.10224">
        <ele>2433</ele>
        <time>2013-05-04T09:14:07Z</time>
      </trkpt>
      <trkpt lat="42.86965" lon="0.10225">
        <ele>2433</ele>
        <time>2013-05-04T09:14:14Z</time>
      </trkpt>
      <trkpt lat="42.86976" lon="0.10233">
        <ele>2429</ele>
        <time>2013-05-04T09:14:18Z</time>
      </trkpt>
      <trkpt lat="42.86981" lon="0.10238">
        <ele>2425</ele>
        <time>2013-05-04T09:14:20Z</time>
      </trkpt>
      <trkpt lat="42.86987" lon="0.10242">
        <ele>2422</ele>
        <time>2013-05-04T09:14:22Z</time>
      </trkpt>
      <trkpt lat="42.86991" lon="0.10247">
        <ele>2418</ele>
        <time>2013-05-04T09:14:24Z</time>
      </trkpt>
      <trkpt lat="42.86999" lon="0.1026">
        <ele>2412</ele>
        <time>2013-05-04T09:14:28Z</time>
      </trkpt>
      <trkpt lat="42.8701" lon="0.10269">
        <ele>2407</ele>
        <time>2013-05-04T09:14:31Z</time>
      </trkpt>
      <trkpt lat="42.87019" lon="0.1027">
        <ele>2403</ele>
        <time>2013-05-04T09:14:33Z</time>
      </trkpt>
      <trkpt lat="42.87026" lon="0.10278">
        <ele>2398</ele>
        <time>2013-05-04T09:14:35Z</time>
      </trkpt>
      <trkpt lat="42.87038" lon="0.10282">
        <ele>2392</ele>
        <time>2013-05-04T09:14:38Z</time>
      </trkpt>
      <trkpt lat="42.87047" lon="0.10284">
        <ele>2390</ele>
        <time>2013-05-04T09:14:40Z</time>
      </trkpt>
      <trkpt lat="42.87065" lon="0.10279">
        <ele>2381</ele>
        <time>2013-05-04T09:14:44Z</time>
      </trkpt>
      <trkpt lat="42.8707" lon="0.10277">
        <ele>2377</ele>
        <time>2013-05-04T09:14:45Z</time>
      </trkpt>
      <trkpt lat="42.87075" lon="0.10273">
        <ele>2376</ele>
        <time>2013-05-04T09:14:47Z</time>
      </trkpt>
      <trkpt lat="42.87076" lon="0.10274">
        <ele>2376</ele>
        <time>2013-05-04T09:14:52Z</time>
      </trkpt>
      <trkpt lat="42.87073" lon="0.10275">
        <ele>2376</ele>
        <time>2013-05-04T09:15:02Z</time>
      </trkpt>
      <trkpt lat="42.87083" lon="0.10267">
        <ele>2373</ele>
        <time>2013-05-04T09:15:07Z</time>
      </trkpt>
      <trkpt lat="42.871" lon="0.10258">
        <ele>2369</ele>
        <time>2013-05-04T09:15:10Z</time>
      </trkpt>
      <trkpt lat="42.87106" lon="0.10257">
        <ele>2369</ele>
        <time>2013-05-04T09:15:11Z</time>
      </trkpt>
      <trkpt lat="42.87119" lon="0.10248">
        <ele>2369</ele>
        <time>2013-05-04T09:15:16Z</time>
      </trkpt>
      <trkpt lat="42.87132" lon="0.10237">
        <ele>2369</ele>
        <time>2013-05-04T09:15:21Z</time>
      </trkpt>
      <trkpt lat="42.8714" lon="0.10225">
        <ele>2367</ele>
        <time>2013-05-04T09:15:23Z</time>
      </trkpt>
      <trkpt lat="42.87147" lon="0.10213">
        <ele>2365</ele>
        <time>2013-05-04T09:15:25Z</time>
      </trkpt>
      <trkpt lat="42.8715" lon="0.10209">
        <ele>2365</ele>
        <time>2013-05-04T09:15:26Z</time>
      </trkpt>
      <trkpt lat="42.87167" lon="0.10191">
        <ele>2363</ele>
        <time>2013-05-04T09:15:30Z</time>
      </trkpt>
      <trkpt lat="42.87173" lon="0.10183">
        <ele>2361</ele>
        <time>2013-05-04T09:15:32Z</time>
      </trkpt>
      <trkpt lat="42.87181" lon="0.10173">
        <ele>2359</ele>
        <time>2013-05-04T09:15:35Z</time>
      </trkpt>
      <trkpt lat="42.87197" lon="0.10158">
        <ele>2357</ele>
        <time>2013-05-04T09:15:40Z</time>
      </trkpt>
      <trkpt lat="42.87207" lon="0.10143">
        <ele>2353</ele>
        <time>2013-05-04T09:15:43Z</time>
      </trkpt>
      <trkpt lat="42.87229" lon="0.10126">
        <ele>2347</ele>
        <time>2013-05-04T09:15:48Z</time>
      </trkpt>
      <trkpt lat="42.87237" lon="0.10109">
        <ele>2343</ele>
        <time>2013-05-04T09:15:51Z</time>
      </trkpt>
      <trkpt lat="42.87248" lon="0.10093">
        <ele>2339</ele>
        <time>2013-05-04T09:15:54Z</time>
      </trkpt>
      <trkpt lat="42.87259" lon="0.10078">
        <ele>2331</ele>
        <time>2013-05-04T09:15:57Z</time>
      </trkpt>
      <trkpt lat="42.87267" lon="0.10066">
        <ele>2327</ele>
        <time>2013-05-04T09:15:59Z</time>
      </trkpt>
      <trkpt lat="42.87277" lon="0.10055">
        <ele>2325</ele>
        <time>2013-05-04T09:16:01Z</time>
      </trkpt>
      <trkpt lat="42.87298" lon="0.10038">
        <ele>2319</ele>
        <time>2013-05-04T09:16:05Z</time>
      </trkpt>
      <trkpt lat="42.87337" lon="0.10043">
        <ele>2317</ele>
        <time>2013-05-04T09:16:12Z</time>
      </trkpt>
      <trkpt lat="42.87348" lon="0.10039">
        <ele>2318</ele>
        <time>2013-05-04T09:16:18Z</time>
      </trkpt>
      <trkpt lat="42.87351" lon="0.10038">
        <ele>2319</ele>
        <time>2013-05-04T09:16:27Z</time>
      </trkpt>
      <trkpt lat="42.87353" lon="0.10038">
        <ele>2320</ele>
        <time>2013-05-04T09:16:35Z</time>
      </trkpt>
      <trkpt lat="42.87352" lon="0.10036">
        <ele>2320</ele>
        <time>2013-05-04T09:16:40Z</time>
      </trkpt>
      <trkpt lat="42.87351" lon="0.10039">
        <ele>2320</ele>
        <time>2013-05-04T09:16:48Z</time>
      </trkpt>
      <trkpt lat="42.87351" lon="0.10038">
        <ele>2320</ele>
        <time>2013-05-04T09:17:00Z</time>
      </trkpt>
      <trkpt lat="42.8735" lon="0.10044">
        <ele>2320</ele>
        <time>2013-05-04T09:17:05Z</time>
      </trkpt>
      <trkpt lat="42.87348" lon="0.10052">
        <ele>2320</ele>
        <time>2013-05-04T09:17:15Z</time>
      </trkpt>
      <trkpt lat="42.87348" lon="0.10054">
        <ele>2320</ele>
        <time>2013-05-04T09:17:25Z</time>
      </trkpt>
      <trkpt lat="42.87347" lon="0.10056">
        <ele>2320</ele>
        <time>2013-05-04T09:17:36Z</time>
      </trkpt>
      <trkpt lat="42.87347" lon="0.10059">
        <ele>2319</ele>
        <time>2013-05-04T09:17:53Z</time>
      </trkpt>
      <trkpt lat="42.87348" lon="0.10063">
        <ele>2319</ele>
        <time>2013-05-04T09:18:00Z</time>
      </trkpt>
      <trkpt lat="42.87347" lon="0.1007">
        <ele>2319</ele>
        <time>2013-05-04T09:18:09Z</time>
      </trkpt>
      <trkpt lat="42.87344" lon="0.10091">
        <ele>2317</ele>
        <time>2013-05-04T09:18:15Z</time>
      </trkpt>
      <trkpt lat="42.87344" lon="0.10096">
        <ele>2317</ele>
        <time>2013-05-04T09:18:18Z</time>
      </trkpt>
      <trkpt lat="42.87346" lon="0.10106">
        <ele>2316</ele>
        <time>2013-05-04T09:18:26Z</time>
      </trkpt>
      <trkpt lat="42.87352" lon="0.10108">
        <ele>2312</ele>
        <time>2013-05-04T09:18:29Z</time>
      </trkpt>
      <trkpt lat="42.87354" lon="0.10108">
        <ele>2311</ele>
        <time>2013-05-04T09:18:31Z</time>
      </trkpt>
      <trkpt lat="42.87355" lon="0.10107">
        <ele>2310</ele>
        <time>2013-05-04T09:18:32Z</time>
      </trkpt>
      <trkpt lat="42.87363" lon="0.10087">
        <ele>2307</ele>
        <time>2013-05-04T09:18:38Z</time>
      </trkpt>
      <trkpt lat="42.87366" lon="0.10078">
        <ele>2306</ele>
        <time>2013-05-04T09:18:40Z</time>
      </trkpt>
      <trkpt lat="42.8737" lon="0.10072">
        <ele>2304</ele>
        <time>2013-05-04T09:18:42Z</time>
      </trkpt>
      <trkpt lat="42.87372" lon="0.1008">
        <ele>2300</ele>
        <time>2013-05-04T09:18:45Z</time>
      </trkpt>
      <trkpt lat="42.87374" lon="0.10081">
        <ele>2296</ele>
        <time>2013-05-04T09:18:48Z</time>
      </trkpt>
      <trkpt lat="42.87381" lon="0.10081">
        <ele>2293</ele>
        <time>2013-05-04T09:18:51Z</time>
      </trkpt>
      <trkpt lat="42.87382" lon="0.10088">
        <ele>2290</ele>
        <time>2013-05-04T09:18:53Z</time>
      </trkpt>
      <trkpt lat="42.87385" lon="0.10089">
        <ele>2289</ele>
        <time>2013-05-04T09:18:54Z</time>
      </trkpt>
      <trkpt lat="42.87387" lon="0.10087">
        <ele>2286</ele>
        <time>2013-05-04T09:18:55Z</time>
      </trkpt>
      <trkpt lat="42.87394" lon="0.10083">
        <ele>2282</ele>
        <time>2013-05-04T09:18:58Z</time>
      </trkpt>
      <trkpt lat="42.87396" lon="0.10093">
        <ele>2277</ele>
        <time>2013-05-04T09:19:01Z</time>
      </trkpt>
      <trkpt lat="42.87398" lon="0.10095">
        <ele>2274</ele>
        <time>2013-05-04T09:19:03Z</time>
      </trkpt>
      <trkpt lat="42.87403" lon="0.1009">
        <ele>2273</ele>
        <time>2013-05-04T09:19:09Z</time>
      </trkpt>
      <trkpt lat="42.87405" lon="0.10091">
        <ele>2274</ele>
        <time>2013-05-04T09:19:11Z</time>
      </trkpt>
      <trkpt lat="42.87407" lon="0.10097">
        <ele>2271</ele>
        <time>2013-05-04T09:19:15Z</time>
      </trkpt>
      <trkpt lat="42.87407" lon="0.101">
        <ele>2269</ele>
        <time>2013-05-04T09:19:16Z</time>
      </trkpt>
      <trkpt lat="42.87405" lon="0.10113">
        <ele>2266</ele>
        <time>2013-05-04T09:19:20Z</time>
      </trkpt>
      <trkpt lat="42.87404" lon="0.10124">
        <ele>2264</ele>
        <time>2013-05-04T09:19:24Z</time>
      </trkpt>
      <trkpt lat="42.87404" lon="0.10127">
        <ele>2263</ele>
        <time>2013-05-04T09:19:28Z</time>
      </trkpt>
      <trkpt lat="42.87416" lon="0.10129">
        <ele>2259</ele>
        <time>2013-05-04T09:19:32Z</time>
      </trkpt>
      <trkpt lat="42.8742" lon="0.10131">
        <ele>2256</ele>
        <time>2013-05-04T09:19:34Z</time>
      </trkpt>
      <trkpt lat="42.87423" lon="0.10138">
        <ele>2253</ele>
        <time>2013-05-04T09:19:36Z</time>
      </trkpt>
      <trkpt lat="42.8743" lon="0.10136">
        <ele>2249</ele>
        <time>2013-05-04T09:19:38Z</time>
      </trkpt>
      <trkpt lat="42.87436" lon="0.10139">
        <ele>2245</ele>
        <time>2013-05-04T09:19:40Z</time>
      </trkpt>
      <trkpt lat="42.87444" lon="0.10139">
        <ele>2241</ele>
        <time>2013-05-04T09:19:42Z</time>
      </trkpt>
      <trkpt lat="42.87448" lon="0.10139">
        <ele>2239</ele>
        <time>2013-05-04T09:19:43Z</time>
      </trkpt>
      <trkpt lat="42.87453" lon="0.10143">
        <ele>2238</ele>
        <time>2013-05-04T09:19:45Z</time>
      </trkpt>
      <trkpt lat="42.87456" lon="0.10149">
        <ele>2237</ele>
        <time>2013-05-04T09:19:46Z</time>
      </trkpt>
      <trkpt lat="42.87456" lon="0.10155">
        <ele>2234</ele>
        <time>2013-05-04T09:19:47Z</time>
      </trkpt>
      <trkpt lat="42.87457" lon="0.1016">
        <ele>2233</ele>
        <time>2013-05-04T09:19:48Z</time>
      </trkpt>
      <trkpt lat="42.87455" lon="0.10182">
        <ele>2230</ele>
        <time>2013-05-04T09:19:52Z</time>
      </trkpt>
      <trkpt lat="42.87455" lon="0.10185">
        <ele>2228</ele>
        <time>2013-05-04T09:19:53Z</time>
      </trkpt>
      <trkpt lat="42.87467" lon="0.10191">
        <ele>2225</ele>
        <time>2013-05-04T09:19:55Z</time>
      </trkpt>
      <trkpt lat="42.87474" lon="0.10194">
        <ele>2224</ele>
        <time>2013-05-04T09:19:56Z</time>
      </trkpt>
      <trkpt lat="42.87499" lon="0.10211">
        <ele>2219</ele>
        <time>2013-05-04T09:19:59Z</time>
      </trkpt>
      <trkpt lat="42.87507" lon="0.10217">
        <ele>2218</ele>
        <time>2013-05-04T09:20:00Z</time>
      </trkpt>
      <trkpt lat="42.87517" lon="0.10228">
        <ele>2216</ele>
        <time>2013-05-04T09:20:02Z</time>
      </trkpt>
      <trkpt lat="42.87526" lon="0.10234">
        <ele>2215</ele>
        <time>2013-05-04T09:20:05Z</time>
      </trkpt>
      <trkpt lat="42.87526" lon="0.10244">
        <ele>2214</ele>
        <time>2013-05-04T09:20:09Z</time>
      </trkpt>
      <trkpt lat="42.87529" lon="0.10249">
        <ele>2213</ele>
        <time>2013-05-04T09:20:15Z</time>
      </trkpt>
      <trkpt lat="42.87534" lon="0.1026">
        <ele>2214</ele>
        <time>2013-05-04T09:20:29Z</time>
      </trkpt>
      <trkpt lat="42.87534" lon="0.10262">
        <ele>2214</ele>
        <time>2013-05-04T09:20:42Z</time>
      </trkpt>
      <trkpt lat="42.87535" lon="0.10264">
        <ele>2214</ele>
        <time>2013-05-04T09:20:59Z</time>
      </trkpt>
      <trkpt lat="42.87533" lon="0.10263">
        <ele>2214</ele>
        <time>2013-05-04T09:21:11Z</time>
      </trkpt>
      <trkpt lat="42.87534" lon="0.10263">
        <ele>2214</ele>
        <time>2013-05-04T09:21:13Z</time>
      </trkpt>
      <trkpt lat="42.87534" lon="0.10276">
        <ele>2212</ele>
        <time>2013-05-04T09:21:18Z</time>
      </trkpt>
      <trkpt lat="42.87542" lon="0.10289">
        <ele>2210</ele>
        <time>2013-05-04T09:21:21Z</time>
      </trkpt>
      <trkpt lat="42.87553" lon="0.10301">
        <ele>2203</ele>
        <time>2013-05-04T09:21:24Z</time>
      </trkpt>
      <trkpt lat="42.87568" lon="0.10313">
        <ele>2200</ele>
        <time>2013-05-04T09:21:27Z</time>
      </trkpt>
      <trkpt lat="42.87584" lon="0.10319">
        <ele>2195</ele>
        <time>2013-05-04T09:21:30Z</time>
      </trkpt>
      <trkpt lat="42.87601" lon="0.10329">
        <ele>2190</ele>
        <time>2013-05-04T09:21:33Z</time>
      </trkpt>
      <trkpt lat="42.87615" lon="0.1034">
        <ele>2186</ele>
        <time>2013-05-04T09:21:36Z</time>
      </trkpt>
      <trkpt lat="42.87621" lon="0.10347">
        <ele>2182</ele>
        <time>2013-05-04T09:21:38Z</time>
      </trkpt>
      <trkpt lat="42.87633" lon="0.10364">
        <ele>2178</ele>
        <time>2013-05-04T09:21:42Z</time>
      </trkpt>
      <trkpt lat="42.87636" lon="0.10381">
        <ele>2177</ele>
        <time>2013-05-04T09:21:45Z</time>
      </trkpt>
      <trkpt lat="42.87635" lon="0.10394">
        <ele>2177</ele>
        <time>2013-05-04T09:21:49Z</time>
      </trkpt>
      <trkpt lat="42.87645" lon="0.10405">
        <ele>2172</ele>
        <time>2013-05-04T09:21:52Z</time>
      </trkpt>
      <trkpt lat="42.87649" lon="0.1041">
        <ele>2170</ele>
        <time>2013-05-04T09:21:53Z</time>
      </trkpt>
      <trkpt lat="42.87657" lon="0.10421">
        <ele>2168</ele>
        <time>2013-05-04T09:21:55Z</time>
      </trkpt>
      <trkpt lat="42.87666" lon="0.10439">
        <ele>2167</ele>
        <time>2013-05-04T09:21:58Z</time>
      </trkpt>
      <trkpt lat="42.87673" lon="0.10458">
        <ele>2166</ele>
        <time>2013-05-04T09:22:03Z</time>
      </trkpt>
      <trkpt lat="42.87675" lon="0.10466">
        <ele>2165</ele>
        <time>2013-05-04T09:22:05Z</time>
      </trkpt>
      <trkpt lat="42.87686" lon="0.1048">
        <ele>2161</ele>
        <time>2013-05-04T09:22:09Z</time>
      </trkpt>
      <trkpt lat="42.87696" lon="0.10494">
        <ele>2158</ele>
        <time>2013-05-04T09:22:12Z</time>
      </trkpt>
      <trkpt lat="42.87697" lon="0.10498">
        <ele>2158</ele>
        <time>2013-05-04T09:22:13Z</time>
      </trkpt>
      <trkpt lat="42.87702" lon="0.10511">
        <ele>2156</ele>
        <time>2013-05-04T09:22:16Z</time>
      </trkpt>
      <trkpt lat="42.87707" lon="0.10526">
        <ele>2153</ele>
        <time>2013-05-04T09:22:19Z</time>
      </trkpt>
      <trkpt lat="42.87712" lon="0.10533">
        <ele>2151</ele>
        <time>2013-05-04T09:22:21Z</time>
      </trkpt>
      <trkpt lat="42.8771" lon="0.10538">
        <ele>2150</ele>
        <time>2013-05-04T09:22:26Z</time>
      </trkpt>
      <trkpt lat="42.87712" lon="0.10534">
        <ele>2150</ele>
        <time>2013-05-04T09:22:37Z</time>
      </trkpt>
      <trkpt lat="42.87713" lon="0.10533">
        <ele>2150</ele>
        <time>2013-05-04T09:22:49Z</time>
      </trkpt>
      <trkpt lat="42.87715" lon="0.10533">
        <ele>2150</ele>
        <time>2013-05-04T09:22:54Z</time>
      </trkpt>
      <trkpt lat="42.87716" lon="0.10544">
        <ele>2148</ele>
        <time>2013-05-04T09:22:59Z</time>
      </trkpt>
      <trkpt lat="42.87714" lon="0.10556">
        <ele>2146</ele>
        <time>2013-05-04T09:23:02Z</time>
      </trkpt>
      <trkpt lat="42.87714" lon="0.1057">
        <ele>2143</ele>
        <time>2013-05-04T09:23:06Z</time>
      </trkpt>
      <trkpt lat="42.87713" lon="0.10581">
        <ele>2141</ele>
        <time>2013-05-04T09:23:09Z</time>
      </trkpt>
      <trkpt lat="42.87717" lon="0.10594">
        <ele>2137</ele>
        <time>2013-05-04T09:23:12Z</time>
      </trkpt>
      <trkpt lat="42.87719" lon="0.10597">
        <ele>2135</ele>
        <time>2013-05-04T09:23:14Z</time>
      </trkpt>
      <trkpt lat="42.8772" lon="0.10617">
        <ele>2129</ele>
        <time>2013-05-04T09:23:19Z</time>
      </trkpt>
      <trkpt lat="42.87721" lon="0.10634">
        <ele>2128</ele>
        <time>2013-05-04T09:23:26Z</time>
      </trkpt>
      <trkpt lat="42.87718" lon="0.10645">
        <ele>2127</ele>
        <time>2013-05-04T09:23:33Z</time>
      </trkpt>
      <trkpt lat="42.87718" lon="0.10646">
        <ele>2126</ele>
        <time>2013-05-04T09:23:45Z</time>
      </trkpt>
      <trkpt lat="42.87718" lon="0.10652">
        <ele>2125</ele>
        <time>2013-05-04T09:23:52Z</time>
      </trkpt>
      <trkpt lat="42.87717" lon="0.1066">
        <ele>2124</ele>
        <time>2013-05-04T09:23:54Z</time>
      </trkpt>
      <trkpt lat="42.87716" lon="0.10671">
        <ele>2122</ele>
        <time>2013-05-04T09:23:56Z</time>
      </trkpt>
      <trkpt lat="42.87716" lon="0.10684">
        <ele>2121</ele>
        <time>2013-05-04T09:23:59Z</time>
      </trkpt>
      <trkpt lat="42.87719" lon="0.10709">
        <ele>2118</ele>
        <time>2013-05-04T09:24:04Z</time>
      </trkpt>
      <trkpt lat="42.87729" lon="0.10709">
        <ele>2115</ele>
        <time>2013-05-04T09:24:08Z</time>
      </trkpt>
      <trkpt lat="42.87731" lon="0.10706">
        <ele>2113</ele>
        <time>2013-05-04T09:24:09Z</time>
      </trkpt>
      <trkpt lat="42.87737" lon="0.10705">
        <ele>2108</ele>
        <time>2013-05-04T09:24:13Z</time>
      </trkpt>
      <trkpt lat="42.87739" lon="0.10704">
        <ele>2106</ele>
        <time>2013-05-04T09:24:14Z</time>
      </trkpt>
      <trkpt lat="42.87747" lon="0.10708">
        <ele>2099</ele>
        <time>2013-05-04T09:24:19Z</time>
      </trkpt>
      <trkpt lat="42.87749" lon="0.10709">
        <ele>2098</ele>
        <time>2013-05-04T09:24:20Z</time>
      </trkpt>
      <trkpt lat="42.87757" lon="0.1071">
        <ele>2096</ele>
        <time>2013-05-04T09:24:22Z</time>
      </trkpt>
      <trkpt lat="42.87762" lon="0.10717">
        <ele>2091</ele>
        <time>2013-05-04T09:24:26Z</time>
      </trkpt>
      <trkpt lat="42.87762" lon="0.10721">
        <ele>2090</ele>
        <time>2013-05-04T09:24:27Z</time>
      </trkpt>
      <trkpt lat="42.87763" lon="0.1073">
        <ele>2090</ele>
        <time>2013-05-04T09:24:29Z</time>
      </trkpt>
      <trkpt lat="42.87769" lon="0.10747">
        <ele>2088</ele>
        <time>2013-05-04T09:24:34Z</time>
      </trkpt>
      <trkpt lat="42.87774" lon="0.10769">
        <ele>2086</ele>
        <time>2013-05-04T09:24:40Z</time>
      </trkpt>
      <trkpt lat="42.87775" lon="0.10792">
        <ele>2083</ele>
        <time>2013-05-04T09:24:46Z</time>
      </trkpt>
      <trkpt lat="42.87776" lon="0.1081">
        <ele>2081</ele>
        <time>2013-05-04T09:24:53Z</time>
      </trkpt>
      <trkpt lat="42.87775" lon="0.10831">
        <ele>2079</ele>
        <time>2013-05-04T09:25:00Z</time>
      </trkpt>
      <trkpt lat="42.87773" lon="0.10834">
        <ele>2078</ele>
        <time>2013-05-04T09:25:06Z</time>
      </trkpt>
      <trkpt lat="42.87772" lon="0.10834">
        <ele>2078</ele>
        <time>2013-05-04T09:25:19Z</time>
      </trkpt>
      <trkpt lat="42.87772" lon="0.1084">
        <ele>2078</ele>
        <time>2013-05-04T09:25:26Z</time>
      </trkpt>
      <trkpt lat="42.8777" lon="0.10845">
        <ele>2078</ele>
        <time>2013-05-04T09:25:32Z</time>
      </trkpt>
      <trkpt lat="42.87771" lon="0.10847">
        <ele>2078</ele>
        <time>2013-05-04T09:25:44Z</time>
      </trkpt>
      <trkpt lat="42.8777" lon="0.10849">
        <ele>2077</ele>
        <time>2013-05-04T09:25:59Z</time>
      </trkpt>
      <trkpt lat="42.8777" lon="0.1085">
        <ele>2076</ele>
        <time>2013-05-04T09:26:00Z</time>
      </trkpt>
      <trkpt lat="42.87764" lon="0.10873">
        <ele>2072</ele>
        <time>2013-05-04T09:26:08Z</time>
      </trkpt>
      <trkpt lat="42.87759" lon="0.10892">
        <ele>2068</ele>
        <time>2013-05-04T09:26:12Z</time>
      </trkpt>
      <trkpt lat="42.87754" lon="0.10901">
        <ele>2065</ele>
        <time>2013-05-04T09:26:15Z</time>
      </trkpt>
      <trkpt lat="42.87749" lon="0.10912">
        <ele>2063</ele>
        <time>2013-05-04T09:26:20Z</time>
      </trkpt>
      <trkpt lat="42.87748" lon="0.10914">
        <ele>2063</ele>
        <time>2013-05-04T09:26:28Z</time>
      </trkpt>
      <trkpt lat="42.87748" lon="0.10914">
        <ele>2063</ele>
        <time>2013-05-04T09:26:36Z</time>
      </trkpt>
      <trkpt lat="42.87748" lon="0.10916">
        <ele>2063</ele>
        <time>2013-05-04T09:26:39Z</time>
      </trkpt>
      <trkpt lat="42.87738" lon="0.10928">
        <ele>2061</ele>
        <time>2013-05-04T09:26:46Z</time>
      </trkpt>
      <trkpt lat="42.87738" lon="0.1093">
        <ele>2060</ele>
        <time>2013-05-04T09:26:53Z</time>
      </trkpt>
      <trkpt lat="42.87736" lon="0.10933">
        <ele>2060</ele>
        <time>2013-05-04T09:27:00Z</time>
      </trkpt>
      <trkpt lat="42.87734" lon="0.10938">
        <ele>2059</ele>
        <time>2013-05-04T09:27:05Z</time>
      </trkpt>
      <trkpt lat="42.8773" lon="0.10946">
        <ele>2058</ele>
        <time>2013-05-04T09:27:12Z</time>
      </trkpt>
      <trkpt lat="42.87721" lon="0.1096">
        <ele>2055</ele>
        <time>2013-05-04T09:27:21Z</time>
      </trkpt>
      <trkpt lat="42.87715" lon="0.10982">
        <ele>2053</ele>
        <time>2013-05-04T09:27:27Z</time>
      </trkpt>
      <trkpt lat="42.87713" lon="0.10992">
        <ele>2051</ele>
        <time>2013-05-04T09:27:28Z</time>
      </trkpt>
      <trkpt lat="42.87713" lon="0.11013">
        <ele>2050</ele>
        <time>2013-05-04T09:27:31Z</time>
      </trkpt>
      <trkpt lat="42.87712" lon="0.11019">
        <ele>2049</ele>
        <time>2013-05-04T09:27:32Z</time>
      </trkpt>
      <trkpt lat="42.87711" lon="0.11045">
        <ele>2048</ele>
        <time>2013-05-04T09:27:37Z</time>
      </trkpt>
      <trkpt lat="42.87712" lon="0.11047">
        <ele>2048</ele>
        <time>2013-05-04T09:27:38Z</time>
      </trkpt>
      <trkpt lat="42.87722" lon="0.11049">
        <ele>2048</ele>
        <time>2013-05-04T09:27:47Z</time>
      </trkpt>
      <trkpt lat="42.87733" lon="0.11062">
        <ele>2046</ele>
        <time>2013-05-04T09:27:53Z</time>
      </trkpt>
      <trkpt lat="42.87734" lon="0.11068">
        <ele>2044</ele>
        <time>2013-05-04T09:27:58Z</time>
      </trkpt>
      <trkpt lat="42.87734" lon="0.1107">
        <ele>2043</ele>
        <time>2013-05-04T09:28:08Z</time>
      </trkpt>
      <trkpt lat="42.87735" lon="0.11072">
        <ele>2044</ele>
        <time>2013-05-04T09:28:18Z</time>
      </trkpt>
      <trkpt lat="42.87734" lon="0.11081">
        <ele>2043</ele>
        <time>2013-05-04T09:28:24Z</time>
      </trkpt>
      <trkpt lat="42.87733" lon="0.11091">
        <ele>2041</ele>
        <time>2013-05-04T09:28:29Z</time>
      </trkpt>
      <trkpt lat="42.87732" lon="0.11105">
        <ele>2040</ele>
        <time>2013-05-04T09:28:35Z</time>
      </trkpt>
      <trkpt lat="42.87731" lon="0.11117">
        <ele>2041</ele>
        <time>2013-05-04T09:28:42Z</time>
      </trkpt>
      <trkpt lat="42.8773" lon="0.11125">
        <ele>2041</ele>
        <time>2013-05-04T09:28:50Z</time>
      </trkpt>
      <trkpt lat="42.8773" lon="0.11129">
        <ele>2041</ele>
        <time>2013-05-04T09:28:57Z</time>
      </trkpt>
      <trkpt lat="42.87729" lon="0.11135">
        <ele>2041</ele>
        <time>2013-05-04T09:29:05Z</time>
      </trkpt>
      <trkpt lat="42.87727" lon="0.1114">
        <ele>2041</ele>
        <time>2013-05-04T09:29:11Z</time>
      </trkpt>
      <trkpt lat="42.87726" lon="0.11141">
        <ele>2041</ele>
        <time>2013-05-04T09:29:12Z</time>
      </trkpt>
      <trkpt lat="42.87723" lon="0.11157">
        <ele>2040</ele>
        <time>2013-05-04T09:29:20Z</time>
      </trkpt>
      <trkpt lat="42.87724" lon="0.11164">
        <ele>2038</ele>
        <time>2013-05-04T09:29:28Z</time>
      </trkpt>
      <trkpt lat="42.87723" lon="0.11165">
        <ele>2038</ele>
        <time>2013-05-04T09:29:31Z</time>
      </trkpt>
      <trkpt lat="42.87723" lon="0.11169">
        <ele>2037</ele>
        <time>2013-05-04T09:29:34Z</time>
      </trkpt>
      <trkpt lat="42.87723" lon="0.11181">
        <ele>2036</ele>
        <time>2013-05-04T09:29:39Z</time>
      </trkpt>
      <trkpt lat="42.87723" lon="0.1118">
        <ele>2035</ele>
        <time>2013-05-04T09:29:45Z</time>
      </trkpt>
      <trkpt lat="42.87725" lon="0.11182">
        <ele>2035</ele>
        <time>2013-05-04T09:29:59Z</time>
      </trkpt>
      <trkpt lat="42.87732" lon="0.11197">
        <ele>2031</ele>
        <time>2013-05-04T09:30:06Z</time>
      </trkpt>
      <trkpt lat="42.87738" lon="0.11204">
        <ele>2027</ele>
        <time>2013-05-04T09:30:09Z</time>
      </trkpt>
      <trkpt lat="42.87746" lon="0.11207">
        <ele>2022</ele>
        <time>2013-05-04T09:30:12Z</time>
      </trkpt>
      <trkpt lat="42.87753" lon="0.11205">
        <ele>2019</ele>
        <time>2013-05-04T09:30:15Z</time>
      </trkpt>
      <trkpt lat="42.87755" lon="0.11211">
        <ele>2016</ele>
        <time>2013-05-04T09:30:18Z</time>
      </trkpt>
      <trkpt lat="42.87755" lon="0.11214">
        <ele>2016</ele>
        <time>2013-05-04T09:30:25Z</time>
      </trkpt>
      <trkpt lat="42.87755" lon="0.11215">
        <ele>2016</ele>
        <time>2013-05-04T09:30:26Z</time>
      </trkpt>
      <trkpt lat="42.8776" lon="0.11213">
        <ele>2013</ele>
        <time>2013-05-04T09:30:30Z</time>
      </trkpt>
      <trkpt lat="42.87761" lon="0.11211">
        <ele>2012</ele>
        <time>2013-05-04T09:30:32Z</time>
      </trkpt>
      <trkpt lat="42.87763" lon="0.11207">
        <ele>2008</ele>
        <time>2013-05-04T09:30:35Z</time>
      </trkpt>
      <trkpt lat="42.87769" lon="0.11205">
        <ele>2004</ele>
        <time>2013-05-04T09:30:39Z</time>
      </trkpt>
      <trkpt lat="42.87771" lon="0.11203">
        <ele>2003</ele>
        <time>2013-05-04T09:30:43Z</time>
      </trkpt>
      <trkpt lat="42.87773" lon="0.11201">
        <ele>1999</ele>
        <time>2013-05-04T09:30:46Z</time>
      </trkpt>
      <trkpt lat="42.87778" lon="0.11195">
        <ele>1996</ele>
        <time>2013-05-04T09:30:50Z</time>
      </trkpt>
      <trkpt lat="42.87784" lon="0.11186">
        <ele>1992</ele>
        <time>2013-05-04T09:30:57Z</time>
      </trkpt>
      <trkpt lat="42.87784" lon="0.11184">
        <ele>1991</ele>
        <time>2013-05-04T09:30:59Z</time>
      </trkpt>
      <trkpt lat="42.87787" lon="0.11165">
        <ele>1989</ele>
        <time>2013-05-04T09:31:06Z</time>
      </trkpt>
      <trkpt lat="42.87796" lon="0.11167">
        <ele>1983</ele>
        <time>2013-05-04T09:31:11Z</time>
      </trkpt>
      <trkpt lat="42.87801" lon="0.11167">
        <ele>1979</ele>
        <time>2013-05-04T09:31:14Z</time>
      </trkpt>
      <trkpt lat="42.87803" lon="0.11167">
        <ele>1977</ele>
        <time>2013-05-04T09:31:17Z</time>
      </trkpt>
      <trkpt lat="42.8781" lon="0.11163">
        <ele>1972</ele>
        <time>2013-05-04T09:31:21Z</time>
      </trkpt>
      <trkpt lat="42.87814" lon="0.11162">
        <ele>1968</ele>
        <time>2013-05-04T09:31:24Z</time>
      </trkpt>
      <trkpt lat="42.87818" lon="0.11158">
        <ele>1966</ele>
        <time>2013-05-04T09:31:26Z</time>
      </trkpt>
      <trkpt lat="42.87825" lon="0.11157">
        <ele>1962</ele>
        <time>2013-05-04T09:31:29Z</time>
      </trkpt>
      <trkpt lat="42.87831" lon="0.11155">
        <ele>1957</ele>
        <time>2013-05-04T09:31:32Z</time>
      </trkpt>
      <trkpt lat="42.87832" lon="0.11154">
        <ele>1957</ele>
        <time>2013-05-04T09:31:40Z</time>
      </trkpt>
      <trkpt lat="42.8783" lon="0.11154">
        <ele>1957</ele>
        <time>2013-05-04T09:31:53Z</time>
      </trkpt>
      <trkpt lat="42.87828" lon="0.11155">
        <ele>1957</ele>
        <time>2013-05-04T09:32:03Z</time>
      </trkpt>
      <trkpt lat="42.87827" lon="0.11155">
        <ele>1957</ele>
        <time>2013-05-04T09:32:14Z</time>
      </trkpt>
      <trkpt lat="42.87829" lon="0.11155">
        <ele>1956</ele>
        <time>2013-05-04T09:32:16Z</time>
      </trkpt>
      <trkpt lat="42.87833" lon="0.11147">
        <ele>1954</ele>
        <time>2013-05-04T09:32:19Z</time>
      </trkpt>
      <trkpt lat="42.87836" lon="0.11145">
        <ele>1952</ele>
        <time>2013-05-04T09:32:21Z</time>
      </trkpt>
      <trkpt lat="42.87846" lon="0.11154">
        <ele>1947</ele>
        <time>2013-05-04T09:32:25Z</time>
      </trkpt>
      <trkpt lat="42.87848" lon="0.11151">
        <ele>1945</ele>
        <time>2013-05-04T09:32:26Z</time>
      </trkpt>
      <trkpt lat="42.87859" lon="0.11151">
        <ele>1938</ele>
        <time>2013-05-04T09:32:31Z</time>
      </trkpt>
      <trkpt lat="42.87863" lon="0.11154">
        <ele>1935</ele>
        <time>2013-05-04T09:32:33Z</time>
      </trkpt>
      <trkpt lat="42.87867" lon="0.1117">
        <ele>1932</ele>
        <time>2013-05-04T09:32:37Z</time>
      </trkpt>
      <trkpt lat="42.87878" lon="0.11176">
        <ele>1928</ele>
        <time>2013-05-04T09:32:40Z</time>
      </trkpt>
      <trkpt lat="42.8788" lon="0.11174">
        <ele>1927</ele>
        <time>2013-05-04T09:32:41Z</time>
      </trkpt>
      <trkpt lat="42.87882" lon="0.11173">
        <ele>1926</ele>
        <time>2013-05-04T09:32:42Z</time>
      </trkpt>
      <trkpt lat="42.87881" lon="0.11174">
        <ele>1924</ele>
        <time>2013-05-04T09:32:45Z</time>
      </trkpt>
      <trkpt lat="42.87886" lon="0.11173">
        <ele>1921</ele>
        <time>2013-05-04T09:32:49Z</time>
      </trkpt>
      <trkpt lat="42.87893" lon="0.11171">
        <ele>1918</ele>
        <time>2013-05-04T09:32:52Z</time>
      </trkpt>
      <trkpt lat="42.87903" lon="0.1117">
        <ele>1913</ele>
        <time>2013-05-04T09:32:55Z</time>
      </trkpt>
      <trkpt lat="42.87908" lon="0.11172">
        <ele>1911</ele>
        <time>2013-05-04T09:32:57Z</time>
      </trkpt>
      <trkpt lat="42.87916" lon="0.11178">
        <ele>1908</ele>
        <time>2013-05-04T09:32:59Z</time>
      </trkpt>
      <trkpt lat="42.87932" lon="0.11167">
        <ele>1906</ele>
        <time>2013-05-04T09:33:04Z</time>
      </trkpt>
      <trkpt lat="42.87938" lon="0.11169">
        <ele>1905</ele>
        <time>2013-05-04T09:33:09Z</time>
      </trkpt>
      <trkpt lat="42.8794" lon="0.11174">
        <ele>1905</ele>
        <time>2013-05-04T09:33:12Z</time>
      </trkpt>
      <trkpt lat="42.87935" lon="0.11179">
        <ele>1904</ele>
        <time>2013-05-04T09:33:14Z</time>
      </trkpt>
      <trkpt lat="42.87938" lon="0.11187">
        <ele>1903</ele>
        <time>2013-05-04T09:33:16Z</time>
      </trkpt>
      <trkpt lat="42.87951" lon="0.11197">
        <ele>1899</ele>
        <time>2013-05-04T09:33:20Z</time>
      </trkpt>
      <trkpt lat="42.87954" lon="0.11197">
        <ele>1898</ele>
        <time>2013-05-04T09:33:21Z</time>
      </trkpt>
      <trkpt lat="42.87959" lon="0.11205">
        <ele>1897</ele>
        <time>2013-05-04T09:33:28Z</time>
      </trkpt>
      <trkpt lat="42.87957" lon="0.11212">
        <ele>1897</ele>
        <time>2013-05-04T09:33:45Z</time>
      </trkpt>
      <trkpt lat="42.87958" lon="0.11214">
        <ele>1897</ele>
        <time>2013-05-04T09:33:54Z</time>
      </trkpt>
      <trkpt lat="42.87965" lon="0.1122">
        <ele>1895</ele>
        <time>2013-05-04T09:34:01Z</time>
      </trkpt>
      <trkpt lat="42.87967" lon="0.11223">
        <ele>1896</ele>
        <time>2013-05-04T09:34:07Z</time>
      </trkpt>
      <trkpt lat="42.87966" lon="0.11222">
        <ele>1893</ele>
        <time>2013-05-04T09:34:12Z</time>
      </trkpt>
      <trkpt lat="42.87966" lon="0.11222">
        <ele>1892</ele>
        <time>2013-05-04T09:34:21Z</time>
      </trkpt>
      <trkpt lat="42.87966" lon="0.11223">
        <ele>1892</ele>
        <time>2013-05-04T09:34:22Z</time>
      </trkpt>
      <trkpt lat="42.87966" lon="0.11225">
        <ele>1892</ele>
        <time>2013-05-04T09:34:25Z</time>
      </trkpt>
      <trkpt lat="42.8797" lon="0.11228">
        <ele>1887</ele>
        <time>2013-05-04T09:34:28Z</time>
      </trkpt>
      <trkpt lat="42.87971" lon="0.11228">
        <ele>1886</ele>
        <time>2013-05-04T09:34:29Z</time>
      </trkpt>
      <trkpt lat="42.8797" lon="0.11235">
        <ele>1884</ele>
        <time>2013-05-04T09:34:33Z</time>
      </trkpt>
      <trkpt lat="42.87974" lon="0.11236">
        <ele>1880</ele>
        <time>2013-05-04T09:34:36Z</time>
      </trkpt>
      <trkpt lat="42.87976" lon="0.11241">
        <ele>1880</ele>
        <time>2013-05-04T09:34:45Z</time>
      </trkpt>
      <trkpt lat="42.87977" lon="0.11241">
        <ele>1880</ele>
        <time>2013-05-04T09:34:48Z</time>
      </trkpt>
      <trkpt lat="42.87983" lon="0.11241">
        <ele>1877</ele>
        <time>2013-05-04T09:34:53Z</time>
      </trkpt>
      <trkpt lat="42.87981" lon="0.11247">
        <ele>1877</ele>
        <time>2013-05-04T09:35:08Z</time>
      </trkpt>
      <trkpt lat="42.87987" lon="0.11241">
        <ele>1876</ele>
        <time>2013-05-04T09:35:16Z</time>
      </trkpt>
      <trkpt lat="42.87999" lon="0.11224">
        <ele>1872</ele>
        <time>2013-05-04T09:35:20Z</time>
      </trkpt>
      <trkpt lat="42.88014" lon="0.11208">
        <ele>1870</ele>
        <time>2013-05-04T09:35:26Z</time>
      </trkpt>
      <trkpt lat="42.88018" lon="0.112">
        <ele>1868</ele>
        <time>2013-05-04T09:35:29Z</time>
      </trkpt>
      <trkpt lat="42.88022" lon="0.11194">
        <ele>1866</ele>
        <time>2013-05-04T09:35:32Z</time>
      </trkpt>
      <trkpt lat="42.88024" lon="0.11196">
        <ele>1865</ele>
        <time>2013-05-04T09:35:39Z</time>
      </trkpt>
      <trkpt lat="42.8802" lon="0.11199">
        <ele>1865</ele>
        <time>2013-05-04T09:35:49Z</time>
      </trkpt>
      <trkpt lat="42.88029" lon="0.11187">
        <ele>1863</ele>
        <time>2013-05-04T09:35:54Z</time>
      </trkpt>
      <trkpt lat="42.88035" lon="0.11175">
        <ele>1861</ele>
        <time>2013-05-04T09:35:59Z</time>
      </trkpt>
      <trkpt lat="42.88038" lon="0.11172">
        <ele>1860</ele>
        <time>2013-05-04T09:36:04Z</time>
      </trkpt>
      <trkpt lat="42.88038" lon="0.11169">
        <ele>1860</ele>
        <time>2013-05-04T09:36:16Z</time>
      </trkpt>
      <trkpt lat="42.88038" lon="0.11167">
        <ele>1859</ele>
        <time>2013-05-04T09:36:36Z</time>
      </trkpt>
      <trkpt lat="42.88031" lon="0.11168">
        <ele>1860</ele>
        <time>2013-05-04T09:36:46Z</time>
      </trkpt>
      <trkpt lat="42.88033" lon="0.11161">
        <ele>1859</ele>
        <time>2013-05-04T09:37:00Z</time>
      </trkpt>
      <trkpt lat="42.88038" lon="0.11154">
        <ele>1857</ele>
        <time>2013-05-04T09:37:05Z</time>
      </trkpt>
      <trkpt lat="42.8804" lon="0.11153">
        <ele>1855</ele>
        <time>2013-05-04T09:37:10Z</time>
      </trkpt>
      <trkpt lat="42.88039" lon="0.11152">
        <ele>1854</ele>
        <time>2013-05-04T09:37:12Z</time>
      </trkpt>
      <trkpt lat="42.88039" lon="0.11152">
        <ele>1853</ele>
        <time>2013-05-04T09:37:14Z</time>
      </trkpt>
      <trkpt lat="42.88053" lon="0.11147">
        <ele>1849</ele>
        <time>2013-05-04T09:37:18Z</time>
      </trkpt>
      <trkpt lat="42.88075" lon="0.11136">
        <ele>1844</ele>
        <time>2013-05-04T09:37:24Z</time>
      </trkpt>
      <trkpt lat="42.88077" lon="0.11142">
        <ele>1841</ele>
        <time>2013-05-04T09:37:28Z</time>
      </trkpt>
      <trkpt lat="42.88077" lon="0.11157">
        <ele>1836</ele>
        <time>2013-05-04T09:37:31Z</time>
      </trkpt>
      <trkpt lat="42.88092" lon="0.11161">
        <ele>1832</ele>
        <time>2013-05-04T09:37:35Z</time>
      </trkpt>
      <trkpt lat="42.88105" lon="0.11151">
        <ele>1831</ele>
        <time>2013-05-04T09:37:39Z</time>
      </trkpt>
      <trkpt lat="42.88111" lon="0.11144">
        <ele>1831</ele>
        <time>2013-05-04T09:37:47Z</time>
      </trkpt>
      <trkpt lat="42.88116" lon="0.11136">
        <ele>1831</ele>
        <time>2013-05-04T09:37:56Z</time>
      </trkpt>
      <trkpt lat="42.88118" lon="0.11129">
        <ele>1831</ele>
        <time>2013-05-04T09:38:06Z</time>
      </trkpt>
      <trkpt lat="42.88122" lon="0.11121">
        <ele>1832</ele>
        <time>2013-05-04T09:38:13Z</time>
      </trkpt>
      <trkpt lat="42.88122" lon="0.11113">
        <ele>1832</ele>
        <time>2013-05-04T09:38:22Z</time>
      </trkpt>
      <trkpt lat="42.88123" lon="0.111">
        <ele>1831</ele>
        <time>2013-05-04T09:38:29Z</time>
      </trkpt>
      <trkpt lat="42.88129" lon="0.11091">
        <ele>1830</ele>
        <time>2013-05-04T09:38:35Z</time>
      </trkpt>
      <trkpt lat="42.88136" lon="0.11074">
        <ele>1828</ele>
        <time>2013-05-04T09:38:42Z</time>
      </trkpt>
      <trkpt lat="42.88138" lon="0.1107">
        <ele>1827</ele>
        <time>2013-05-04T09:38:48Z</time>
      </trkpt>
      <trkpt lat="42.88141" lon="0.11066">
        <ele>1827</ele>
        <time>2013-05-04T09:39:04Z</time>
      </trkpt>
      <trkpt lat="42.88143" lon="0.11066">
        <ele>1827</ele>
        <time>2013-05-04T09:39:20Z</time>
      </trkpt>
      <trkpt lat="42.88143" lon="0.11067">
        <ele>1827</ele>
        <time>2013-05-04T09:39:23Z</time>
      </trkpt>
      <trkpt lat="42.88152" lon="0.11059">
        <ele>1824</ele>
        <time>2013-05-04T09:39:29Z</time>
      </trkpt>
      <trkpt lat="42.88153" lon="0.11058">
        <ele>1824</ele>
        <time>2013-05-04T09:39:30Z</time>
      </trkpt>
      <trkpt lat="42.88156" lon="0.11056">
        <ele>1822</ele>
        <time>2013-05-04T09:39:32Z</time>
      </trkpt>
      <trkpt lat="42.88157" lon="0.11064">
        <ele>1819</ele>
        <time>2013-05-04T09:39:36Z</time>
      </trkpt>
      <trkpt lat="42.88157" lon="0.1107">
        <ele>1818</ele>
        <time>2013-05-04T09:39:38Z</time>
      </trkpt>
      <trkpt lat="42.88164" lon="0.11075">
        <ele>1814</ele>
        <time>2013-05-04T09:39:42Z</time>
      </trkpt>
      <trkpt lat="42.88168" lon="0.11081">
        <ele>1810</ele>
        <time>2013-05-04T09:39:45Z</time>
      </trkpt>
      <trkpt lat="42.88174" lon="0.11081">
        <ele>1807</ele>
        <time>2013-05-04T09:39:47Z</time>
      </trkpt>
      <trkpt lat="42.8818" lon="0.11077">
        <ele>1803</ele>
        <time>2013-05-04T09:39:50Z</time>
      </trkpt>
      <trkpt lat="42.8818" lon="0.11078">
        <ele>1803</ele>
        <time>2013-05-04T09:39:51Z</time>
      </trkpt>
      <trkpt lat="42.88178" lon="0.11079">
        <ele>1803</ele>
        <time>2013-05-04T09:40:01Z</time>
      </trkpt>
      <trkpt lat="42.88182" lon="0.11096">
        <ele>1801</ele>
        <time>2013-05-04T09:40:07Z</time>
      </trkpt>
      <trkpt lat="42.88182" lon="0.111">
        <ele>1800</ele>
        <time>2013-05-04T09:40:10Z</time>
      </trkpt>
      <trkpt lat="42.88181" lon="0.11101">
        <ele>1799</ele>
        <time>2013-05-04T09:40:17Z</time>
      </trkpt>
      <trkpt lat="42.88191" lon="0.11095">
        <ele>1797</ele>
        <time>2013-05-04T09:40:21Z</time>
      </trkpt>
      <trkpt lat="42.88206" lon="0.11068">
        <ele>1793</ele>
        <time>2013-05-04T09:40:27Z</time>
      </trkpt>
      <trkpt lat="42.8821" lon="0.11075">
        <ele>1789</ele>
        <time>2013-05-04T09:40:31Z</time>
      </trkpt>
      <trkpt lat="42.8821" lon="0.11082">
        <ele>1788</ele>
        <time>2013-05-04T09:40:33Z</time>
      </trkpt>
      <trkpt lat="42.88211" lon="0.11089">
        <ele>1788</ele>
        <time>2013-05-04T09:40:37Z</time>
      </trkpt>
      <trkpt lat="42.88217" lon="0.11097">
        <ele>1783</ele>
        <time>2013-05-04T09:40:43Z</time>
      </trkpt>
      <trkpt lat="42.88225" lon="0.11099">
        <ele>1780</ele>
        <time>2013-05-04T09:40:46Z</time>
      </trkpt>
      <trkpt lat="42.88224" lon="0.11103">
        <ele>1778</ele>
        <time>2013-05-04T09:40:48Z</time>
      </trkpt>
      <trkpt lat="42.88231" lon="0.11109">
        <ele>1775</ele>
        <time>2013-05-04T09:40:52Z</time>
      </trkpt>
      <trkpt lat="42.88231" lon="0.11113">
        <ele>1772</ele>
        <time>2013-05-04T09:40:55Z</time>
      </trkpt>
      <trkpt lat="42.8823" lon="0.11115">
        <ele>1772</ele>
        <time>2013-05-04T09:40:57Z</time>
      </trkpt>
      <trkpt lat="42.88229" lon="0.11119">
        <ele>1771</ele>
        <time>2013-05-04T09:41:06Z</time>
      </trkpt>
      <trkpt lat="42.8823" lon="0.11141">
        <ele>1768</ele>
        <time>2013-05-04T09:41:13Z</time>
      </trkpt>
      <trkpt lat="42.88229" lon="0.11144">
        <ele>1768</ele>
        <time>2013-05-04T09:41:21Z</time>
      </trkpt>
      <trkpt lat="42.88228" lon="0.11151">
        <ele>1767</ele>
        <time>2013-05-04T09:41:26Z</time>
      </trkpt>
      <trkpt lat="42.88229" lon="0.11158">
        <ele>1767</ele>
        <time>2013-05-04T09:41:33Z</time>
      </trkpt>
      <trkpt lat="42.88228" lon="0.11168">
        <ele>1766</ele>
        <time>2013-05-04T09:41:39Z</time>
      </trkpt>
      <trkpt lat="42.88228" lon="0.11173">
        <ele>1765</ele>
        <time>2013-05-04T09:41:46Z</time>
      </trkpt>
      <trkpt lat="42.88231" lon="0.11181">
        <ele>1765</ele>
        <time>2013-05-04T09:41:54Z</time>
      </trkpt>
      <trkpt lat="42.88233" lon="0.11189">
        <ele>1765</ele>
        <time>2013-05-04T09:42:01Z</time>
      </trkpt>
      <trkpt lat="42.88234" lon="0.1119">
        <ele>1765</ele>
        <time>2013-05-04T09:42:02Z</time>
      </trkpt>
      <trkpt lat="42.88239" lon="0.1119">
        <ele>1765</ele>
        <time>2013-05-04T09:42:05Z</time>
      </trkpt>
      <trkpt lat="42.88241" lon="0.11192">
        <ele>1764</ele>
        <time>2013-05-04T09:42:06Z</time>
      </trkpt>
      <trkpt lat="42.88251" lon="0.11202">
        <ele>1763</ele>
        <time>2013-05-04T09:42:14Z</time>
      </trkpt>
      <trkpt lat="42.8826" lon="0.11207">
        <ele>1762</ele>
        <time>2013-05-04T09:42:19Z</time>
      </trkpt>
      <trkpt lat="42.88267" lon="0.1121">
        <ele>1760</ele>
        <time>2013-05-04T09:42:21Z</time>
      </trkpt>
      <trkpt lat="42.88277" lon="0.11204">
        <ele>1759</ele>
        <time>2013-05-04T09:42:23Z</time>
      </trkpt>
      <trkpt lat="42.883" lon="0.11193">
        <ele>1755</ele>
        <time>2013-05-04T09:42:27Z</time>
      </trkpt>
      <trkpt lat="42.88305" lon="0.11193">
        <ele>1755</ele>
        <time>2013-05-04T09:42:28Z</time>
      </trkpt>
      <trkpt lat="42.88316" lon="0.11197">
        <ele>1754</ele>
        <time>2013-05-04T09:42:33Z</time>
      </trkpt>
      <trkpt lat="42.88319" lon="0.1119">
        <ele>1754</ele>
        <time>2013-05-04T09:42:37Z</time>
      </trkpt>
      <trkpt lat="42.88319" lon="0.1117">
        <ele>1751</ele>
        <time>2013-05-04T09:42:43Z</time>
      </trkpt>
      <trkpt lat="42.8832" lon="0.11166">
        <ele>1751</ele>
        <time>2013-05-04T09:42:44Z</time>
      </trkpt>
      <trkpt lat="42.88334" lon="0.1116">
        <ele>1749</ele>
        <time>2013-05-04T09:42:51Z</time>
      </trkpt>
      <trkpt lat="42.88336" lon="0.1116">
        <ele>1748</ele>
        <time>2013-05-04T09:42:52Z</time>
      </trkpt>
      <trkpt lat="42.88347" lon="0.1116">
        <ele>1748</ele>
        <time>2013-05-04T09:42:57Z</time>
      </trkpt>
      <trkpt lat="42.88353" lon="0.11148">
        <ele>1746</ele>
        <time>2013-05-04T09:43:06Z</time>
      </trkpt>
      <trkpt lat="42.88354" lon="0.11145">
        <ele>1746</ele>
        <time>2013-05-04T09:43:16Z</time>
      </trkpt>
      <trkpt lat="42.88353" lon="0.11135">
        <ele>1747</ele>
        <time>2013-05-04T09:43:28Z</time>
      </trkpt>
      <trkpt lat="42.88352" lon="0.11132">
        <ele>1747</ele>
        <time>2013-05-04T09:43:41Z</time>
      </trkpt>
      <trkpt lat="42.88356" lon="0.11136">
        <ele>1747</ele>
        <time>2013-05-04T09:43:49Z</time>
      </trkpt>
      <trkpt lat="42.8836" lon="0.11143">
        <ele>1747</ele>
        <time>2013-05-04T09:44:02Z</time>
      </trkpt>
      <trkpt lat="42.88362" lon="0.1114">
        <ele>1747</ele>
        <time>2013-05-04T09:44:10Z</time>
      </trkpt>
      <trkpt lat="42.88366" lon="0.11139">
        <ele>1747</ele>
        <time>2013-05-04T09:44:21Z</time>
      </trkpt>
      <trkpt lat="42.88361" lon="0.11143">
        <ele>1746</ele>
        <time>2013-05-04T09:44:36Z</time>
      </trkpt>
      <trkpt lat="42.88361" lon="0.11147">
        <ele>1747</ele>
        <time>2013-05-04T09:44:57Z</time>
      </trkpt>
      <trkpt lat="42.88356" lon="0.11153">
        <ele>1746</ele>
        <time>2013-05-04T09:45:10Z</time>
      </trkpt>
      <trkpt lat="42.88358" lon="0.11153">
        <ele>1747</ele>
        <time>2013-05-04T09:45:21Z</time>
      </trkpt>
      <trkpt lat="42.88355" lon="0.11155">
        <ele>1746</ele>
        <time>2013-05-04T09:45:33Z</time>
      </trkpt>
      <trkpt lat="42.88357" lon="0.1115">
        <ele>1747</ele>
        <time>2013-05-04T09:45:42Z</time>
      </trkpt>
      <trkpt lat="42.88355" lon="0.11156">
        <ele>1746</ele>
        <time>2013-05-04T09:45:58Z</time>
      </trkpt>
      <trkpt lat="42.88356" lon="0.11156">
        <ele>1747</ele>
        <time>2013-05-04T09:46:08Z</time>
      </trkpt>
      <trkpt lat="42.8836" lon="0.11148">
        <ele>1747</ele>
        <time>2013-05-04T09:46:17Z</time>
      </trkpt>
      <trkpt lat="42.88358" lon="0.11147">
        <ele>1747</ele>
        <time>2013-05-04T09:46:26Z</time>
      </trkpt>
      <trkpt lat="42.88359" lon="0.11151">
        <ele>1746</ele>
        <time>2013-05-04T09:46:33Z</time>
      </trkpt>
      <trkpt lat="42.88364" lon="0.11149">
        <ele>1746</ele>
        <time>2013-05-04T09:46:55Z</time>
      </trkpt>
      <trkpt lat="42.88365" lon="0.11148">
        <ele>1746</ele>
        <time>2013-05-04T09:47:14Z</time>
      </trkpt>
      <trkpt lat="42.88365" lon="0.11147">
        <ele>1746</ele>
        <time>2013-05-04T09:47:29Z</time>
      </trkpt>
      <trkpt lat="42.8836" lon="0.11147">
        <ele>1746</ele>
        <time>2013-05-04T09:47:49Z</time>
      </trkpt>
      <trkpt lat="42.88362" lon="0.11146">
        <ele>1746</ele>
        <time>2013-05-04T09:48:10Z</time>
      </trkpt>
      <trkpt lat="42.88362" lon="0.11145">
        <ele>1746</ele>
        <time>2013-05-04T09:48:31Z</time>
      </trkpt>
      <trkpt lat="42.88365" lon="0.11145">
        <ele>1746</ele>
        <time>2013-05-04T09:48:47Z</time>
      </trkpt>
      <trkpt lat="42.88366" lon="0.11146">
        <ele>1746</ele>
        <time>2013-05-04T09:49:07Z</time>
      </trkpt>
      <trkpt lat="42.88365" lon="0.11146">
        <ele>1746</ele>
        <time>2013-05-04T09:49:27Z</time>
      </trkpt>
      <trkpt lat="42.88365" lon="0.11146">
        <ele>1746</ele>
        <time>2013-05-04T09:49:45Z</time>
      </trkpt>
      <trkpt lat="42.88365" lon="0.11146">
        <ele>1746</ele>
        <time>2013-05-04T09:50:03Z</time>
      </trkpt>
      <trkpt lat="42.88366" lon="0.11145">
        <ele>1746</ele>
        <time>2013-05-04T09:50:19Z</time>
      </trkpt>
      <trkpt lat="42.88366" lon="0.11145">
        <ele>1746</ele>
        <time>2013-05-04T09:50:37Z</time>
      </trkpt>
      <trkpt lat="42.88366" lon="0.11145">
        <ele>1746</ele>
        <time>2013-05-04T09:50:52Z</time>
      </trkpt>
      <trkpt lat="42.88365" lon="0.11145">
        <ele>1746</ele>
        <time>2013-05-04T09:51:09Z</time>
      </trkpt>
      <trkpt lat="42.88365" lon="0.11145">
        <ele>1746</ele>
        <time>2013-05-04T09:51:25Z</time>
      </trkpt>
      <trkpt lat="42.88363" lon="0.11147">
        <ele>1746</ele>
        <time>2013-05-04T09:51:43Z</time>
      </trkpt>
      <trkpt lat="42.88365" lon="0.11146">
        <ele>1745</ele>
        <time>2013-05-04T09:51:58Z</time>
      </trkpt>
      <trkpt lat="42.88365" lon="0.11146">
        <ele>1745</ele>
        <time>2013-05-04T09:52:15Z</time>
      </trkpt>
      <trkpt lat="42.88365" lon="0.11146">
        <ele>1745</ele>
        <time>2013-05-04T09:52:31Z</time>
      </trkpt>
      <trkpt lat="42.88365" lon="0.11147">
        <ele>1745</ele>
        <time>2013-05-04T09:52:46Z</time>
      </trkpt>
      <trkpt lat="42.88366" lon="0.11146">
        <ele>1746</ele>
        <time>2013-05-04T09:53:02Z</time>
      </trkpt>
      <trkpt lat="42.88365" lon="0.11146">
        <ele>1745</ele>
        <time>2013-05-04T09:53:23Z</time>
      </trkpt>
      <trkpt lat="42.88364" lon="0.11146">
        <ele>1745</ele>
        <time>2013-05-04T09:53:37Z</time>
      </trkpt>
      <trkpt lat="42.88364" lon="0.11146">
        <ele>1745</ele>
        <time>2013-05-04T09:53:58Z</time>
      </trkpt>
      <trkpt lat="42.88364" lon="0.11146">
        <ele>1745</ele>
        <time>2013-05-04T09:54:19Z</time>
      </trkpt>
      <trkpt lat="42.88364" lon="0.11146">
        <ele>1746</ele>
        <time>2013-05-04T09:54:40Z</time>
      </trkpt>
      <trkpt lat="42.88364" lon="0.11146">
        <ele>1745</ele>
        <time>2013-05-04T09:54:58Z</time>
      </trkpt>
      <trkpt lat="42.88363" lon="0.11147">
        <ele>1746</ele>
        <time>2013-05-04T09:55:19Z</time>
      </trkpt>
      <trkpt lat="42.88364" lon="0.11147">
        <ele>1745</ele>
        <time>2013-05-04T09:55:36Z</time>
      </trkpt>
      <trkpt lat="42.88363" lon="0.11147">
        <ele>1745</ele>
        <time>2013-05-04T09:55:56Z</time>
      </trkpt>
      <trkpt lat="42.88363" lon="0.11147">
        <ele>1745</ele>
        <time>2013-05-04T09:56:19Z</time>
      </trkpt>
      <trkpt lat="42.88363" lon="0.11147">
        <ele>1745</ele>
        <time>2013-05-04T09:56:36Z</time>
      </trkpt>
      <trkpt lat="42.88364" lon="0.11147">
        <ele>1745</ele>
        <time>2013-05-04T09:57:00Z</time>
      </trkpt>
      <trkpt lat="42.88364" lon="0.11147">
        <ele>1746</ele>
        <time>2013-05-04T09:57:20Z</time>
      </trkpt>
      <trkpt lat="42.88363" lon="0.11147">
        <ele>1745</ele>
        <time>2013-05-04T09:57:47Z</time>
      </trkpt>
      <trkpt lat="42.88364" lon="0.11147">
        <ele>1746</ele>
        <time>2013-05-04T09:58:08Z</time>
      </trkpt>
      <trkpt lat="42.88363" lon="0.11147">
        <ele>1746</ele>
        <time>2013-05-04T09:58:31Z</time>
      </trkpt>
      <trkpt lat="42.88364" lon="0.11147">
        <ele>1746</ele>
        <time>2013-05-04T09:58:50Z</time>
      </trkpt>
      <trkpt lat="42.88364" lon="0.11146">
        <ele>1745</ele>
        <time>2013-05-04T09:59:12Z</time>
      </trkpt>
      <trkpt lat="42.88365" lon="0.11146">
        <ele>1745</ele>
        <time>2013-05-04T09:59:36Z</time>
      </trkpt>
      <trkpt lat="42.88363" lon="0.11146">
        <ele>1745</ele>
        <time>2013-05-04T10:00:00Z</time>
      </trkpt>
      <trkpt lat="42.88364" lon="0.11146">
        <ele>1746</ele>
        <time>2013-05-04T10:00:21Z</time>
      </trkpt>
      <trkpt lat="42.88364" lon="0.11146">
        <ele>1745</ele>
        <time>2013-05-04T10:00:43Z</time>
      </trkpt>
      <trkpt lat="42.88365" lon="0.11146">
        <ele>1745</ele>
        <time>2013-05-04T10:01:03Z</time>
      </trkpt>
      <trkpt lat="42.88364" lon="0.11146">
        <ele>1745</ele>
        <time>2013-05-04T10:01:17Z</time>
      </trkpt>
      <trkpt lat="42.88364" lon="0.11146">
        <ele>1745</ele>
        <time>2013-05-04T10:01:40Z</time>
      </trkpt>
      <trkpt lat="42.88365" lon="0.11147">
        <ele>1745</ele>
        <time>2013-05-04T10:02:02Z</time>
      </trkpt>
      <trkpt lat="42.88364" lon="0.11147">
        <ele>1746</ele>
        <time>2013-05-04T10:02:21Z</time>
      </trkpt>
      <trkpt lat="42.88365" lon="0.11146">
        <ele>1745</ele>
        <time>2013-05-04T10:02:42Z</time>
      </trkpt>
      <trkpt lat="42.88365" lon="0.11146">
        <ele>1745</ele>
        <time>2013-05-04T10:03:04Z</time>
      </trkpt>
      <trkpt lat="42.88365" lon="0.11147">
        <ele>1745</ele>
        <time>2013-05-04T10:03:30Z</time>
      </trkpt>
      <trkpt lat="42.88366" lon="0.11146">
        <ele>1745</ele>
        <time>2013-05-04T10:03:56Z</time>
      </trkpt>
      <trkpt lat="42.88366" lon="0.11146">
        <ele>1745</ele>
        <time>2013-05-04T10:04:14Z</time>
      </trkpt>
      <trkpt lat="42.88366" lon="0.11147">
        <ele>1745</ele>
        <time>2013-05-04T10:04:34Z</time>
      </trkpt>
      <trkpt lat="42.88365" lon="0.11146">
        <ele>1745</ele>
        <time>2013-05-04T10:04:52Z</time>
      </trkpt>
      <trkpt lat="42.88365" lon="0.11146">
        <ele>1745</ele>
        <time>2013-05-04T10:05:16Z</time>
      </trkpt>
      <trkpt lat="42.88366" lon="0.11146">
        <ele>1745</ele>
        <time>2013-05-04T10:05:36Z</time>
      </trkpt>
      <trkpt lat="42.88365" lon="0.11146">
        <ele>1745</ele>
        <time>2013-05-04T10:06:02Z</time>
      </trkpt>
      <trkpt lat="42.88365" lon="0.11146">
        <ele>1745</ele>
        <time>2013-05-04T10:06:21Z</time>
      </trkpt>
      <trkpt lat="42.88365" lon="0.11146">
        <ele>1745</ele>
        <time>2013-05-04T10:06:37Z</time>
      </trkpt>
      <trkpt lat="42.88366" lon="0.11147">
        <ele>1745</ele>
        <time>2013-05-04T10:06:52Z</time>
      </trkpt>
      <trkpt lat="42.88367" lon="0.11147">
        <ele>1745</ele>
        <time>2013-05-04T10:07:08Z</time>
      </trkpt>
      <trkpt lat="42.88365" lon="0.11148">
        <ele>1745</ele>
        <time>2013-05-04T10:07:28Z</time>
      </trkpt>
      <trkpt lat="42.88365" lon="0.11147">
        <ele>1746</ele>
        <time>2013-05-04T10:07:49Z</time>
      </trkpt>
      <trkpt lat="42.88366" lon="0.11147">
        <ele>1745</ele>
        <time>2013-05-04T10:08:11Z</time>
      </trkpt>
      <trkpt lat="42.88365" lon="0.11146">
        <ele>1746</ele>
        <time>2013-05-04T10:08:31Z</time>
      </trkpt>
      <trkpt lat="42.88366" lon="0.11146">
        <ele>1745</ele>
        <time>2013-05-04T10:08:48Z</time>
      </trkpt>
      <trkpt lat="42.88366" lon="0.11146">
        <ele>1745</ele>
        <time>2013-05-04T10:09:08Z</time>
      </trkpt>
      <trkpt lat="42.88366" lon="0.11146">
        <ele>1745</ele>
        <time>2013-05-04T10:09:30Z</time>
      </trkpt>
      <trkpt lat="42.88364" lon="0.11146">
        <ele>1745</ele>
        <time>2013-05-04T10:09:50Z</time>
      </trkpt>
      <trkpt lat="42.88365" lon="0.11146">
        <ele>1746</ele>
        <time>2013-05-04T10:10:11Z</time>
      </trkpt>
      <trkpt lat="42.88366" lon="0.11146">
        <ele>1746</ele>
        <time>2013-05-04T10:10:31Z</time>
      </trkpt>
      <trkpt lat="42.88364" lon="0.11147">
        <ele>1745</ele>
        <time>2013-05-04T10:10:49Z</time>
      </trkpt>
      <trkpt lat="42.88365" lon="0.11147">
        <ele>1745</ele>
        <time>2013-05-04T10:11:11Z</time>
      </trkpt>
      <trkpt lat="42.88365" lon="0.11147">
        <ele>1745</ele>
        <time>2013-05-04T10:11:33Z</time>
      </trkpt>
      <trkpt lat="42.88364" lon="0.11147">
        <ele>1745</ele>
        <time>2013-05-04T10:11:47Z</time>
      </trkpt>
      <trkpt lat="42.88364" lon="0.11147">
        <ele>1745</ele>
        <time>2013-05-04T10:12:02Z</time>
      </trkpt>
      <trkpt lat="42.88365" lon="0.11147">
        <ele>1745</ele>
        <time>2013-05-04T10:12:25Z</time>
      </trkpt>
      <trkpt lat="42.88365" lon="0.11147">
        <ele>1746</ele>
        <time>2013-05-04T10:12:45Z</time>
      </trkpt>
      <trkpt lat="42.88364" lon="0.11147">
        <ele>1745</ele>
        <time>2013-05-04T10:13:06Z</time>
      </trkpt>
      <trkpt lat="42.88365" lon="0.11147">
        <ele>1745</ele>
        <time>2013-05-04T10:13:24Z</time>
      </trkpt>
      <trkpt lat="42.88366" lon="0.11147">
        <ele>1745</ele>
        <time>2013-05-04T10:13:43Z</time>
      </trkpt>
      <trkpt lat="42.88366" lon="0.11147">
        <ele>1745</ele>
        <time>2013-05-04T10:14:04Z</time>
      </trkpt>
      <trkpt lat="42.88365" lon="0.11147">
        <ele>1746</ele>
        <time>2013-05-04T10:14:27Z</time>
      </trkpt>
      <trkpt lat="42.88366" lon="0.11147">
        <ele>1746</ele>
        <time>2013-05-04T10:14:50Z</time>
      </trkpt>
      <trkpt lat="42.88366" lon="0.11146">
        <ele>1745</ele>
        <time>2013-05-04T10:15:15Z</time>
      </trkpt>
      <trkpt lat="42.88366" lon="0.11146">
        <ele>1746</ele>
        <time>2013-05-04T10:15:34Z</time>
      </trkpt>
      <trkpt lat="42.88365" lon="0.11147">
        <ele>1745</ele>
        <time>2013-05-04T10:15:57Z</time>
      </trkpt>
      <trkpt lat="42.88365" lon="0.11147">
        <ele>1746</ele>
        <time>2013-05-04T10:16:16Z</time>
      </trkpt>
      <trkpt lat="42.88366" lon="0.11146">
        <ele>1746</ele>
        <time>2013-05-04T10:16:38Z</time>
      </trkpt>
      <trkpt lat="42.88366" lon="0.11146">
        <ele>1745</ele>
        <time>2013-05-04T10:17:00Z</time>
      </trkpt>
      <trkpt lat="42.88365" lon="0.11147">
        <ele>1746</ele>
        <time>2013-05-04T10:17:25Z</time>
      </trkpt>
      <trkpt lat="42.88365" lon="0.11147">
        <ele>1745</ele>
        <time>2013-05-04T10:17:58Z</time>
      </trkpt>
      <trkpt lat="42.88365" lon="0.11148">
        <ele>1746</ele>
        <time>2013-05-04T10:18:31Z</time>
      </trkpt>
      <trkpt lat="42.88366" lon="0.11148">
        <ele>1745</ele>
        <time>2013-05-04T10:18:59Z</time>
      </trkpt>
      <trkpt lat="42.88365" lon="0.11148">
        <ele>1746</ele>
        <time>2013-05-04T10:19:23Z</time>
      </trkpt>
      <trkpt lat="42.88365" lon="0.11148">
        <ele>1746</ele>
        <time>2013-05-04T10:19:46Z</time>
      </trkpt>
      <trkpt lat="42.88365" lon="0.11148">
        <ele>1746</ele>
        <time>2013-05-04T10:20:17Z</time>
      </trkpt>
      <trkpt lat="42.88365" lon="0.1115">
        <ele>1746</ele>
        <time>2013-05-04T10:20:32Z</time>
      </trkpt>
      <trkpt lat="42.88363" lon="0.11149">
        <ele>1747</ele>
        <time>2013-05-04T10:20:41Z</time>
      </trkpt>
      <trkpt lat="42.88364" lon="0.1115">
        <ele>1747</ele>
        <time>2013-05-04T10:20:52Z</time>
      </trkpt>
      <trkpt lat="42.88363" lon="0.11149">
        <ele>1747</ele>
        <time>2013-05-04T10:21:02Z</time>
      </trkpt>
      <trkpt lat="42.88365" lon="0.11148">
        <ele>1746</ele>
        <time>2013-05-04T10:21:16Z</time>
      </trkpt>
      <trkpt lat="42.88366" lon="0.11148">
        <ele>1747</ele>
        <time>2013-05-04T10:21:30Z</time>
      </trkpt>
      <trkpt lat="42.88363" lon="0.11151">
        <ele>1747</ele>
        <time>2013-05-04T10:21:41Z</time>
      </trkpt>
      <trkpt lat="42.88364" lon="0.11154">
        <ele>1747</ele>
        <time>2013-05-04T10:21:51Z</time>
      </trkpt>
      <trkpt lat="42.88365" lon="0.11154">
        <ele>1747</ele>
        <time>2013-05-04T10:22:06Z</time>
      </trkpt>
      <trkpt lat="42.88363" lon="0.1115">
        <ele>1748</ele>
        <time>2013-05-04T10:22:19Z</time>
      </trkpt>
      <trkpt lat="42.88363" lon="0.1115">
        <ele>1747</ele>
        <time>2013-05-04T10:22:33Z</time>
      </trkpt>
      <trkpt lat="42.88363" lon="0.1115">
        <ele>1748</ele>
        <time>2013-05-04T10:22:41Z</time>
      </trkpt>
      <trkpt lat="42.88363" lon="0.11153">
        <ele>1748</ele>
        <time>2013-05-04T10:22:57Z</time>
      </trkpt>
      <trkpt lat="42.88366" lon="0.11155">
        <ele>1748</ele>
        <time>2013-05-04T10:23:09Z</time>
      </trkpt>
      <trkpt lat="42.88367" lon="0.11158">
        <ele>1747</ele>
        <time>2013-05-04T10:23:19Z</time>
      </trkpt>
      <trkpt lat="42.88366" lon="0.11163">
        <ele>1748</ele>
        <time>2013-05-04T10:23:34Z</time>
      </trkpt>
      <trkpt lat="42.88365" lon="0.11164">
        <ele>1748</ele>
        <time>2013-05-04T10:23:43Z</time>
      </trkpt>
      <trkpt lat="42.88366" lon="0.11168">
        <ele>1747</ele>
        <time>2013-05-04T10:23:50Z</time>
      </trkpt>
      <trkpt lat="42.8837" lon="0.11167">
        <ele>1747</ele>
        <time>2013-05-04T10:23:58Z</time>
      </trkpt>
      <trkpt lat="42.88372" lon="0.11168">
        <ele>1747</ele>
        <time>2013-05-04T10:24:08Z</time>
      </trkpt>
      <trkpt lat="42.88373" lon="0.11166">
        <ele>1748</ele>
        <time>2013-05-04T10:24:16Z</time>
      </trkpt>
      <trkpt lat="42.88375" lon="0.11167">
        <ele>1747</ele>
        <time>2013-05-04T10:24:25Z</time>
      </trkpt>
      <trkpt lat="42.88378" lon="0.11166">
        <ele>1747</ele>
        <time>2013-05-04T10:24:32Z</time>
      </trkpt>
      <trkpt lat="42.8838" lon="0.11162">
        <ele>1747</ele>
        <time>2013-05-04T10:24:38Z</time>
      </trkpt>
      <trkpt lat="42.88381" lon="0.11159">
        <ele>1747</ele>
        <time>2013-05-04T10:24:47Z</time>
      </trkpt>
      <trkpt lat="42.88382" lon="0.1116">
        <ele>1747</ele>
        <time>2013-05-04T10:25:02Z</time>
      </trkpt>
      <trkpt lat="42.88378" lon="0.1116">
        <ele>1748</ele>
        <time>2013-05-04T10:25:16Z</time>
      </trkpt>
      <trkpt lat="42.88379" lon="0.11157">
        <ele>1748</ele>
        <time>2013-05-04T10:25:29Z</time>
      </trkpt>
      <trkpt lat="42.88379" lon="0.11157">
        <ele>1748</ele>
        <time>2013-05-04T10:25:39Z</time>
      </trkpt>
      <trkpt lat="42.88376" lon="0.11155">
        <ele>1747</ele>
        <time>2013-05-04T10:25:54Z</time>
      </trkpt>
      <trkpt lat="42.88379" lon="0.11157">
        <ele>1748</ele>
        <time>2013-05-04T10:26:04Z</time>
      </trkpt>
      <trkpt lat="42.88381" lon="0.1116">
        <ele>1748</ele>
        <time>2013-05-04T10:26:17Z</time>
      </trkpt>
      <trkpt lat="42.88377" lon="0.11155">
        <ele>1748</ele>
        <time>2013-05-04T10:26:32Z</time>
      </trkpt>
      <trkpt lat="42.88385" lon="0.11151">
        <ele>1747</ele>
        <time>2013-05-04T10:26:40Z</time>
      </trkpt>
      <trkpt lat="42.88391" lon="0.11145">
        <ele>1748</ele>
        <time>2013-05-04T10:26:46Z</time>
      </trkpt>
      <trkpt lat="42.88398" lon="0.11138">
        <ele>1747</ele>
        <time>2013-05-04T10:26:52Z</time>
      </trkpt>
      <trkpt lat="42.88407" lon="0.11126">
        <ele>1746</ele>
        <time>2013-05-04T10:27:00Z</time>
      </trkpt>
      <trkpt lat="42.88418" lon="0.11111">
        <ele>1745</ele>
        <time>2013-05-04T10:27:09Z</time>
      </trkpt>
      <trkpt lat="42.88427" lon="0.11098">
        <ele>1744</ele>
        <time>2013-05-04T10:27:16Z</time>
      </trkpt>
      <trkpt lat="42.88438" lon="0.11077">
        <ele>1743</ele>
        <time>2013-05-04T10:27:26Z</time>
      </trkpt>
      <trkpt lat="42.88446" lon="0.11055">
        <ele>1742</ele>
        <time>2013-05-04T10:27:35Z</time>
      </trkpt>
      <trkpt lat="42.88454" lon="0.11028">
        <ele>1741</ele>
        <time>2013-05-04T10:27:44Z</time>
      </trkpt>
      <trkpt lat="42.88465" lon="0.11018">
        <ele>1740</ele>
        <time>2013-05-04T10:27:51Z</time>
      </trkpt>
      <trkpt lat="42.88473" lon="0.11007">
        <ele>1738</ele>
        <time>2013-05-04T10:27:57Z</time>
      </trkpt>
      <trkpt lat="42.88487" lon="0.10988">
        <ele>1736</ele>
        <time>2013-05-04T10:28:04Z</time>
      </trkpt>
      <trkpt lat="42.88503" lon="0.10974">
        <ele>1733</ele>
        <time>2013-05-04T10:28:10Z</time>
      </trkpt>
      <trkpt lat="42.88515" lon="0.10964">
        <ele>1732</ele>
        <time>2013-05-04T10:28:17Z</time>
      </trkpt>
      <trkpt lat="42.88534" lon="0.10948">
        <ele>1730</ele>
        <time>2013-05-04T10:28:26Z</time>
      </trkpt>
      <trkpt lat="42.88546" lon="0.10938">
        <ele>1729</ele>
        <time>2013-05-04T10:28:33Z</time>
      </trkpt>
      <trkpt lat="42.88553" lon="0.10933">
        <ele>1728</ele>
        <time>2013-05-04T10:28:36Z</time>
      </trkpt>
      <trkpt lat="42.88566" lon="0.10922">
        <ele>1726</ele>
        <time>2013-05-04T10:28:41Z</time>
      </trkpt>
      <trkpt lat="42.88585" lon="0.10907">
        <ele>1722</ele>
        <time>2013-05-04T10:28:47Z</time>
      </trkpt>
      <trkpt lat="42.88599" lon="0.10899">
        <ele>1719</ele>
        <time>2013-05-04T10:28:51Z</time>
      </trkpt>
      <trkpt lat="42.88602" lon="0.10897">
        <ele>1719</ele>
        <time>2013-05-04T10:28:52Z</time>
      </trkpt>
      <trkpt lat="42.88607" lon="0.10897">
        <ele>1717</ele>
        <time>2013-05-04T10:28:54Z</time>
      </trkpt>
      <trkpt lat="42.88609" lon="0.10895">
        <ele>1717</ele>
        <time>2013-05-04T10:28:59Z</time>
      </trkpt>
      <trkpt lat="42.88612" lon="0.10897">
        <ele>1717</ele>
        <time>2013-05-04T10:29:05Z</time>
      </trkpt>
      <trkpt lat="42.88616" lon="0.10895">
        <ele>1717</ele>
        <time>2013-05-04T10:29:11Z</time>
      </trkpt>
      <trkpt lat="42.8862" lon="0.10894">
        <ele>1717</ele>
        <time>2013-05-04T10:29:18Z</time>
      </trkpt>
      <trkpt lat="42.88634" lon="0.1089">
        <ele>1715</ele>
        <time>2013-05-04T10:29:23Z</time>
      </trkpt>
      <trkpt lat="42.88638" lon="0.10863">
        <ele>1712</ele>
        <time>2013-05-04T10:29:28Z</time>
      </trkpt>
      <trkpt lat="42.88637" lon="0.10851">
        <ele>1709</ele>
        <time>2013-05-04T10:29:30Z</time>
      </trkpt>
      <trkpt lat="42.88638" lon="0.10845">
        <ele>1707</ele>
        <time>2013-05-04T10:29:31Z</time>
      </trkpt>
      <trkpt lat="42.88644" lon="0.10837">
        <ele>1706</ele>
        <time>2013-05-04T10:29:34Z</time>
      </trkpt>
      <trkpt lat="42.88647" lon="0.10834">
        <ele>1704</ele>
        <time>2013-05-04T10:29:35Z</time>
      </trkpt>
      <trkpt lat="42.88649" lon="0.10824">
        <ele>1703</ele>
        <time>2013-05-04T10:29:37Z</time>
      </trkpt>
      <trkpt lat="42.88653" lon="0.10815">
        <ele>1699</ele>
        <time>2013-05-04T10:29:39Z</time>
      </trkpt>
      <trkpt lat="42.88657" lon="0.10813">
        <ele>1698</ele>
        <time>2013-05-04T10:29:40Z</time>
      </trkpt>
      <trkpt lat="42.88663" lon="0.10815">
        <ele>1697</ele>
        <time>2013-05-04T10:29:42Z</time>
      </trkpt>
      <trkpt lat="42.88683" lon="0.10823">
        <ele>1693</ele>
        <time>2013-05-04T10:29:47Z</time>
      </trkpt>
      <trkpt lat="42.88696" lon="0.10824">
        <ele>1690</ele>
        <time>2013-05-04T10:29:51Z</time>
      </trkpt>
      <trkpt lat="42.88698" lon="0.10825">
        <ele>1690</ele>
        <time>2013-05-04T10:29:52Z</time>
      </trkpt>
      <trkpt lat="42.88711" lon="0.1083">
        <ele>1689</ele>
        <time>2013-05-04T10:29:57Z</time>
      </trkpt>
      <trkpt lat="42.88713" lon="0.10831">
        <ele>1689</ele>
        <time>2013-05-04T10:30:03Z</time>
      </trkpt>
      <trkpt lat="42.88717" lon="0.1083">
        <ele>1689</ele>
        <time>2013-05-04T10:30:08Z</time>
      </trkpt>
      <trkpt lat="42.88724" lon="0.10827">
        <ele>1687</ele>
        <time>2013-05-04T10:30:16Z</time>
      </trkpt>
      <trkpt lat="42.88725" lon="0.10826">
        <ele>1686</ele>
        <time>2013-05-04T10:30:17Z</time>
      </trkpt>
      <trkpt lat="42.88727" lon="0.10825">
        <ele>1684</ele>
        <time>2013-05-04T10:30:24Z</time>
      </trkpt>
      <trkpt lat="42.88727" lon="0.10821">
        <ele>1684</ele>
        <time>2013-05-04T10:30:32Z</time>
      </trkpt>
      <trkpt lat="42.88728" lon="0.10823">
        <ele>1684</ele>
        <time>2013-05-04T10:30:42Z</time>
      </trkpt>
      <trkpt lat="42.88729" lon="0.10824">
        <ele>1683</ele>
        <time>2013-05-04T10:30:47Z</time>
      </trkpt>
      <trkpt lat="42.8873" lon="0.10821">
        <ele>1684</ele>
        <time>2013-05-04T10:30:57Z</time>
      </trkpt>
      <trkpt lat="42.88731" lon="0.10821">
        <ele>1684</ele>
        <time>2013-05-04T10:31:04Z</time>
      </trkpt>
      <trkpt lat="42.88733" lon="0.10816">
        <ele>1684</ele>
        <time>2013-05-04T10:31:11Z</time>
      </trkpt>
      <trkpt lat="42.88729" lon="0.10814">
        <ele>1685</ele>
        <time>2013-05-04T10:31:19Z</time>
      </trkpt>
      <trkpt lat="42.88729" lon="0.10813">
        <ele>1685</ele>
        <time>2013-05-04T10:31:20Z</time>
      </trkpt>
      <trkpt lat="42.88727" lon="0.10807">
        <ele>1684</ele>
        <time>2013-05-04T10:31:24Z</time>
      </trkpt>
      <trkpt lat="42.88728" lon="0.10807">
        <ele>1683</ele>
        <time>2013-05-04T10:31:26Z</time>
      </trkpt>
      <trkpt lat="42.88733" lon="0.10809">
        <ele>1681</ele>
        <time>2013-05-04T10:31:31Z</time>
      </trkpt>
      <trkpt lat="42.88735" lon="0.1081">
        <ele>1681</ele>
        <time>2013-05-04T10:31:32Z</time>
      </trkpt>
      <trkpt lat="42.88745" lon="0.10815">
        <ele>1679</ele>
        <time>2013-05-04T10:31:38Z</time>
      </trkpt>
      <trkpt lat="42.88746" lon="0.10812">
        <ele>1679</ele>
        <time>2013-05-04T10:31:46Z</time>
      </trkpt>
      <trkpt lat="42.88747" lon="0.1081">
        <ele>1679</ele>
        <time>2013-05-04T10:31:57Z</time>
      </trkpt>
      <trkpt lat="42.88749" lon="0.1081">
        <ele>1679</ele>
        <time>2013-05-04T10:32:00Z</time>
      </trkpt>
      <trkpt lat="42.88754" lon="0.1081">
        <ele>1679</ele>
        <time>2013-05-04T10:32:04Z</time>
      </trkpt>
      <trkpt lat="42.88771" lon="0.10807">
        <ele>1677</ele>
        <time>2013-05-04T10:32:14Z</time>
      </trkpt>
      <trkpt lat="42.88788" lon="0.10799">
        <ele>1673</ele>
        <time>2013-05-04T10:32:20Z</time>
      </trkpt>
      <trkpt lat="42.88791" lon="0.10798">
        <ele>1674</ele>
        <time>2013-05-04T10:32:21Z</time>
      </trkpt>
      <trkpt lat="42.88817" lon="0.10789">
        <ele>1670</ele>
        <time>2013-05-04T10:32:29Z</time>
      </trkpt>
      <trkpt lat="42.88837" lon="0.10781">
        <ele>1667</ele>
        <time>2013-05-04T10:32:35Z</time>
      </trkpt>
      <trkpt lat="42.88855" lon="0.10769">
        <ele>1664</ele>
        <time>2013-05-04T10:32:39Z</time>
      </trkpt>
      <trkpt lat="42.8888" lon="0.10757">
        <ele>1661</ele>
        <time>2013-05-04T10:32:43Z</time>
      </trkpt>
      <trkpt lat="42.88899" lon="0.10745">
        <ele>1657</ele>
        <time>2013-05-04T10:32:48Z</time>
      </trkpt>
      <trkpt lat="42.88911" lon="0.10738">
        <ele>1658</ele>
        <time>2013-05-04T10:32:56Z</time>
      </trkpt>
      <trkpt lat="42.88913" lon="0.10736">
        <ele>1658</ele>
        <time>2013-05-04T10:32:57Z</time>
      </trkpt>
      <trkpt lat="42.88926" lon="0.10733">
        <ele>1659</ele>
        <time>2013-05-04T10:33:05Z</time>
      </trkpt>
      <trkpt lat="42.88942" lon="0.10723">
        <ele>1657</ele>
        <time>2013-05-04T10:33:12Z</time>
      </trkpt>
      <trkpt lat="42.88955" lon="0.10708">
        <ele>1656</ele>
        <time>2013-05-04T10:33:19Z</time>
      </trkpt>
      <trkpt lat="42.88966" lon="0.10698">
        <ele>1655</ele>
        <time>2013-05-04T10:33:27Z</time>
      </trkpt>
      <trkpt lat="42.88971" lon="0.10695">
        <ele>1655</ele>
        <time>2013-05-04T10:33:33Z</time>
      </trkpt>
      <trkpt lat="42.88977" lon="0.10694">
        <ele>1656</ele>
        <time>2013-05-04T10:33:39Z</time>
      </trkpt>
      <trkpt lat="42.88988" lon="0.10696">
        <ele>1655</ele>
        <time>2013-05-04T10:33:45Z</time>
      </trkpt>
      <trkpt lat="42.88991" lon="0.10698">
        <ele>1655</ele>
        <time>2013-05-04T10:33:51Z</time>
      </trkpt>
      <trkpt lat="42.88992" lon="0.10698">
        <ele>1654</ele>
        <time>2013-05-04T10:34:00Z</time>
      </trkpt>
      <trkpt lat="42.88992" lon="0.10697">
        <ele>1654</ele>
        <time>2013-05-04T10:34:10Z</time>
      </trkpt>
      <trkpt lat="42.88995" lon="0.10698">
        <ele>1653</ele>
        <time>2013-05-04T10:34:16Z</time>
      </trkpt>
      <trkpt lat="42.8901" lon="0.10701">
        <ele>1651</ele>
        <time>2013-05-04T10:34:22Z</time>
      </trkpt>
      <trkpt lat="42.8902" lon="0.10698">
        <ele>1649</ele>
        <time>2013-05-04T10:34:25Z</time>
      </trkpt>
      <trkpt lat="42.89028" lon="0.10696">
        <ele>1648</ele>
        <time>2013-05-04T10:34:27Z</time>
      </trkpt>
      <trkpt lat="42.89031" lon="0.10696">
        <ele>1647</ele>
        <time>2013-05-04T10:34:28Z</time>
      </trkpt>
      <trkpt lat="42.89043" lon="0.10696">
        <ele>1646</ele>
        <time>2013-05-04T10:34:31Z</time>
      </trkpt>
      <trkpt lat="42.89066" lon="0.10691">
        <ele>1643</ele>
        <time>2013-05-04T10:34:38Z</time>
      </trkpt>
      <trkpt lat="42.89088" lon="0.1069">
        <ele>1641</ele>
        <time>2013-05-04T10:34:44Z</time>
      </trkpt>
      <trkpt lat="42.89091" lon="0.1069">
        <ele>1641</ele>
        <time>2013-05-04T10:34:45Z</time>
      </trkpt>
      <trkpt lat="42.89107" lon="0.10684">
        <ele>1639</ele>
        <time>2013-05-04T10:34:49Z</time>
      </trkpt>
      <trkpt lat="42.89139" lon="0.10677">
        <ele>1638</ele>
        <time>2013-05-04T10:34:57Z</time>
      </trkpt>
      <trkpt lat="42.89166" lon="0.10678">
        <ele>1635</ele>
        <time>2013-05-04T10:35:05Z</time>
      </trkpt>
      <trkpt lat="42.89184" lon="0.10687">
        <ele>1632</ele>
        <time>2013-05-04T10:35:12Z</time>
      </trkpt>
      <trkpt lat="42.89197" lon="0.10691">
        <ele>1631</ele>
        <time>2013-05-04T10:35:16Z</time>
      </trkpt>
      <trkpt lat="42.8921" lon="0.10692">
        <ele>1630</ele>
        <time>2013-05-04T10:35:19Z</time>
      </trkpt>
      <trkpt lat="42.89215" lon="0.10692">
        <ele>1629</ele>
        <time>2013-05-04T10:35:20Z</time>
      </trkpt>
      <trkpt lat="42.89229" lon="0.10691">
        <ele>1627</ele>
        <time>2013-05-04T10:35:23Z</time>
      </trkpt>
      <trkpt lat="42.89232" lon="0.1069">
        <ele>1626</ele>
        <time>2013-05-04T10:35:24Z</time>
      </trkpt>
      <trkpt lat="42.89236" lon="0.10689">
        <ele>1624</ele>
        <time>2013-05-04T10:35:27Z</time>
      </trkpt>
      <trkpt lat="42.89238" lon="0.10683">
        <ele>1622</ele>
        <time>2013-05-04T10:35:29Z</time>
      </trkpt>
      <trkpt lat="42.89258" lon="0.10677">
        <ele>1619</ele>
        <time>2013-05-04T10:35:33Z</time>
      </trkpt>
      <trkpt lat="42.89267" lon="0.10677">
        <ele>1616</ele>
        <time>2013-05-04T10:35:34Z</time>
      </trkpt>
      <trkpt lat="42.89272" lon="0.1068">
        <ele>1614</ele>
        <time>2013-05-04T10:35:35Z</time>
      </trkpt>
      <trkpt lat="42.89299" lon="0.10686">
        <ele>1611</ele>
        <time>2013-05-04T10:35:40Z</time>
      </trkpt>
      <trkpt lat="42.89317" lon="0.10687">
        <ele>1609</ele>
        <time>2013-05-04T10:35:45Z</time>
      </trkpt>
      <trkpt lat="42.89321" lon="0.10687">
        <ele>1609</ele>
        <time>2013-05-04T10:35:52Z</time>
      </trkpt>
      <trkpt lat="42.89326" lon="0.10688">
        <ele>1609</ele>
        <time>2013-05-04T10:36:01Z</time>
      </trkpt>
      <trkpt lat="42.89327" lon="0.10686">
        <ele>1609</ele>
        <time>2013-05-04T10:36:10Z</time>
      </trkpt>
      <trkpt lat="42.8933" lon="0.10687">
        <ele>1609</ele>
        <time>2013-05-04T10:36:18Z</time>
      </trkpt>
      <trkpt lat="42.89341" lon="0.10699">
        <ele>1608</ele>
        <time>2013-05-04T10:36:26Z</time>
      </trkpt>
      <trkpt lat="42.89352" lon="0.10709">
        <ele>1607</ele>
        <time>2013-05-04T10:36:32Z</time>
      </trkpt>
      <trkpt lat="42.89354" lon="0.10709">
        <ele>1606</ele>
        <time>2013-05-04T10:36:33Z</time>
      </trkpt>
      <trkpt lat="42.89364" lon="0.10712">
        <ele>1605</ele>
        <time>2013-05-04T10:36:39Z</time>
      </trkpt>
      <trkpt lat="42.8937" lon="0.10712">
        <ele>1604</ele>
        <time>2013-05-04T10:36:40Z</time>
      </trkpt>
      <trkpt lat="42.89384" lon="0.10708">
        <ele>1600</ele>
        <time>2013-05-04T10:36:48Z</time>
      </trkpt>
      <trkpt lat="42.8939" lon="0.10702">
        <ele>1598</ele>
        <time>2013-05-04T10:36:52Z</time>
      </trkpt>
      <trkpt lat="42.89391" lon="0.10693">
        <ele>1597</ele>
        <time>2013-05-04T10:37:00Z</time>
      </trkpt>
      <trkpt lat="42.89391" lon="0.10691">
        <ele>1597</ele>
        <time>2013-05-04T10:37:08Z</time>
      </trkpt>
      <trkpt lat="42.89391" lon="0.10689">
        <ele>1596</ele>
        <time>2013-05-04T10:37:17Z</time>
      </trkpt>
      <trkpt lat="42.89391" lon="0.10688">
        <ele>1596</ele>
        <time>2013-05-04T10:37:23Z</time>
      </trkpt>
      <trkpt lat="42.89391" lon="0.10685">
        <ele>1596</ele>
        <time>2013-05-04T10:37:32Z</time>
      </trkpt>
      <trkpt lat="42.89392" lon="0.10688">
        <ele>1596</ele>
        <time>2013-05-04T10:37:40Z</time>
      </trkpt>
      <trkpt lat="42.89392" lon="0.1069">
        <ele>1595</ele>
        <time>2013-05-04T10:37:46Z</time>
      </trkpt>
      <trkpt lat="42.89392" lon="0.10691">
        <ele>1596</ele>
        <time>2013-05-04T10:37:54Z</time>
      </trkpt>
      <trkpt lat="42.89394" lon="0.10694">
        <ele>1595</ele>
        <time>2013-05-04T10:38:03Z</time>
      </trkpt>
      <trkpt lat="42.894" lon="0.10694">
        <ele>1595</ele>
        <time>2013-05-04T10:38:09Z</time>
      </trkpt>
      <trkpt lat="42.89405" lon="0.10695">
        <ele>1595</ele>
        <time>2013-05-04T10:38:13Z</time>
      </trkpt>
      <trkpt lat="42.89414" lon="0.10701">
        <ele>1594</ele>
        <time>2013-05-04T10:38:21Z</time>
      </trkpt>
      <trkpt lat="42.89421" lon="0.10705">
        <ele>1594</ele>
        <time>2013-05-04T10:38:28Z</time>
      </trkpt>
      <trkpt lat="42.89426" lon="0.10708">
        <ele>1594</ele>
        <time>2013-05-04T10:38:35Z</time>
      </trkpt>
      <trkpt lat="42.89429" lon="0.10711">
        <ele>1594</ele>
        <time>2013-05-04T10:38:41Z</time>
      </trkpt>
      <trkpt lat="42.89432" lon="0.10713">
        <ele>1594</ele>
        <time>2013-05-04T10:38:48Z</time>
      </trkpt>
      <trkpt lat="42.89438" lon="0.10716">
        <ele>1593</ele>
        <time>2013-05-04T10:38:54Z</time>
      </trkpt>
      <trkpt lat="42.8945" lon="0.10719">
        <ele>1593</ele>
        <time>2013-05-04T10:39:02Z</time>
      </trkpt>
      <trkpt lat="42.89459" lon="0.10721">
        <ele>1591</ele>
        <time>2013-05-04T10:39:06Z</time>
      </trkpt>
      <trkpt lat="42.89473" lon="0.10724">
        <ele>1591</ele>
        <time>2013-05-04T10:39:12Z</time>
      </trkpt>
      <trkpt lat="42.8949" lon="0.10728">
        <ele>1589</ele>
        <time>2013-05-04T10:39:18Z</time>
      </trkpt>
      <trkpt lat="42.89505" lon="0.10734">
        <ele>1588</ele>
        <time>2013-05-04T10:39:25Z</time>
      </trkpt>
      <trkpt lat="42.89518" lon="0.10739">
        <ele>1586</ele>
        <time>2013-05-04T10:39:29Z</time>
      </trkpt>
      <trkpt lat="42.89529" lon="0.10743">
        <ele>1586</ele>
        <time>2013-05-04T10:39:35Z</time>
      </trkpt>
      <trkpt lat="42.89541" lon="0.10745">
        <ele>1584</ele>
        <time>2013-05-04T10:39:42Z</time>
      </trkpt>
      <trkpt lat="42.89554" lon="0.10751">
        <ele>1583</ele>
        <time>2013-05-04T10:39:49Z</time>
      </trkpt>
      <trkpt lat="42.89567" lon="0.10757">
        <ele>1581</ele>
        <time>2013-05-04T10:39:56Z</time>
      </trkpt>
      <trkpt lat="42.89578" lon="0.10759">
        <ele>1580</ele>
        <time>2013-05-04T10:40:01Z</time>
      </trkpt>
      <trkpt lat="42.89587" lon="0.10758">
        <ele>1580</ele>
        <time>2013-05-04T10:40:08Z</time>
      </trkpt>
      <trkpt lat="42.89591" lon="0.10757">
        <ele>1579</ele>
        <time>2013-05-04T10:40:10Z</time>
      </trkpt>
      <trkpt lat="42.89597" lon="0.10755">
        <ele>1579</ele>
        <time>2013-05-04T10:40:14Z</time>
      </trkpt>
      <trkpt lat="42.89608" lon="0.10752">
        <ele>1577</ele>
        <time>2013-05-04T10:40:21Z</time>
      </trkpt>
      <trkpt lat="42.89609" lon="0.10753">
        <ele>1577</ele>
        <time>2013-05-04T10:40:24Z</time>
      </trkpt>
      <trkpt lat="42.89613" lon="0.10751">
        <ele>1577</ele>
        <time>2013-05-04T10:40:30Z</time>
      </trkpt>
      <trkpt lat="42.89623" lon="0.10744">
        <ele>1576</ele>
        <time>2013-05-04T10:40:36Z</time>
      </trkpt>
      <trkpt lat="42.89628" lon="0.10742">
        <ele>1576</ele>
        <time>2013-05-04T10:40:40Z</time>
      </trkpt>
      <trkpt lat="42.89629" lon="0.1074">
        <ele>1576</ele>
        <time>2013-05-04T10:40:41Z</time>
      </trkpt>
      <trkpt lat="42.89637" lon="0.10737">
        <ele>1575</ele>
        <time>2013-05-04T10:40:47Z</time>
      </trkpt>
      <trkpt lat="42.8964" lon="0.10739">
        <ele>1575</ele>
        <time>2013-05-04T10:40:51Z</time>
      </trkpt>
      <trkpt lat="42.89645" lon="0.10741">
        <ele>1574</ele>
        <time>2013-05-04T10:40:58Z</time>
      </trkpt>
      <trkpt lat="42.89646" lon="0.10743">
        <ele>1574</ele>
        <time>2013-05-04T10:41:03Z</time>
      </trkpt>
      <trkpt lat="42.89661" lon="0.10743">
        <ele>1573</ele>
        <time>2013-05-04T10:41:10Z</time>
      </trkpt>
      <trkpt lat="42.89672" lon="0.10744">
        <ele>1570</ele>
        <time>2013-05-04T10:41:13Z</time>
      </trkpt>
      <trkpt lat="42.89675" lon="0.10744">
        <ele>1569</ele>
        <time>2013-05-04T10:41:14Z</time>
      </trkpt>
      <trkpt lat="42.89678" lon="0.10744">
        <ele>1569</ele>
        <time>2013-05-04T10:41:18Z</time>
      </trkpt>
      <trkpt lat="42.8968" lon="0.10744">
        <ele>1569</ele>
        <time>2013-05-04T10:41:19Z</time>
      </trkpt>
      <trkpt lat="42.89692" lon="0.10735">
        <ele>1569</ele>
        <time>2013-05-04T10:41:26Z</time>
      </trkpt>
      <trkpt lat="42.89702" lon="0.10734">
        <ele>1568</ele>
        <time>2013-05-04T10:41:32Z</time>
      </trkpt>
      <trkpt lat="42.89707" lon="0.10734">
        <ele>1567</ele>
        <time>2013-05-04T10:41:35Z</time>
      </trkpt>
      <trkpt lat="42.89715" lon="0.10735">
        <ele>1567</ele>
        <time>2013-05-04T10:41:42Z</time>
      </trkpt>
      <trkpt lat="42.89727" lon="0.10736">
        <ele>1566</ele>
        <time>2013-05-04T10:41:48Z</time>
      </trkpt>
      <trkpt lat="42.89736" lon="0.10735">
        <ele>1565</ele>
        <time>2013-05-04T10:41:52Z</time>
      </trkpt>
      <trkpt lat="42.89745" lon="0.10734">
        <ele>1564</ele>
        <time>2013-05-04T10:41:56Z</time>
      </trkpt>
      <trkpt lat="42.8975" lon="0.10736">
        <ele>1565</ele>
        <time>2013-05-04T10:42:01Z</time>
      </trkpt>
      <trkpt lat="42.89757" lon="0.10732">
        <ele>1564</ele>
        <time>2013-05-04T10:42:08Z</time>
      </trkpt>
      <trkpt lat="42.89759" lon="0.10731">
        <ele>1565</ele>
        <time>2013-05-04T10:42:10Z</time>
      </trkpt>
      <trkpt lat="42.89766" lon="0.10729">
        <ele>1565</ele>
        <time>2013-05-04T10:42:17Z</time>
      </trkpt>
      <trkpt lat="42.89771" lon="0.10729">
        <ele>1565</ele>
        <time>2013-05-04T10:42:23Z</time>
      </trkpt>
      <trkpt lat="42.89774" lon="0.1073">
        <ele>1565</ele>
        <time>2013-05-04T10:42:28Z</time>
      </trkpt>
      <trkpt lat="42.89775" lon="0.1073">
        <ele>1565</ele>
        <time>2013-05-04T10:42:29Z</time>
      </trkpt>
      <trkpt lat="42.89778" lon="0.10727">
        <ele>1566</ele>
        <time>2013-05-04T10:42:33Z</time>
      </trkpt>
      <trkpt lat="42.8978" lon="0.10728">
        <ele>1566</ele>
        <time>2013-05-04T10:42:35Z</time>
      </trkpt>
      <trkpt lat="42.89786" lon="0.10725">
        <ele>1566</ele>
        <time>2013-05-04T10:42:43Z</time>
      </trkpt>
      <trkpt lat="42.8979" lon="0.10724">
        <ele>1567</ele>
        <time>2013-05-04T10:42:49Z</time>
      </trkpt>
      <trkpt lat="42.89795" lon="0.10724">
        <ele>1567</ele>
        <time>2013-05-04T10:42:56Z</time>
      </trkpt>
      <trkpt lat="42.89802" lon="0.1072">
        <ele>1567</ele>
        <time>2013-05-04T10:43:06Z</time>
      </trkpt>
      <trkpt lat="42.89814" lon="0.10711">
        <ele>1566</ele>
        <time>2013-05-04T10:43:11Z</time>
      </trkpt>
      <trkpt lat="42.89821" lon="0.10709">
        <ele>1564</ele>
        <time>2013-05-04T10:43:13Z</time>
      </trkpt>
      <trkpt lat="42.89842" lon="0.107">
        <ele>1562</ele>
        <time>2013-05-04T10:43:19Z</time>
      </trkpt>
      <trkpt lat="42.89855" lon="0.10688">
        <ele>1558</ele>
        <time>2013-05-04T10:43:22Z</time>
      </trkpt>
      <trkpt lat="42.89859" lon="0.10682">
        <ele>1557</ele>
        <time>2013-05-04T10:43:23Z</time>
      </trkpt>
      <trkpt lat="42.89877" lon="0.10661">
        <ele>1550</ele>
        <time>2013-05-04T10:43:27Z</time>
      </trkpt>
      <trkpt lat="42.8989" lon="0.10641">
        <ele>1546</ele>
        <time>2013-05-04T10:43:30Z</time>
      </trkpt>
      <trkpt lat="42.89901" lon="0.10613">
        <ele>1539</ele>
        <time>2013-05-04T10:43:36Z</time>
      </trkpt>
      <trkpt lat="42.89903" lon="0.10587">
        <ele>1534</ele>
        <time>2013-05-04T10:43:40Z</time>
      </trkpt>
      <trkpt lat="42.89907" lon="0.1058">
        <ele>1533</ele>
        <time>2013-05-04T10:43:41Z</time>
      </trkpt>
      <trkpt lat="42.89914" lon="0.10565">
        <ele>1531</ele>
        <time>2013-05-04T10:43:43Z</time>
      </trkpt>
      <trkpt lat="42.89935" lon="0.10548">
        <ele>1525</ele>
        <time>2013-05-04T10:43:47Z</time>
      </trkpt>
      <trkpt lat="42.8994" lon="0.10546">
        <ele>1525</ele>
        <time>2013-05-04T10:43:48Z</time>
      </trkpt>
      <trkpt lat="42.89957" lon="0.10542">
        <ele>1523</ele>
        <time>2013-05-04T10:43:52Z</time>
      </trkpt>
      <trkpt lat="42.89983" lon="0.10536">
        <ele>1520</ele>
        <time>2013-05-04T10:43:57Z</time>
      </trkpt>
      <trkpt lat="42.89992" lon="0.10528">
        <ele>1520</ele>
        <time>2013-05-04T10:43:59Z</time>
      </trkpt>
      <trkpt lat="42.90028" lon="0.10514">
        <ele>1515</ele>
        <time>2013-05-04T10:44:04Z</time>
      </trkpt>
      <trkpt lat="42.90035" lon="0.10511">
        <ele>1515</ele>
        <time>2013-05-04T10:44:05Z</time>
      </trkpt>
      <trkpt lat="42.90048" lon="0.10503">
        <ele>1512</ele>
        <time>2013-05-04T10:44:07Z</time>
      </trkpt>
      <trkpt lat="42.90067" lon="0.10487">
        <ele>1508</ele>
        <time>2013-05-04T10:44:10Z</time>
      </trkpt>
      <trkpt lat="42.90072" lon="0.10482">
        <ele>1508</ele>
        <time>2013-05-04T10:44:11Z</time>
      </trkpt>
      <trkpt lat="42.90094" lon="0.10465">
        <ele>1505</ele>
        <time>2013-05-04T10:44:15Z</time>
      </trkpt>
      <trkpt lat="42.90108" lon="0.1045">
        <ele>1502</ele>
        <time>2013-05-04T10:44:18Z</time>
      </trkpt>
      <trkpt lat="42.90113" lon="0.10446">
        <ele>1500</ele>
        <time>2013-05-04T10:44:19Z</time>
      </trkpt>
      <trkpt lat="42.90136" lon="0.10425">
        <ele>1496</ele>
        <time>2013-05-04T10:44:23Z</time>
      </trkpt>
      <trkpt lat="42.90141" lon="0.10421">
        <ele>1494</ele>
        <time>2013-05-04T10:44:24Z</time>
      </trkpt>
      <trkpt lat="42.90164" lon="0.10403">
        <ele>1492</ele>
        <time>2013-05-04T10:44:28Z</time>
      </trkpt>
      <trkpt lat="42.90179" lon="0.10392">
        <ele>1490</ele>
        <time>2013-05-04T10:44:31Z</time>
      </trkpt>
      <trkpt lat="42.90204" lon="0.1037">
        <ele>1486</ele>
        <time>2013-05-04T10:44:37Z</time>
      </trkpt>
      <trkpt lat="42.90207" lon="0.10369">
        <ele>1486</ele>
        <time>2013-05-04T10:44:38Z</time>
      </trkpt>
      <trkpt lat="42.90214" lon="0.10366">
        <ele>1485</ele>
        <time>2013-05-04T10:44:40Z</time>
      </trkpt>
      <trkpt lat="42.90243" lon="0.10355">
        <ele>1482</ele>
        <time>2013-05-04T10:44:46Z</time>
      </trkpt>
      <trkpt lat="42.90259" lon="0.10349">
        <ele>1481</ele>
        <time>2013-05-04T10:44:50Z</time>
      </trkpt>
      <trkpt lat="42.90262" lon="0.10349">
        <ele>1481</ele>
        <time>2013-05-04T10:44:51Z</time>
      </trkpt>
      <trkpt lat="42.90275" lon="0.10343">
        <ele>1480</ele>
        <time>2013-05-04T10:44:56Z</time>
      </trkpt>
      <trkpt lat="42.90287" lon="0.10331">
        <ele>1479</ele>
        <time>2013-05-04T10:45:01Z</time>
      </trkpt>
      <trkpt lat="42.90293" lon="0.10297">
        <ele>1477</ele>
        <time>2013-05-04T10:45:08Z</time>
      </trkpt>
      <trkpt lat="42.90295" lon="0.10287">
        <ele>1476</ele>
        <time>2013-05-04T10:45:10Z</time>
      </trkpt>
      <trkpt lat="42.90296" lon="0.10276">
        <ele>1475</ele>
        <time>2013-05-04T10:45:12Z</time>
      </trkpt>
      <trkpt lat="42.90304" lon="0.10254">
        <ele>1473</ele>
        <time>2013-05-04T10:45:16Z</time>
      </trkpt>
      <trkpt lat="42.90313" lon="0.10255">
        <ele>1471</ele>
        <time>2013-05-04T10:45:20Z</time>
      </trkpt>
      <trkpt lat="42.90316" lon="0.10258">
        <ele>1471</ele>
        <time>2013-05-04T10:45:22Z</time>
      </trkpt>
      <trkpt lat="42.90328" lon="0.10266">
        <ele>1470</ele>
        <time>2013-05-04T10:45:29Z</time>
      </trkpt>
      <trkpt lat="42.90329" lon="0.10267">
        <ele>1469</ele>
        <time>2013-05-04T10:45:30Z</time>
      </trkpt>
      <trkpt lat="42.90333" lon="0.10272">
        <ele>1469</ele>
        <time>2013-05-04T10:45:38Z</time>
      </trkpt>
      <trkpt lat="42.90334" lon="0.1027">
        <ele>1469</ele>
        <time>2013-05-04T10:45:46Z</time>
      </trkpt>
      <trkpt lat="42.90334" lon="0.10267">
        <ele>1469</ele>
        <time>2013-05-04T10:46:00Z</time>
      </trkpt>
      <trkpt lat="42.90335" lon="0.1027">
        <ele>1469</ele>
        <time>2013-05-04T10:46:10Z</time>
      </trkpt>
      <trkpt lat="42.90334" lon="0.10272">
        <ele>1469</ele>
        <time>2013-05-04T10:46:20Z</time>
      </trkpt>
      <trkpt lat="42.9034" lon="0.10275">
        <ele>1468</ele>
        <time>2013-05-04T10:46:30Z</time>
      </trkpt>
      <trkpt lat="42.90344" lon="0.10273">
        <ele>1468</ele>
        <time>2013-05-04T10:46:38Z</time>
      </trkpt>
      <trkpt lat="42.90345" lon="0.10267">
        <ele>1467</ele>
        <time>2013-05-04T10:46:44Z</time>
      </trkpt>
      <trkpt lat="42.90347" lon="0.10265">
        <ele>1468</ele>
        <time>2013-05-04T10:46:46Z</time>
      </trkpt>
      <trkpt lat="42.9035" lon="0.10265">
        <ele>1468</ele>
        <time>2013-05-04T10:46:50Z</time>
      </trkpt>
      <trkpt lat="42.90351" lon="0.10263">
        <ele>1467</ele>
        <time>2013-05-04T10:46:58Z</time>
      </trkpt>
      <trkpt lat="42.90351" lon="0.10264">
        <ele>1467</ele>
        <time>2013-05-04T10:47:07Z</time>
      </trkpt>
      <trkpt lat="42.90351" lon="0.10266">
        <ele>1467</ele>
        <time>2013-05-04T10:47:17Z</time>
      </trkpt>
      <trkpt lat="42.90354" lon="0.10268">
        <ele>1467</ele>
        <time>2013-05-04T10:47:25Z</time>
      </trkpt>
      <trkpt lat="42.90352" lon="0.10266">
        <ele>1468</ele>
        <time>2013-05-04T10:47:33Z</time>
      </trkpt>
      <trkpt lat="42.90351" lon="0.10261">
        <ele>1467</ele>
        <time>2013-05-04T10:47:42Z</time>
      </trkpt>
      <trkpt lat="42.90349" lon="0.10254">
        <ele>1467</ele>
        <time>2013-05-04T10:47:57Z</time>
      </trkpt>
      <trkpt lat="42.9035" lon="0.10236">
        <ele>1467</ele>
        <time>2013-05-04T10:48:10Z</time>
      </trkpt>
    </trkseg>
  </trk>
</gpx>